﻿<?xml version="1.0" encoding="utf-8"?><gpx creator="Garmin Desktop App" version="1.1" xsi:schemaLocation="http://www.topografix.com/GPX/1/1 http://www.topografix.com/GPX/1/1/gpx.xsd http://www.garmin.com/xmlschemas/WaypointExtension/v1 http://www8.garmin.com/xmlschemas/WaypointExtensionv1.xsd http://www.garmin.com/xmlschemas/TrackPointExtension/v1 http://www.garmin.com/xmlschemas/TrackPointExtensionv1.xsd http://www.garmin.com/xmlschemas/GpxExtensions/v3 http://www8.garmin.com/xmlschemas/GpxExtensionsv3.xsd http://www.garmin.com/xmlschemas/ActivityExtension/v1 http://www8.garmin.com/xmlschemas/ActivityExtensionv1.xsd http://www.garmin.com/xmlschemas/AdventuresExtensions/v1 http://www8.garmin.com/xmlschemas/AdventuresExtensionv1.xsd http://www.garmin.com/xmlschemas/PressureExtension/v1 http://www.garmin.com/xmlschemas/PressureExtensionv1.xsd http://www.garmin.com/xmlschemas/TripExtensions/v1 http://www.garmin.com/xmlschemas/TripExtensionsv1.xsd http://www.garmin.com/xmlschemas/TripMetaDataExtensions/v1 http://www.garmin.com/xmlschemas/TripMetaDataExtensionsv1.xsd http://www.garmin.com/xmlschemas/ViaPointTransportationModeExtensions/v1 http://www.garmin.com/xmlschemas/ViaPointTransportationModeExtensionsv1.xsd http://www.garmin.com/xmlschemas/CreationTimeExtension/v1 http://www.garmin.com/xmlschemas/CreationTimeExtensionsv1.xsd http://www.garmin.com/xmlschemas/AccelerationExtension/v1 http://www.garmin.com/xmlschemas/AccelerationExtensionv1.xsd http://www.garmin.com/xmlschemas/PowerExtension/v1 http://www.garmin.com/xmlschemas/PowerExtensionv1.xsd http://www.garmin.com/xmlschemas/VideoExtension/v1 http://www.garmin.com/xmlschemas/VideoExtensionv1.xsd" xmlns="http://www.topografix.com/GPX/1/1" xmlns:xsi="http://www.w3.org/2001/XMLSchema-instance" xmlns:wptx1="http://www.garmin.com/xmlschemas/WaypointExtension/v1" xmlns:gpxtrx="http://www.garmin.com/xmlschemas/GpxExtensions/v3" xmlns:gpxtpx="http://www.garmin.com/xmlschemas/TrackPointExtension/v1" xmlns:gpxx="http://www.garmin.com/xmlschemas/GpxExtensions/v3" xmlns:trp="http://www.garmin.com/xmlschemas/TripExtensions/v1" xmlns:adv="http://www.garmin.com/xmlschemas/AdventuresExtensions/v1" xmlns:prs="http://www.garmin.com/xmlschemas/PressureExtension/v1" xmlns:tmd="http://www.garmin.com/xmlschemas/TripMetaDataExtensions/v1" xmlns:vptm="http://www.garmin.com/xmlschemas/ViaPointTransportationModeExtensions/v1" xmlns:ctx="http://www.garmin.com/xmlschemas/CreationTimeExtension/v1" xmlns:gpxacc="http://www.garmin.com/xmlschemas/AccelerationExtension/v1" xmlns:gpxpx="http://www.garmin.com/xmlschemas/PowerExtension/v1" xmlns:vidx1="http://www.garmin.com/xmlschemas/VideoExtension/v1">

  <metadata>
    <link href="http://www.garmin.com">
      <text>Garmin International</text>
    </link>
    <time>2021-01-25T13:42:37Z</time>
    <bounds maxlat="46.137830447405577" maxlon="9.375447873026133" minlat="46.075435895472765" minlon="9.306130120530725" />
  </metadata>

  <trk>
    <name>dervio-colico-2013-05-23</name>
    <extensions>
      <gpxx:TrackExtension>
        <gpxx:DisplayColor>Yellow</gpxx:DisplayColor>
      </gpxx:TrackExtension>
    </extensions>
    <trkseg>
      <trkpt lat="46.075454168021679" lon="9.306140933185816">
        <ele>219.31999999999999</ele>
        <time>2013-05-23T06:50:41Z</time>
      </trkpt>
      <trkpt lat="46.075435895472765" lon="9.306130120530725">
        <ele>219.80000000000001</ele>
        <time>2013-05-23T06:50:55Z</time>
      </trkpt>
      <trkpt lat="46.075488533824682" lon="9.306193990632892">
        <ele>220.28</ele>
        <time>2013-05-23T06:51:11Z</time>
      </trkpt>
      <trkpt lat="46.075506135821342" lon="9.306225590407848">
        <ele>220.28</ele>
        <time>2013-05-23T06:51:14Z</time>
      </trkpt>
      <trkpt lat="46.075505800545216" lon="9.30625987239182">
        <ele>220.28</ele>
        <time>2013-05-23T06:51:19Z</time>
      </trkpt>
      <trkpt lat="46.075586769729853" lon="9.306364981457591">
        <ele>219.80000000000001</ele>
        <time>2013-05-23T06:51:36Z</time>
      </trkpt>
      <trkpt lat="46.075636893510818" lon="9.306399011984468">
        <ele>219.31999999999999</ele>
        <time>2013-05-23T06:51:58Z</time>
      </trkpt>
      <trkpt lat="46.075787348672748" lon="9.306322652846575">
        <ele>219.31999999999999</ele>
        <time>2013-05-23T06:52:15Z</time>
      </trkpt>
      <trkpt lat="46.075897235423326" lon="9.306325083598495">
        <ele>219.80000000000001</ele>
        <time>2013-05-23T06:52:24Z</time>
      </trkpt>
      <trkpt lat="46.075941827148199" lon="9.306316869333386">
        <ele>220.28</ele>
        <time>2013-05-23T06:52:37Z</time>
      </trkpt>
      <trkpt lat="46.075935875996947" lon="9.306293902918696">
        <ele>220.75999999999999</ele>
        <time>2013-05-23T06:52:45Z</time>
      </trkpt>
      <trkpt lat="46.07596043497324" lon="9.306269846856594">
        <ele>220.28</ele>
        <time>2013-05-23T06:52:48Z</time>
      </trkpt>
      <trkpt lat="46.076099658384919" lon="9.306209916248918">
        <ele>221.24000000000001</ele>
        <time>2013-05-23T06:53:07Z</time>
      </trkpt>
      <trkpt lat="46.07606646604836" lon="9.306235816329718">
        <ele>220.75999999999999</ele>
        <time>2013-05-23T06:53:21Z</time>
      </trkpt>
      <trkpt lat="46.076036039739847" lon="9.30624277330935">
        <ele>220.75999999999999</ele>
        <time>2013-05-23T06:53:24Z</time>
      </trkpt>
      <trkpt lat="46.075921542942524" lon="9.306297926232219">
        <ele>221.24000000000001</ele>
        <time>2013-05-23T06:53:35Z</time>
      </trkpt>
      <trkpt lat="46.075909724459052" lon="9.306413261219859">
        <ele>221.24000000000001</ele>
        <time>2013-05-23T06:53:47Z</time>
      </trkpt>
      <trkpt lat="46.075912741944194" lon="9.306443184614182">
        <ele>221.24000000000001</ele>
        <time>2013-05-23T06:53:49Z</time>
      </trkpt>
      <trkpt lat="46.075981222093105" lon="9.306553741917014">
        <ele>223.16</ele>
        <time>2013-05-23T06:54:00Z</time>
      </trkpt>
      <trkpt lat="46.075999494642019" lon="9.306584503501654">
        <ele>223.63999999999999</ele>
        <time>2013-05-23T06:54:03Z</time>
      </trkpt>
      <trkpt lat="46.076012821868062" lon="9.306839564815164">
        <ele>223.63999999999999</ele>
        <time>2013-05-23T06:54:18Z</time>
      </trkpt>
      <trkpt lat="46.076032184064388" lon="9.306911481544375">
        <ele>224.12</ele>
        <time>2013-05-23T06:54:22Z</time>
      </trkpt>
      <trkpt lat="46.076093455776572" lon="9.307172074913979">
        <ele>223.63999999999999</ele>
        <time>2013-05-23T06:54:41Z</time>
      </trkpt>
      <trkpt lat="46.076176520437002" lon="9.307382376864553">
        <ele>225.09</ele>
        <time>2013-05-23T06:54:55Z</time>
      </trkpt>
      <trkpt lat="46.076168725267053" lon="9.307470386847854">
        <ele>225.09</ele>
        <time>2013-05-23T06:55:08Z</time>
      </trkpt>
      <trkpt lat="46.07617350295186" lon="9.307513721287251">
        <ele>225.56999999999999</ele>
        <time>2013-05-23T06:55:11Z</time>
      </trkpt>
      <trkpt lat="46.076160008087754" lon="9.307828964665532">
        <ele>227.00999999999999</ele>
        <time>2013-05-23T06:55:29Z</time>
      </trkpt>
      <trkpt lat="46.076121954247355" lon="9.308010265231133">
        <ele>227.49000000000001</ele>
        <time>2013-05-23T06:55:42Z</time>
      </trkpt>
      <trkpt lat="46.076226728037" lon="9.30827890522778">
        <ele>228.44999999999999</ele>
        <time>2013-05-23T06:55:57Z</time>
      </trkpt>
      <trkpt lat="46.076402831822634" lon="9.3083590362221">
        <ele>229.41</ele>
        <time>2013-05-23T06:56:16Z</time>
      </trkpt>
      <trkpt lat="46.076445579528809" lon="9.308306900784373">
        <ele>229.41</ele>
        <time>2013-05-23T06:56:20Z</time>
      </trkpt>
      <trkpt lat="46.076496792957187" lon="9.308263147249818">
        <ele>229.41</ele>
        <time>2013-05-23T06:56:24Z</time>
      </trkpt>
      <trkpt lat="46.076523531228304" lon="9.30827010422945">
        <ele>229.88999999999999</ele>
        <time>2013-05-23T06:56:27Z</time>
      </trkpt>
      <trkpt lat="46.076563764363527" lon="9.308417961001396">
        <ele>231.33000000000001</ele>
        <time>2013-05-23T06:56:42Z</time>
      </trkpt>
      <trkpt lat="46.076564518734813" lon="9.308460373431444">
        <ele>231.33000000000001</ele>
        <time>2013-05-23T06:56:51Z</time>
      </trkpt>
      <trkpt lat="46.076564518734813" lon="9.308529105037451">
        <ele>231.81</ele>
        <time>2013-05-23T06:56:57Z</time>
      </trkpt>
      <trkpt lat="46.076555382460356" lon="9.308729013428092">
        <ele>232.30000000000001</ele>
        <time>2013-05-23T06:57:09Z</time>
      </trkpt>
      <trkpt lat="46.076540211215615" lon="9.30878022685647">
        <ele>231.81</ele>
        <time>2013-05-23T06:57:12Z</time>
      </trkpt>
      <trkpt lat="46.076562171801925" lon="9.308880558237433">
        <ele>232.30000000000001</ele>
        <time>2013-05-23T06:57:20Z</time>
      </trkpt>
      <trkpt lat="46.076639872044325" lon="9.308997066691518">
        <ele>231.33000000000001</ele>
        <time>2013-05-23T06:57:35Z</time>
      </trkpt>
      <trkpt lat="46.076646829023957" lon="9.30900645442307">
        <ele>230.84999999999999</ele>
        <time>2013-05-23T06:57:39Z</time>
      </trkpt>
      <trkpt lat="46.076679602265358" lon="9.309028834104538">
        <ele>230.84999999999999</ele>
        <time>2013-05-23T06:57:42Z</time>
      </trkpt>
      <trkpt lat="46.076680943369865" lon="9.309131680056453">
        <ele>230.84999999999999</ele>
        <time>2013-05-23T06:57:47Z</time>
      </trkpt>
      <trkpt lat="46.076666358858347" lon="9.309203093871474">
        <ele>230.84999999999999</ele>
        <time>2013-05-23T06:57:57Z</time>
      </trkpt>
      <trkpt lat="46.076675662770867" lon="9.309251457452774">
        <ele>231.81</ele>
        <time>2013-05-23T06:58:01Z</time>
      </trkpt>
      <trkpt lat="46.076629729941487" lon="9.309219857677817">
        <ele>230.84999999999999</ele>
        <time>2013-05-23T06:58:05Z</time>
      </trkpt>
      <trkpt lat="46.076537864282727" lon="9.309194544330239">
        <ele>229.41</ele>
        <time>2013-05-23T06:58:15Z</time>
      </trkpt>
      <trkpt lat="46.076563680544496" lon="9.309422615915537">
        <ele>227.00999999999999</ele>
        <time>2013-05-23T06:58:31Z</time>
      </trkpt>
      <trkpt lat="46.076551862061024" lon="9.309400320053101">
        <ele>227.00999999999999</ele>
        <time>2013-05-23T06:58:37Z</time>
      </trkpt>
      <trkpt lat="46.076529901474714" lon="9.309353129938245">
        <ele>227.49000000000001</ele>
        <time>2013-05-23T06:58:43Z</time>
      </trkpt>
      <trkpt lat="46.076548928394914" lon="9.309192700311542">
        <ele>228.44999999999999</ele>
        <time>2013-05-23T06:58:51Z</time>
      </trkpt>
      <trkpt lat="46.076664682477713" lon="9.309202758595347">
        <ele>230.37</ele>
        <time>2013-05-23T06:59:00Z</time>
      </trkpt>
      <trkpt lat="46.076797703281045" lon="9.309475338086486">
        <ele>231.81</ele>
        <time>2013-05-23T06:59:15Z</time>
      </trkpt>
      <trkpt lat="46.07689032331109" lon="9.309647167101502">
        <ele>233.74000000000001</ele>
        <time>2013-05-23T06:59:30Z</time>
      </trkpt>
      <trkpt lat="46.076982188969851" lon="9.309771303087473">
        <ele>234.69999999999999</ele>
        <time>2013-05-23T06:59:45Z</time>
      </trkpt>
      <trkpt lat="46.077169273048639" lon="9.30994070135057">
        <ele>238.06</ele>
        <time>2013-05-23T07:00:03Z</time>
      </trkpt>
      <trkpt lat="46.077204057946801" lon="9.309969367459416">
        <ele>238.53999999999999</ele>
        <time>2013-05-23T07:00:16Z</time>
      </trkpt>
      <trkpt lat="46.077204812318087" lon="9.309968613088131">
        <ele>239.02000000000001</ele>
        <time>2013-05-23T07:00:31Z</time>
      </trkpt>
      <trkpt lat="46.077232975512743" lon="9.310023849830031">
        <ele>240.94999999999999</ele>
        <time>2013-05-23T07:00:44Z</time>
      </trkpt>
      <trkpt lat="46.07730464078486" lon="9.310065424069762">
        <ele>243.34999999999999</ele>
        <time>2013-05-23T07:00:57Z</time>
      </trkpt>
      <trkpt lat="46.07730807736516" lon="9.310074895620346">
        <ele>243.83000000000001</ele>
        <time>2013-05-23T07:00:59Z</time>
      </trkpt>
      <trkpt lat="46.077222162857652" lon="9.310126109048724">
        <ele>246.72</ele>
        <time>2013-05-23T07:01:13Z</time>
      </trkpt>
      <trkpt lat="46.077173799276352" lon="9.310150081291795">
        <ele>247.19999999999999</ele>
        <time>2013-05-23T07:01:29Z</time>
      </trkpt>
      <trkpt lat="46.077109761536121" lon="9.310140945017338">
        <ele>250.08000000000001</ele>
        <time>2013-05-23T07:01:41Z</time>
      </trkpt>
      <trkpt lat="46.077048573642969" lon="9.310142369940877">
        <ele>252.47999999999999</ele>
        <time>2013-05-23T07:01:54Z</time>
      </trkpt>
      <trkpt lat="46.076984954997897" lon="9.310191739350557">
        <ele>255.84999999999999</ele>
        <time>2013-05-23T07:02:10Z</time>
      </trkpt>
      <trkpt lat="46.076935585588217" lon="9.310137508437038">
        <ele>257.29000000000002</ele>
        <time>2013-05-23T07:02:24Z</time>
      </trkpt>
      <trkpt lat="46.076896190643311" lon="9.310206323862076">
        <ele>260.17000000000002</ele>
        <time>2013-05-23T07:02:39Z</time>
      </trkpt>
      <trkpt lat="46.076869452372193" lon="9.310293244197965">
        <ele>262.57999999999998</ele>
        <time>2013-05-23T07:02:54Z</time>
      </trkpt>
      <trkpt lat="46.07691865414381" lon="9.310359293594956">
        <ele>265.45999999999998</ele>
        <time>2013-05-23T07:03:11Z</time>
      </trkpt>
      <trkpt lat="46.0769899841398" lon="9.310421822592616">
        <ele>267.38</ele>
        <time>2013-05-23T07:03:26Z</time>
      </trkpt>
      <trkpt lat="46.077045556157827" lon="9.3104830943048">
        <ele>269.31</ele>
        <time>2013-05-23T07:03:38Z</time>
      </trkpt>
      <trkpt lat="46.077080508694053" lon="9.31050505489111">
        <ele>271.23000000000002</ele>
        <time>2013-05-23T07:03:46Z</time>
      </trkpt>
      <trkpt lat="46.077157957479358" lon="9.310521902516484">
        <ele>273.63</ele>
        <time>2013-05-23T07:04:00Z</time>
      </trkpt>
      <trkpt lat="46.077244961634278" lon="9.310519639402628">
        <ele>276.04000000000002</ele>
        <time>2013-05-23T07:04:15Z</time>
      </trkpt>
      <trkpt lat="46.077321656048298" lon="9.310515364632011">
        <ele>277.95999999999998</ele>
        <time>2013-05-23T07:04:28Z</time>
      </trkpt>
      <trkpt lat="46.077345125377178" lon="9.310523075982928">
        <ele>279.39999999999998</ele>
        <time>2013-05-23T07:04:40Z</time>
      </trkpt>
      <trkpt lat="46.077492227777839" lon="9.310563057661057">
        <ele>281.80000000000001</ele>
        <time>2013-05-23T07:04:57Z</time>
      </trkpt>
      <trkpt lat="46.077494658529758" lon="9.31070295162499">
        <ele>282.27999999999997</ele>
        <time>2013-05-23T07:05:11Z</time>
      </trkpt>
      <trkpt lat="46.077450485900044" lon="9.310829937458038">
        <ele>284.69</ele>
        <time>2013-05-23T07:05:29Z</time>
      </trkpt>
      <trkpt lat="46.077433805912733" lon="9.310836726799607">
        <ele>286.61000000000001</ele>
        <time>2013-05-23T07:05:44Z</time>
      </trkpt>
      <trkpt lat="46.077377730980515" lon="9.310874696820974">
        <ele>287.56999999999999</ele>
        <time>2013-05-23T07:06:01Z</time>
      </trkpt>
      <trkpt lat="46.077370941638947" lon="9.310882072895765">
        <ele>288.05000000000001</ele>
        <time>2013-05-23T07:06:03Z</time>
      </trkpt>
      <trkpt lat="46.077316459268332" lon="9.310874864459038">
        <ele>287.56999999999999</ele>
        <time>2013-05-23T07:06:07Z</time>
      </trkpt>
      <trkpt lat="46.077298186719418" lon="9.310999670997262">
        <ele>287.08999999999997</ele>
        <time>2013-05-23T07:06:21Z</time>
      </trkpt>
      <trkpt lat="46.077290391549468" lon="9.311032695695758">
        <ele>287.08999999999997</ele>
        <time>2013-05-23T07:06:33Z</time>
      </trkpt>
      <trkpt lat="46.077264491468668" lon="9.31110461242497">
        <ele>287.08999999999997</ele>
        <time>2013-05-23T07:06:45Z</time>
      </trkpt>
      <trkpt lat="46.077252253890038" lon="9.311084747314453">
        <ele>287.56999999999999</ele>
        <time>2013-05-23T07:06:56Z</time>
      </trkpt>
      <trkpt lat="46.077282847836614" lon="9.31109388358891">
        <ele>287.08999999999997</ele>
        <time>2013-05-23T07:07:01Z</time>
      </trkpt>
      <trkpt lat="46.077337749302387" lon="9.311097068712115">
        <ele>287.56999999999999</ele>
        <time>2013-05-23T07:07:16Z</time>
      </trkpt>
      <trkpt lat="46.077361050993204" lon="9.311132188886404">
        <ele>287.56999999999999</ele>
        <time>2013-05-23T07:07:29Z</time>
      </trkpt>
      <trkpt lat="46.077398434281349" lon="9.311150377616286">
        <ele>288.52999999999997</ele>
        <time>2013-05-23T07:07:47Z</time>
      </trkpt>
      <trkpt lat="46.077440846711397" lon="9.311124477535486">
        <ele>287.56999999999999</ele>
        <time>2013-05-23T07:08:07Z</time>
      </trkpt>
      <trkpt lat="46.077492060139775" lon="9.311043424531817">
        <ele>288.05000000000001</ele>
        <time>2013-05-23T07:08:25Z</time>
      </trkpt>
      <trkpt lat="46.077524581924081" lon="9.311015848070383">
        <ele>287.08999999999997</ele>
        <time>2013-05-23T07:08:40Z</time>
      </trkpt>
      <trkpt lat="46.077563976868987" lon="9.31099371984601">
        <ele>286.13</ele>
        <time>2013-05-23T07:08:46Z</time>
      </trkpt>
      <trkpt lat="46.077640419825912" lon="9.311056584119797">
        <ele>283.73000000000002</ele>
        <time>2013-05-23T07:08:54Z</time>
      </trkpt>
      <trkpt lat="46.077670427039266" lon="9.311146102845669">
        <ele>283.73000000000002</ele>
        <time>2013-05-23T07:09:08Z</time>
      </trkpt>
      <trkpt lat="46.077681323513389" lon="9.311167476698756">
        <ele>283.25</ele>
        <time>2013-05-23T07:09:10Z</time>
      </trkpt>
      <trkpt lat="46.077656429260969" lon="9.311475595459342">
        <ele>282.76999999999998</ele>
        <time>2013-05-23T07:09:27Z</time>
      </trkpt>
      <trkpt lat="46.077627344056964" lon="9.311441564932466">
        <ele>281.80000000000001</ele>
        <time>2013-05-23T07:09:38Z</time>
      </trkpt>
      <trkpt lat="46.077639330178499" lon="9.3114432413131">
        <ele>281.31999999999999</ele>
        <time>2013-05-23T07:10:02Z</time>
      </trkpt>
      <trkpt lat="46.077627763152122" lon="9.311470566317439">
        <ele>282.76999999999998</ele>
        <time>2013-05-23T07:10:14Z</time>
      </trkpt>
      <trkpt lat="46.077638072893023" lon="9.3115175049752">
        <ele>282.76999999999998</ele>
        <time>2013-05-23T07:10:27Z</time>
      </trkpt>
      <trkpt lat="46.077608233317733" lon="9.311717581003904">
        <ele>284.69</ele>
        <time>2013-05-23T07:10:43Z</time>
      </trkpt>
      <trkpt lat="46.077619213610888" lon="9.311796622350812">
        <ele>288.05000000000001</ele>
        <time>2013-05-23T07:10:55Z</time>
      </trkpt>
      <trkpt lat="46.077611334621906" lon="9.311824450269342">
        <ele>289.49000000000001</ele>
        <time>2013-05-23T07:11:06Z</time>
      </trkpt>
      <trkpt lat="46.077599599957466" lon="9.31183367036283">
        <ele>290.45999999999998</ele>
        <time>2013-05-23T07:11:20Z</time>
      </trkpt>
      <trkpt lat="46.077662380412221" lon="9.311804920434952">
        <ele>290.45999999999998</ele>
        <time>2013-05-23T07:11:39Z</time>
      </trkpt>
      <trkpt lat="46.077725999057293" lon="9.311763849109411">
        <ele>289.00999999999999</ele>
        <time>2013-05-23T07:11:49Z</time>
      </trkpt>
      <trkpt lat="46.077868407592177" lon="9.311757227405906">
        <ele>288.05000000000001</ele>
        <time>2013-05-23T07:12:04Z</time>
      </trkpt>
      <trkpt lat="46.077937390655279" lon="9.311711126938462">
        <ele>287.56999999999999</ele>
        <time>2013-05-23T07:12:17Z</time>
      </trkpt>
      <trkpt lat="46.07794719748199" lon="9.3116211052984">
        <ele>287.08999999999997</ele>
        <time>2013-05-23T07:12:23Z</time>
      </trkpt>
      <trkpt lat="46.078030010685325" lon="9.311343329027295">
        <ele>285.64999999999998</ele>
        <time>2013-05-23T07:12:39Z</time>
      </trkpt>
      <trkpt lat="46.078163115307689" lon="9.311146354302764">
        <ele>283.73000000000002</ele>
        <time>2013-05-23T07:12:54Z</time>
      </trkpt>
      <trkpt lat="46.078395880758762" lon="9.31141784414649">
        <ele>281.80000000000001</ele>
        <time>2013-05-23T07:13:13Z</time>
      </trkpt>
      <trkpt lat="46.078499732539058" lon="9.311801316216588">
        <ele>279.39999999999998</ele>
        <time>2013-05-23T07:13:33Z</time>
      </trkpt>
      <trkpt lat="46.078421780839562" lon="9.311957722529769">
        <ele>278.44</ele>
        <time>2013-05-23T07:13:43Z</time>
      </trkpt>
      <trkpt lat="46.078415829688311" lon="9.311998458579183">
        <ele>278.44</ele>
        <time>2013-05-23T07:13:50Z</time>
      </trkpt>
      <trkpt lat="46.078490428626537" lon="9.312056796625257">
        <ele>277.95999999999998</ele>
        <time>2013-05-23T07:13:58Z</time>
      </trkpt>
      <trkpt lat="46.078701736405492" lon="9.312008852139115">
        <ele>275.56</ele>
        <time>2013-05-23T07:14:16Z</time>
      </trkpt>
      <trkpt lat="46.078713806346059" lon="9.312001811340451">
        <ele>275.56</ele>
        <time>2013-05-23T07:14:17Z</time>
      </trkpt>
      <trkpt lat="46.078842133283615" lon="9.311957890167832">
        <ele>274.58999999999997</ele>
        <time>2013-05-23T07:14:27Z</time>
      </trkpt>
      <trkpt lat="46.079108845442533" lon="9.311990914866328">
        <ele>272.67000000000002</ele>
        <time>2013-05-23T07:14:46Z</time>
      </trkpt>
      <trkpt lat="46.079334234818816" lon="9.312024107202888">
        <ele>269.79000000000002</ele>
        <time>2013-05-23T07:15:05Z</time>
      </trkpt>
      <trkpt lat="46.079376311972737" lon="9.312031818553805">
        <ele>270.75</ele>
        <time>2013-05-23T07:15:19Z</time>
      </trkpt>
      <trkpt lat="46.079388381913304" lon="9.312044139951468">
        <ele>270.75</ele>
        <time>2013-05-23T07:15:23Z</time>
      </trkpt>
      <trkpt lat="46.079425010830164" lon="9.312073057517409">
        <ele>269.79000000000002</ele>
        <time>2013-05-23T07:15:30Z</time>
      </trkpt>
      <trkpt lat="46.079474212601781" lon="9.312078589573503">
        <ele>270.26999999999998</ele>
        <time>2013-05-23T07:15:34Z</time>
      </trkpt>
      <trkpt lat="46.079629445448518" lon="9.312127288430929">
        <ele>269.31</ele>
        <time>2013-05-23T07:15:50Z</time>
      </trkpt>
      <trkpt lat="46.079638162627816" lon="9.312109686434269">
        <ele>268.82999999999998</ele>
        <time>2013-05-23T07:15:53Z</time>
      </trkpt>
      <trkpt lat="46.07965593226254" lon="9.312064843252301">
        <ele>268.82999999999998</ele>
        <time>2013-05-23T07:16:05Z</time>
      </trkpt>
      <trkpt lat="46.079697255045176" lon="9.31204916909337">
        <ele>267.38</ele>
        <time>2013-05-23T07:16:19Z</time>
      </trkpt>
      <trkpt lat="46.079687112942338" lon="9.312071716412902">
        <ele>268.35000000000002</ele>
        <time>2013-05-23T07:16:27Z</time>
      </trkpt>
      <trkpt lat="46.079694991931319" lon="9.312065849080682">
        <ele>268.35000000000002</ele>
        <time>2013-05-23T07:16:41Z</time>
      </trkpt>
      <trkpt lat="46.079699099063873" lon="9.312046319246292">
        <ele>268.35000000000002</ele>
        <time>2013-05-23T07:16:48Z</time>
      </trkpt>
      <trkpt lat="46.079732961952686" lon="9.311962751671672">
        <ele>267.38</ele>
        <time>2013-05-23T07:17:03Z</time>
      </trkpt>
      <trkpt lat="46.079763555899262" lon="9.311973312869668">
        <ele>267.38</ele>
        <time>2013-05-23T07:17:26Z</time>
      </trkpt>
      <trkpt lat="46.079769507050514" lon="9.311981443315744">
        <ele>266.89999999999998</ele>
        <time>2013-05-23T07:17:34Z</time>
      </trkpt>
      <trkpt lat="46.079970672726631" lon="9.312043637037277">
        <ele>263.54000000000002</ele>
        <time>2013-05-23T07:17:51Z</time>
      </trkpt>
      <trkpt lat="46.080191619694233" lon="9.312057718634605">
        <ele>262.10000000000002</ele>
        <time>2013-05-23T07:18:09Z</time>
      </trkpt>
      <trkpt lat="46.080362945795059" lon="9.312065681442618">
        <ele>261.62</ele>
        <time>2013-05-23T07:18:24Z</time>
      </trkpt>
      <trkpt lat="46.080539971590042" lon="9.312045481055975">
        <ele>260.17000000000002</ele>
        <time>2013-05-23T07:18:39Z</time>
      </trkpt>
      <trkpt lat="46.080711968243122" lon="9.312132569029927">
        <ele>258.25</ele>
        <time>2013-05-23T07:18:54Z</time>
      </trkpt>
      <trkpt lat="46.080881366506219" lon="9.312245305627585">
        <ele>257.76999999999998</ele>
        <time>2013-05-23T07:19:10Z</time>
      </trkpt>
      <trkpt lat="46.081082616001368" lon="9.31233499199152">
        <ele>256.81</ele>
        <time>2013-05-23T07:19:28Z</time>
      </trkpt>
      <trkpt lat="46.081247068941593" lon="9.312397940084338">
        <ele>256.81</ele>
        <time>2013-05-23T07:19:41Z</time>
      </trkpt>
      <trkpt lat="46.081479247659445" lon="9.312408668920398">
        <ele>257.76999999999998</ele>
        <time>2013-05-23T07:20:00Z</time>
      </trkpt>
      <trkpt lat="46.081652753055096" lon="9.312482429668307">
        <ele>257.76999999999998</ele>
        <time>2013-05-23T07:20:15Z</time>
      </trkpt>
      <trkpt lat="46.081800945103168" lon="9.312607990577817">
        <ele>260.17000000000002</ele>
        <time>2013-05-23T07:20:30Z</time>
      </trkpt>
      <trkpt lat="46.081968331709504" lon="9.312699437141419">
        <ele>261.13999999999999</ele>
        <time>2013-05-23T07:20:45Z</time>
      </trkpt>
      <trkpt lat="46.082001607865095" lon="9.312716536223888">
        <ele>261.62</ele>
        <time>2013-05-23T07:20:48Z</time>
      </trkpt>
      <trkpt lat="46.082016360014677" lon="9.312727684155107">
        <ele>261.62</ele>
        <time>2013-05-23T07:20:56Z</time>
      </trkpt>
      <trkpt lat="46.082207299768925" lon="9.312795074656606">
        <ele>262.57999999999998</ele>
        <time>2013-05-23T07:21:10Z</time>
      </trkpt>
      <trkpt lat="46.082442495971918" lon="9.312934298068285">
        <ele>264.01999999999998</ele>
        <time>2013-05-23T07:21:28Z</time>
      </trkpt>
      <trkpt lat="46.082607200369239" lon="9.313006214797497">
        <ele>265.45999999999998</ele>
        <time>2013-05-23T07:21:43Z</time>
      </trkpt>
      <trkpt lat="46.082720523700118" lon="9.313023649156094">
        <ele>266.89999999999998</ele>
        <time>2013-05-23T07:21:55Z</time>
      </trkpt>
      <trkpt lat="46.082857651636004" lon="9.312969418242574">
        <ele>266.89999999999998</ele>
        <time>2013-05-23T07:22:10Z</time>
      </trkpt>
      <trkpt lat="46.083045154809952" lon="9.312965394929051">
        <ele>266.42000000000002</ele>
        <time>2013-05-23T07:22:27Z</time>
      </trkpt>
      <trkpt lat="46.08318286947906" lon="9.312922647222877">
        <ele>266.42000000000002</ele>
        <time>2013-05-23T07:22:40Z</time>
      </trkpt>
      <trkpt lat="46.08330650255084" lon="9.312872523441911">
        <ele>266.42000000000002</ele>
        <time>2013-05-23T07:22:51Z</time>
      </trkpt>
      <trkpt lat="46.083377916365862" lon="9.312864309176803">
        <ele>266.89999999999998</ele>
        <time>2013-05-23T07:22:57Z</time>
      </trkpt>
      <trkpt lat="46.083542285487056" lon="9.312892807647586">
        <ele>268.35000000000002</ele>
        <time>2013-05-23T07:23:12Z</time>
      </trkpt>
      <trkpt lat="46.083567766472697" lon="9.312913091853261">
        <ele>268.82999999999998</ele>
        <time>2013-05-23T07:23:25Z</time>
      </trkpt>
      <trkpt lat="46.083603221923113" lon="9.312897166237235">
        <ele>269.31</ele>
        <time>2013-05-23T07:23:29Z</time>
      </trkpt>
      <trkpt lat="46.083742864429951" lon="9.312875205650926">
        <ele>271.70999999999998</ele>
        <time>2013-05-23T07:23:44Z</time>
      </trkpt>
      <trkpt lat="46.083885775879025" lon="9.312847796827555">
        <ele>273.63</ele>
        <time>2013-05-23T07:23:58Z</time>
      </trkpt>
      <trkpt lat="46.084028100594878" lon="9.312842097133398">
        <ele>275.06999999999999</ele>
        <time>2013-05-23T07:24:11Z</time>
      </trkpt>
      <trkpt lat="46.084169587120414" lon="9.312839666381478">
        <ele>276.51999999999998</ele>
        <time>2013-05-23T07:24:23Z</time>
      </trkpt>
      <trkpt lat="46.08436631038785" lon="9.312828434631228">
        <ele>277</ele>
        <time>2013-05-23T07:24:40Z</time>
      </trkpt>
      <trkpt lat="46.084510730579495" lon="9.312779568135738">
        <ele>277</ele>
        <time>2013-05-23T07:24:54Z</time>
      </trkpt>
      <trkpt lat="46.08468540944159" lon="9.312718128785491">
        <ele>277.48000000000002</ele>
        <time>2013-05-23T07:25:10Z</time>
      </trkpt>
      <trkpt lat="46.084774509072304" lon="9.3126814160496">
        <ele>277</ele>
        <time>2013-05-23T07:25:19Z</time>
      </trkpt>
      <trkpt lat="46.084818178787827" lon="9.312676470726728">
        <ele>276.04000000000002</ele>
        <time>2013-05-23T07:25:23Z</time>
      </trkpt>
      <trkpt lat="46.08490526676178" lon="9.312648894265294">
        <ele>275.06999999999999</ele>
        <time>2013-05-23T07:25:31Z</time>
      </trkpt>
      <trkpt lat="46.084934771060944" lon="9.312639757990837">
        <ele>274.58999999999997</ele>
        <time>2013-05-23T07:25:34Z</time>
      </trkpt>
      <trkpt lat="46.084961006417871" lon="9.312636656686664">
        <ele>275.06999999999999</ele>
        <time>2013-05-23T07:25:44Z</time>
      </trkpt>
      <trkpt lat="46.084990259259939" lon="9.312619892880321">
        <ele>275.06999999999999</ele>
        <time>2013-05-23T07:25:47Z</time>
      </trkpt>
      <trkpt lat="46.085035521537066" lon="9.312608912587166">
        <ele>275.56</ele>
        <time>2013-05-23T07:25:55Z</time>
      </trkpt>
      <trkpt lat="46.085189329460263" lon="9.312543785199523">
        <ele>275.56</ele>
        <time>2013-05-23T07:26:09Z</time>
      </trkpt>
      <trkpt lat="46.08531916514039" lon="9.312454517930746">
        <ele>274.58999999999997</ele>
        <time>2013-05-23T07:26:22Z</time>
      </trkpt>
      <trkpt lat="46.085473978891969" lon="9.312352761626244">
        <ele>271.70999999999998</ele>
        <time>2013-05-23T07:26:36Z</time>
      </trkpt>
      <trkpt lat="46.085656536743045" lon="9.312270870432258">
        <ele>271.23000000000002</ele>
        <time>2013-05-23T07:26:53Z</time>
      </trkpt>
      <trkpt lat="46.085835322737694" lon="9.312246982008219">
        <ele>272.67000000000002</ele>
        <time>2013-05-23T07:27:09Z</time>
      </trkpt>
      <trkpt lat="46.086023915559053" lon="9.312258465215564">
        <ele>272.67000000000002</ele>
        <time>2013-05-23T07:27:25Z</time>
      </trkpt>
      <trkpt lat="46.08617277815938" lon="9.312273301184177">
        <ele>273.14999999999998</ele>
        <time>2013-05-23T07:27:39Z</time>
      </trkpt>
      <trkpt lat="46.086386935785413" lon="9.312286041676998">
        <ele>274.11000000000001</ele>
        <time>2013-05-23T07:27:58Z</time>
      </trkpt>
      <trkpt lat="46.086468072608113" lon="9.312357371672988">
        <ele>274.11000000000001</ele>
        <time>2013-05-23T07:28:05Z</time>
      </trkpt>
      <trkpt lat="46.086498498916626" lon="9.312518890947104">
        <ele>277</ele>
        <time>2013-05-23T07:28:19Z</time>
      </trkpt>
      <trkpt lat="46.08654853887856" lon="9.312684768810868">
        <ele>277</ele>
        <time>2013-05-23T07:28:37Z</time>
      </trkpt>
      <trkpt lat="46.086516352370381" lon="9.312445046380162">
        <ele>277.48000000000002</ele>
        <time>2013-05-23T07:29:06Z</time>
      </trkpt>
      <trkpt lat="46.086494475603104" lon="9.312462983652949">
        <ele>277.48000000000002</ele>
        <time>2013-05-23T07:29:08Z</time>
      </trkpt>
      <trkpt lat="46.086460361257195" lon="9.312354354187846">
        <ele>275.06999999999999</ele>
        <time>2013-05-23T07:29:19Z</time>
      </trkpt>
      <trkpt lat="46.08653043396771" lon="9.3123032245785">
        <ele>275.06999999999999</ele>
        <time>2013-05-23T07:29:25Z</time>
      </trkpt>
      <trkpt lat="46.0866638738662" lon="9.312247233465314">
        <ele>273.63</ele>
        <time>2013-05-23T07:29:40Z</time>
      </trkpt>
      <trkpt lat="46.086834026500583" lon="9.312113458290696">
        <ele>270.75</ele>
        <time>2013-05-23T07:29:55Z</time>
      </trkpt>
      <trkpt lat="46.087008621543646" lon="9.311959315091372">
        <ele>267.86000000000001</ele>
        <time>2013-05-23T07:30:10Z</time>
      </trkpt>
      <trkpt lat="46.087084226310253" lon="9.311899803578854">
        <ele>267.38</ele>
        <time>2013-05-23T07:30:19Z</time>
      </trkpt>
      <trkpt lat="46.087094871327281" lon="9.311877675354481">
        <ele>267.38</ele>
        <time>2013-05-23T07:30:21Z</time>
      </trkpt>
      <trkpt lat="46.087211715057492" lon="9.311754293739796">
        <ele>266.89999999999998</ele>
        <time>2013-05-23T07:30:35Z</time>
      </trkpt>
      <trkpt lat="46.087225461378694" lon="9.311755048111081">
        <ele>266.42000000000002</ele>
        <time>2013-05-23T07:30:43Z</time>
      </trkpt>
      <trkpt lat="46.087328055873513" lon="9.311680365353823">
        <ele>265.94</ele>
        <time>2013-05-23T07:30:54Z</time>
      </trkpt>
      <trkpt lat="46.087355632334948" lon="9.311649771407247">
        <ele>264.98000000000002</ele>
        <time>2013-05-23T07:31:06Z</time>
      </trkpt>
      <trkpt lat="46.087546069175005" lon="9.311677096411586">
        <ele>263.06</ele>
        <time>2013-05-23T07:31:20Z</time>
      </trkpt>
      <trkpt lat="46.087752263993025" lon="9.311662176623941">
        <ele>260.64999999999998</ele>
        <time>2013-05-23T07:31:36Z</time>
      </trkpt>
      <trkpt lat="46.087847901508212" lon="9.311629319563508">
        <ele>257.29000000000002</ele>
        <time>2013-05-23T07:31:51Z</time>
      </trkpt>
      <trkpt lat="46.087874975055456" lon="9.311626721173525">
        <ele>257.29000000000002</ele>
        <time>2013-05-23T07:31:54Z</time>
      </trkpt>
      <trkpt lat="46.087923673912883" lon="9.311626637354493">
        <ele>256.32999999999998</ele>
        <time>2013-05-23T07:31:59Z</time>
      </trkpt>
      <trkpt lat="46.088109416887164" lon="9.311579447239637">
        <ele>253.93000000000001</ele>
        <time>2013-05-23T07:32:18Z</time>
      </trkpt>
      <trkpt lat="46.088140513747931" lon="9.311559582129121">
        <ele>252.47999999999999</ele>
        <time>2013-05-23T07:32:23Z</time>
      </trkpt>
      <trkpt lat="46.08823087066412" lon="9.311511386185885">
        <ele>250.56</ele>
        <time>2013-05-23T07:32:34Z</time>
      </trkpt>
      <trkpt lat="46.088336315006018" lon="9.311516247689724">
        <ele>248.16</ele>
        <time>2013-05-23T07:32:48Z</time>
      </trkpt>
      <trkpt lat="46.088389540091157" lon="9.311491101980209">
        <ele>247.19999999999999</ele>
        <time>2013-05-23T07:32:52Z</time>
      </trkpt>
      <trkpt lat="46.088470509275794" lon="9.31148573756218">
        <ele>246.72</ele>
        <time>2013-05-23T07:33:05Z</time>
      </trkpt>
      <trkpt lat="46.088561955839396" lon="9.311441816389561">
        <ele>245.75</ele>
        <time>2013-05-23T07:33:20Z</time>
      </trkpt>
      <trkpt lat="46.088573103770614" lon="9.311430417001247">
        <ele>245.75</ele>
        <time>2013-05-23T07:33:26Z</time>
      </trkpt>
      <trkpt lat="46.088727163150907" lon="9.311367636546493">
        <ele>243.83000000000001</ele>
        <time>2013-05-23T07:33:40Z</time>
      </trkpt>
      <trkpt lat="46.088771084323525" lon="9.311385154724121">
        <ele>243.34999999999999</ele>
        <time>2013-05-23T07:33:53Z</time>
      </trkpt>
      <trkpt lat="46.088769072666764" lon="9.311390100046992">
        <ele>243.34999999999999</ele>
        <time>2013-05-23T07:33:57Z</time>
      </trkpt>
      <trkpt lat="46.088817268610001" lon="9.311400661244988">
        <ele>242.87</ele>
        <time>2013-05-23T07:34:01Z</time>
      </trkpt>
      <trkpt lat="46.089008543640375" lon="9.311438798904419">
        <ele>240.94999999999999</ele>
        <time>2013-05-23T07:34:16Z</time>
      </trkpt>
      <trkpt lat="46.089188838377595" lon="9.311471320688725">
        <ele>239.99000000000001</ele>
        <time>2013-05-23T07:34:30Z</time>
      </trkpt>
      <trkpt lat="46.089259665459394" lon="9.311460675671697">
        <ele>239.02000000000001</ele>
        <time>2013-05-23T07:34:35Z</time>
      </trkpt>
      <trkpt lat="46.089359242469072" lon="9.311491772532463">
        <ele>238.06</ele>
        <time>2013-05-23T07:34:43Z</time>
      </trkpt>
      <trkpt lat="46.089471811428666" lon="9.311485150828958">
        <ele>239.02000000000001</ele>
        <time>2013-05-23T07:34:56Z</time>
      </trkpt>
      <trkpt lat="46.08946368098259" lon="9.311464028432965">
        <ele>239.50999999999999</ele>
        <time>2013-05-23T07:35:08Z</time>
      </trkpt>
      <trkpt lat="46.089639784768224" lon="9.311480205506086">
        <ele>239.02000000000001</ele>
        <time>2013-05-23T07:35:22Z</time>
      </trkpt>
      <trkpt lat="46.089672474190593" lon="9.311484899371862">
        <ele>240.47</ele>
        <time>2013-05-23T07:35:25Z</time>
      </trkpt>
      <trkpt lat="46.089826030656695" lon="9.311510967090726">
        <ele>239.50999999999999</ele>
        <time>2013-05-23T07:35:39Z</time>
      </trkpt>
      <trkpt lat="46.089889397844672" lon="9.311516750603914">
        <ele>256.32999999999998</ele>
        <time>2013-05-23T09:38:28Z</time>
      </trkpt>
      <trkpt lat="46.089917728677392" lon="9.311462435871363">
        <ele>254.88999999999999</ele>
        <time>2013-05-23T09:38:36Z</time>
      </trkpt>
      <trkpt lat="46.089927451685071" lon="9.311452126130462">
        <ele>254.41</ele>
        <time>2013-05-23T09:38:38Z</time>
      </trkpt>
      <trkpt lat="46.089987466111779" lon="9.311439888551831">
        <ele>254.41</ele>
        <time>2013-05-23T09:38:43Z</time>
      </trkpt>
      <trkpt lat="46.09011990018189" lon="9.311490515246987">
        <ele>254.41</ele>
        <time>2013-05-23T09:38:57Z</time>
      </trkpt>
      <trkpt lat="46.090194582939148" lon="9.311544327065349">
        <ele>254.41</ele>
        <time>2013-05-23T09:39:04Z</time>
      </trkpt>
      <trkpt lat="46.090225093066692" lon="9.311541393399239">
        <ele>254.41</ele>
        <time>2013-05-23T09:39:06Z</time>
      </trkpt>
      <trkpt lat="46.090458277612925" lon="9.311688998714089">
        <ele>253.44</ele>
        <time>2013-05-23T09:39:23Z</time>
      </trkpt>
      <trkpt lat="46.090520555153489" lon="9.311685310676694">
        <ele>253.44</ele>
        <time>2013-05-23T09:39:28Z</time>
      </trkpt>
      <trkpt lat="46.09054159373045" lon="9.311783630400896">
        <ele>253.44</ele>
        <time>2013-05-23T09:39:38Z</time>
      </trkpt>
      <trkpt lat="46.090561794117093" lon="9.31178430095315">
        <ele>253.93000000000001</ele>
        <time>2013-05-23T09:39:40Z</time>
      </trkpt>
      <trkpt lat="46.090718703344464" lon="9.311891756951809">
        <ele>254.88999999999999</ele>
        <time>2013-05-23T09:39:55Z</time>
      </trkpt>
      <trkpt lat="46.090741083025932" lon="9.31194263510406">
        <ele>254.41</ele>
        <time>2013-05-23T09:39:59Z</time>
      </trkpt>
      <trkpt lat="46.090797241777182" lon="9.31198320351541">
        <ele>253.93000000000001</ele>
        <time>2013-05-23T09:40:04Z</time>
      </trkpt>
      <trkpt lat="46.090971166267991" lon="9.312141202390194">
        <ele>253.44</ele>
        <time>2013-05-23T09:40:22Z</time>
      </trkpt>
      <trkpt lat="46.091006621718407" lon="9.312167940661311">
        <ele>253.44</ele>
        <time>2013-05-23T09:40:33Z</time>
      </trkpt>
      <trkpt lat="46.091031515970826" lon="9.312184536829591">
        <ele>253.44</ele>
        <time>2013-05-23T09:40:36Z</time>
      </trkpt>
      <trkpt lat="46.091066133230925" lon="9.312235750257969">
        <ele>253.93000000000001</ele>
        <time>2013-05-23T09:40:40Z</time>
      </trkpt>
      <trkpt lat="46.091238213703036" lon="9.312424510717392">
        <ele>253.44</ele>
        <time>2013-05-23T09:40:56Z</time>
      </trkpt>
      <trkpt lat="46.091305017471313" lon="9.312497600913048">
        <ele>253.44</ele>
        <time>2013-05-23T09:41:03Z</time>
      </trkpt>
      <trkpt lat="46.091401828452945" lon="9.312636824324727">
        <ele>254.88999999999999</ele>
        <time>2013-05-23T09:41:14Z</time>
      </trkpt>
      <trkpt lat="46.091480366885662" lon="9.312686864286661">
        <ele>255.37</ele>
        <time>2013-05-23T09:41:22Z</time>
      </trkpt>
      <trkpt lat="46.091595450416207" lon="9.312749728560448">
        <ele>256.81</ele>
        <time>2013-05-23T09:41:36Z</time>
      </trkpt>
      <trkpt lat="46.091634593904018" lon="9.312756266444922">
        <ele>256.81</ele>
        <time>2013-05-23T09:41:41Z</time>
      </trkpt>
      <trkpt lat="46.091666864231229" lon="9.312755344435573">
        <ele>257.29000000000002</ele>
        <time>2013-05-23T09:41:44Z</time>
      </trkpt>
      <trkpt lat="46.091761076822877" lon="9.312772611156106">
        <ele>257.76999999999998</ele>
        <time>2013-05-23T09:41:56Z</time>
      </trkpt>
      <trkpt lat="46.091770548373461" lon="9.312779232859612">
        <ele>257.76999999999998</ele>
        <time>2013-05-23T09:41:59Z</time>
      </trkpt>
      <trkpt lat="46.09191463328898" lon="9.312886940315366">
        <ele>257.76999999999998</ele>
        <time>2013-05-23T09:42:14Z</time>
      </trkpt>
      <trkpt lat="46.092054527252913" lon="9.312981152907014">
        <ele>256.81</ele>
        <time>2013-05-23T09:42:32Z</time>
      </trkpt>
      <trkpt lat="46.092133484780788" lon="9.31299515068531">
        <ele>255.84999999999999</ele>
        <time>2013-05-23T09:42:46Z</time>
      </trkpt>
      <trkpt lat="46.092240354046226" lon="9.313055919483304">
        <ele>253.93000000000001</ele>
        <time>2013-05-23T09:43:00Z</time>
      </trkpt>
      <trkpt lat="46.092353006824851" lon="9.313137978315353">
        <ele>252</ele>
        <time>2013-05-23T09:43:12Z</time>
      </trkpt>
      <trkpt lat="46.092483764514327" lon="9.313232777640224">
        <ele>250.08000000000001</ele>
        <time>2013-05-23T09:43:26Z</time>
      </trkpt>
      <trkpt lat="46.09259289689362" lon="9.31329857558012">
        <ele>249.59999999999999</ele>
        <time>2013-05-23T09:43:37Z</time>
      </trkpt>
      <trkpt lat="46.092690797522664" lon="9.313419610261917">
        <ele>249.12</ele>
        <time>2013-05-23T09:43:53Z</time>
      </trkpt>
      <trkpt lat="46.0927580203861" lon="9.313488341867924">
        <ele>249.12</ele>
        <time>2013-05-23T09:44:04Z</time>
      </trkpt>
      <trkpt lat="46.092781741172075" lon="9.31354533880949">
        <ele>248.63999999999999</ele>
        <time>2013-05-23T09:44:08Z</time>
      </trkpt>
      <trkpt lat="46.092837816104293" lon="9.313590181991458">
        <ele>248.63999999999999</ele>
        <time>2013-05-23T09:44:16Z</time>
      </trkpt>
      <trkpt lat="46.093014674261212" lon="9.313705181702972">
        <ele>249.12</ele>
        <time>2013-05-23T09:44:34Z</time>
      </trkpt>
      <trkpt lat="46.093111904338002" lon="9.313746588304639">
        <ele>249.59999999999999</ele>
        <time>2013-05-23T09:44:47Z</time>
      </trkpt>
      <trkpt lat="46.093207458034158" lon="9.313867455348373">
        <ele>250.08000000000001</ele>
        <time>2013-05-23T09:44:58Z</time>
      </trkpt>
      <trkpt lat="46.093283565714955" lon="9.313939707353711">
        <ele>249.59999999999999</ele>
        <time>2013-05-23T09:45:06Z</time>
      </trkpt>
      <trkpt lat="46.09344994649291" lon="9.314088150858879">
        <ele>251.03999999999999</ele>
        <time>2013-05-23T09:45:24Z</time>
      </trkpt>
      <trkpt lat="46.093499651178718" lon="9.314202144742012">
        <ele>252.96000000000001</ele>
        <time>2013-05-23T09:45:35Z</time>
      </trkpt>
      <trkpt lat="46.093598641455173" lon="9.314331477507949">
        <ele>253.93000000000001</ele>
        <time>2013-05-23T09:45:49Z</time>
      </trkpt>
      <trkpt lat="46.093728058040142" lon="9.314561979845166">
        <ele>252.47999999999999</ele>
        <time>2013-05-23T09:46:06Z</time>
      </trkpt>
      <trkpt lat="46.093819588422775" lon="9.314787704497576">
        <ele>252.47999999999999</ele>
        <time>2013-05-23T09:46:21Z</time>
      </trkpt>
      <trkpt lat="46.09392729587853" lon="9.314997671172023">
        <ele>252.96000000000001</ele>
        <time>2013-05-23T09:46:37Z</time>
      </trkpt>
      <trkpt lat="46.09393953345716" lon="9.315010327845812">
        <ele>252.96000000000001</ele>
        <time>2013-05-23T09:46:39Z</time>
      </trkpt>
      <trkpt lat="46.093963673338294" lon="9.315044274553657">
        <ele>253.44</ele>
        <time>2013-05-23T09:46:43Z</time>
      </trkpt>
      <trkpt lat="46.094061993062496" lon="9.315150557085872">
        <ele>255.84999999999999</ele>
        <time>2013-05-23T09:46:56Z</time>
      </trkpt>
      <trkpt lat="46.094182524830103" lon="9.315300341695547">
        <ele>257.29000000000002</ele>
        <time>2013-05-23T09:47:11Z</time>
      </trkpt>
      <trkpt lat="46.094244550913572" lon="9.31539480574429">
        <ele>256.81</ele>
        <time>2013-05-23T09:47:20Z</time>
      </trkpt>
      <trkpt lat="46.094342870637774" lon="9.315495388582349">
        <ele>256.81</ele>
        <time>2013-05-23T09:47:31Z</time>
      </trkpt>
      <trkpt lat="46.094478154554963" lon="9.315671240910888">
        <ele>256.81</ele>
        <time>2013-05-23T09:47:47Z</time>
      </trkpt>
      <trkpt lat="46.094562895596027" lon="9.315842734649777">
        <ele>258.25</ele>
        <time>2013-05-23T09:48:02Z</time>
      </trkpt>
      <trkpt lat="46.094589550048113" lon="9.315912974998355">
        <ele>258.73000000000002</ele>
        <time>2013-05-23T09:48:08Z</time>
      </trkpt>
      <trkpt lat="46.094642942771316" lon="9.316039206460118">
        <ele>260.64999999999998</ele>
        <time>2013-05-23T09:48:22Z</time>
      </trkpt>
      <trkpt lat="46.094707315787673" lon="9.316162168979645">
        <ele>262.10000000000002</ele>
        <time>2013-05-23T09:48:34Z</time>
      </trkpt>
      <trkpt lat="46.094737825915217" lon="9.316256465390325">
        <ele>263.06</ele>
        <time>2013-05-23T09:48:44Z</time>
      </trkpt>
      <trkpt lat="46.094733634963632" lon="9.316298458725214">
        <ele>264.01999999999998</ele>
        <time>2013-05-23T09:48:48Z</time>
      </trkpt>
      <trkpt lat="46.094756936654449" lon="9.316318994387984">
        <ele>264.98000000000002</ele>
        <time>2013-05-23T09:48:51Z</time>
      </trkpt>
      <trkpt lat="46.094801444560289" lon="9.316401053220034">
        <ele>264.98000000000002</ele>
        <time>2013-05-23T09:49:05Z</time>
      </trkpt>
      <trkpt lat="46.094782501459122" lon="9.316473221406341">
        <ele>266.42000000000002</ele>
        <time>2013-05-23T09:49:20Z</time>
      </trkpt>
      <trkpt lat="46.094849389046431" lon="9.316595597192645">
        <ele>268.35000000000002</ele>
        <time>2013-05-23T09:49:33Z</time>
      </trkpt>
      <trkpt lat="46.094889454543591" lon="9.316710596904159">
        <ele>270.26999999999998</ele>
        <time>2013-05-23T09:49:45Z</time>
      </trkpt>
      <trkpt lat="46.094905883073807" lon="9.316809587180615">
        <ele>273.14999999999998</ele>
        <time>2013-05-23T09:49:58Z</time>
      </trkpt>
      <trkpt lat="46.094951145350933" lon="9.316878654062748">
        <ele>276.04000000000002</ele>
        <time>2013-05-23T09:50:10Z</time>
      </trkpt>
      <trkpt lat="46.095006130635738" lon="9.316938668489456">
        <ele>277</ele>
        <time>2013-05-23T09:50:21Z</time>
      </trkpt>
      <trkpt lat="46.09502968378365" lon="9.317103959619999">
        <ele>278.44</ele>
        <time>2013-05-23T09:50:35Z</time>
      </trkpt>
      <trkpt lat="46.095016440376639" lon="9.317181073129177">
        <ele>280.36000000000001</ele>
        <time>2013-05-23T09:50:50Z</time>
      </trkpt>
      <trkpt lat="46.094988277181983" lon="9.317240081727505">
        <ele>283.25</ele>
        <time>2013-05-23T09:51:00Z</time>
      </trkpt>
      <trkpt lat="46.09497201628983" lon="9.317304287105799">
        <ele>286.61000000000001</ele>
        <time>2013-05-23T09:51:09Z</time>
      </trkpt>
      <trkpt lat="46.09497788362205" lon="9.317316273227334">
        <ele>286.61000000000001</ele>
        <time>2013-05-23T09:51:11Z</time>
      </trkpt>
      <trkpt lat="46.095066899433732" lon="9.317382574081421">
        <ele>287.08999999999997</ele>
        <time>2013-05-23T09:51:22Z</time>
      </trkpt>
      <trkpt lat="46.095151472836733" lon="9.317490784451366">
        <ele>288.52999999999997</ele>
        <time>2013-05-23T09:51:35Z</time>
      </trkpt>
      <trkpt lat="46.095174942165613" lon="9.317541411146522">
        <ele>289.97000000000003</ele>
        <time>2013-05-23T09:51:40Z</time>
      </trkpt>
      <trkpt lat="46.095187682658434" lon="9.317568233236671">
        <ele>290.45999999999998</ele>
        <time>2013-05-23T09:51:42Z</time>
      </trkpt>
      <trkpt lat="46.095194304361939" lon="9.31759555824101">
        <ele>290.94</ele>
        <time>2013-05-23T09:51:44Z</time>
      </trkpt>
      <trkpt lat="46.095247026532888" lon="9.317747857421637">
        <ele>292.86000000000001</ele>
        <time>2013-05-23T09:51:58Z</time>
      </trkpt>
      <trkpt lat="46.095262784510851" lon="9.317795634269714">
        <ele>293.33999999999997</ele>
        <time>2013-05-23T09:52:03Z</time>
      </trkpt>
      <trkpt lat="46.095277369022369" lon="9.317832179367542">
        <ele>293.81999999999999</ele>
        <time>2013-05-23T09:52:06Z</time>
      </trkpt>
      <trkpt lat="46.095295054838061" lon="9.317890768870711">
        <ele>293.81999999999999</ele>
        <time>2013-05-23T09:52:12Z</time>
      </trkpt>
      <trkpt lat="46.095363534986973" lon="9.318023789674044">
        <ele>295.25999999999999</ele>
        <time>2013-05-23T09:52:24Z</time>
      </trkpt>
      <trkpt lat="46.095404271036386" lon="9.318122947588563">
        <ele>296.69999999999999</ele>
        <time>2013-05-23T09:52:34Z</time>
      </trkpt>
      <trkpt lat="46.095452466979623" lon="9.318233588710427">
        <ele>298.63</ele>
        <time>2013-05-23T09:52:45Z</time>
      </trkpt>
      <trkpt lat="46.095512397587299" lon="9.318274827674031">
        <ele>300.55000000000001</ele>
        <time>2013-05-23T09:52:56Z</time>
      </trkpt>
      <trkpt lat="46.095589092001319" lon="9.318339871242642">
        <ele>302.94999999999999</ele>
        <time>2013-05-23T09:53:09Z</time>
      </trkpt>
      <trkpt lat="46.095613231882453" lon="9.318341128528118">
        <ele>303.91000000000003</ele>
        <time>2013-05-23T09:53:12Z</time>
      </trkpt>
      <trkpt lat="46.095631839707494" lon="9.318338949233294">
        <ele>303.43000000000001</ele>
        <time>2013-05-23T09:53:14Z</time>
      </trkpt>
      <trkpt lat="46.095650196075439" lon="9.318342972546816">
        <ele>303.43000000000001</ele>
        <time>2013-05-23T09:53:16Z</time>
      </trkpt>
      <trkpt lat="46.095711719244719" lon="9.318341966718435">
        <ele>303.43000000000001</ele>
        <time>2013-05-23T09:53:21Z</time>
      </trkpt>
      <trkpt lat="46.095816660672426" lon="9.31834464892745">
        <ele>302.47000000000003</ele>
        <time>2013-05-23T09:53:31Z</time>
      </trkpt>
      <trkpt lat="46.095963679254055" lon="9.318337021395564">
        <ele>302.47000000000003</ele>
        <time>2013-05-23T09:53:47Z</time>
      </trkpt>
      <trkpt lat="46.096042050048709" lon="9.3183524440974">
        <ele>302.47000000000003</ele>
        <time>2013-05-23T09:53:55Z</time>
      </trkpt>
      <trkpt lat="46.096079098060727" lon="9.318364933133125">
        <ele>302.94999999999999</ele>
        <time>2013-05-23T09:53:59Z</time>
      </trkpt>
      <trkpt lat="46.096241790801287" lon="9.318391839042306">
        <ele>303.91000000000003</ele>
        <time>2013-05-23T09:54:15Z</time>
      </trkpt>
      <trkpt lat="46.096406159922481" lon="9.318427629768848">
        <ele>303.91000000000003</ele>
        <time>2013-05-23T09:54:30Z</time>
      </trkpt>
      <trkpt lat="46.0965605545789" lon="9.318578420206904">
        <ele>304.38999999999999</ele>
        <time>2013-05-23T09:54:45Z</time>
      </trkpt>
      <trkpt lat="46.096752919256687" lon="9.31869744323194">
        <ele>304.38999999999999</ele>
        <time>2013-05-23T09:55:03Z</time>
      </trkpt>
      <trkpt lat="46.096804300323129" lon="9.318733820691705">
        <ele>305.83999999999997</ele>
        <time>2013-05-23T09:55:08Z</time>
      </trkpt>
      <trkpt lat="46.096865069121122" lon="9.31878830306232">
        <ele>307.75999999999999</ele>
        <time>2013-05-23T09:55:17Z</time>
      </trkpt>
      <trkpt lat="46.096891220659018" lon="9.318806072697043">
        <ele>308.72000000000003</ele>
        <time>2013-05-23T09:55:21Z</time>
      </trkpt>
      <trkpt lat="46.096971938386559" lon="9.318867595866323">
        <ele>309.68000000000001</ele>
        <time>2013-05-23T09:55:28Z</time>
      </trkpt>
      <trkpt lat="46.096997000277042" lon="9.318890059366822">
        <ele>309.68000000000001</ele>
        <time>2013-05-23T09:55:31Z</time>
      </trkpt>
      <trkpt lat="46.097076376900077" lon="9.318949738517404">
        <ele>311.12</ele>
        <time>2013-05-23T09:55:40Z</time>
      </trkpt>
      <trkpt lat="46.097194897010922" lon="9.319048393517733">
        <ele>313.05000000000001</ele>
        <time>2013-05-23T09:55:54Z</time>
      </trkpt>
      <trkpt lat="46.097276620566845" lon="9.319153251126409">
        <ele>314.97000000000003</ele>
        <time>2013-05-23T09:56:06Z</time>
      </trkpt>
      <trkpt lat="46.09734334051609" lon="9.319224078208208">
        <ele>316.88999999999999</ele>
        <time>2013-05-23T09:56:15Z</time>
      </trkpt>
      <trkpt lat="46.097456999123096" lon="9.319327678531408">
        <ele>318.81</ele>
        <time>2013-05-23T09:56:29Z</time>
      </trkpt>
      <trkpt lat="46.097527742385864" lon="9.319414347410202">
        <ele>319.77999999999997</ele>
        <time>2013-05-23T09:56:42Z</time>
      </trkpt>
      <trkpt lat="46.097541572526097" lon="9.319404708221555">
        <ele>319.77999999999997</ele>
        <time>2013-05-23T09:56:54Z</time>
      </trkpt>
      <trkpt lat="46.097573004662991" lon="9.31941568851471">
        <ele>319.77999999999997</ele>
        <time>2013-05-23T09:57:03Z</time>
      </trkpt>
      <trkpt lat="46.097554061561823" lon="9.319427842274308">
        <ele>319.77999999999997</ele>
        <time>2013-05-23T09:57:17Z</time>
      </trkpt>
      <trkpt lat="46.097556743770838" lon="9.319422142580152">
        <ele>319.77999999999997</ele>
        <time>2013-05-23T09:57:18Z</time>
      </trkpt>
      <trkpt lat="46.097740810364485" lon="9.319266993552446">
        <ele>319.30000000000001</ele>
        <time>2013-05-23T09:57:36Z</time>
      </trkpt>
      <trkpt lat="46.097959410399199" lon="9.319102708250284">
        <ele>318.32999999999998</ele>
        <time>2013-05-23T09:57:55Z</time>
      </trkpt>
      <trkpt lat="46.098146494477987" lon="9.319170517846942">
        <ele>318.32999999999998</ele>
        <time>2013-05-23T09:58:10Z</time>
      </trkpt>
      <trkpt lat="46.098338691517711" lon="9.319278057664633">
        <ele>317.85000000000002</ele>
        <time>2013-05-23T09:58:25Z</time>
      </trkpt>
      <trkpt lat="46.098412703722715" lon="9.319320721551776">
        <ele>317.85000000000002</ele>
        <time>2013-05-23T09:58:31Z</time>
      </trkpt>
      <trkpt lat="46.098523680120707" lon="9.319425160065293">
        <ele>318.81</ele>
        <time>2013-05-23T09:58:42Z</time>
      </trkpt>
      <trkpt lat="46.098736496642232" lon="9.319530604407191">
        <ele>320.25999999999999</ele>
        <time>2013-05-23T09:59:00Z</time>
      </trkpt>
      <trkpt lat="46.098910504952073" lon="9.31962925940752">
        <ele>319.77999999999997</ele>
        <time>2013-05-23T09:59:15Z</time>
      </trkpt>
      <trkpt lat="46.098960041999817" lon="9.319888260215521">
        <ele>317.85000000000002</ele>
        <time>2013-05-23T09:59:29Z</time>
      </trkpt>
      <trkpt lat="46.099051237106323" lon="9.320013402029872">
        <ele>314.97000000000003</ele>
        <time>2013-05-23T09:59:39Z</time>
      </trkpt>
      <trkpt lat="46.099191131070256" lon="9.320157570764422">
        <ele>312.08999999999997</ele>
        <time>2013-05-23T09:59:52Z</time>
      </trkpt>
      <trkpt lat="46.099305292591453" lon="9.320228733122349">
        <ele>312.56999999999999</ele>
        <time>2013-05-23T10:00:04Z</time>
      </trkpt>
      <trkpt lat="46.09941023401916" lon="9.320369716733694">
        <ele>311.12</ele>
        <time>2013-05-23T10:00:14Z</time>
      </trkpt>
      <trkpt lat="46.099530849605799" lon="9.320503240451217">
        <ele>310.16000000000003</ele>
        <time>2013-05-23T10:00:28Z</time>
      </trkpt>
      <trkpt lat="46.099535208195448" lon="9.320556381717324">
        <ele>309.68000000000001</ele>
        <time>2013-05-23T10:00:38Z</time>
      </trkpt>
      <trkpt lat="46.099592205137014" lon="9.320666771382093">
        <ele>309.68000000000001</ele>
        <time>2013-05-23T10:00:47Z</time>
      </trkpt>
      <trkpt lat="46.099719358608127" lon="9.320829045027494">
        <ele>311.60000000000002</ele>
        <time>2013-05-23T10:01:02Z</time>
      </trkpt>
      <trkpt lat="46.099755987524986" lon="9.320933064445853">
        <ele>313.52999999999997</ele>
        <time>2013-05-23T10:01:10Z</time>
      </trkpt>
      <trkpt lat="46.099752634763718" lon="9.321058876812458">
        <ele>314.00999999999999</ele>
        <time>2013-05-23T10:01:24Z</time>
      </trkpt>
      <trkpt lat="46.099766800180078" lon="9.321106150746346">
        <ele>314.97000000000003</ele>
        <time>2013-05-23T10:01:27Z</time>
      </trkpt>
      <trkpt lat="46.099786916747689" lon="9.321146886795759">
        <ele>314.49000000000001</ele>
        <time>2013-05-23T10:01:31Z</time>
      </trkpt>
      <trkpt lat="46.099805189296603" lon="9.321184186264873">
        <ele>313.52999999999997</ele>
        <time>2013-05-23T10:01:43Z</time>
      </trkpt>
      <trkpt lat="46.099835615605116" lon="9.321211846545339">
        <ele>314.49000000000001</ele>
        <time>2013-05-23T10:01:58Z</time>
      </trkpt>
      <trkpt lat="46.099845338612795" lon="9.321203297004104">
        <ele>314.49000000000001</ele>
        <time>2013-05-23T10:01:59Z</time>
      </trkpt>
      <trkpt lat="46.099941143766046" lon="9.321119477972388">
        <ele>314.00999999999999</ele>
        <time>2013-05-23T10:02:08Z</time>
      </trkpt>
      <trkpt lat="46.10000291839242" lon="9.321091817691922">
        <ele>313.52999999999997</ele>
        <time>2013-05-23T10:02:13Z</time>
      </trkpt>
      <trkpt lat="46.100051617249846" lon="9.321075137704611">
        <ele>314.00999999999999</ele>
        <time>2013-05-23T10:02:17Z</time>
      </trkpt>
      <trkpt lat="46.100095706060529" lon="9.321070527657867">
        <ele>314.00999999999999</ele>
        <time>2013-05-23T10:02:21Z</time>
      </trkpt>
      <trkpt lat="46.100156474858522" lon="9.320997018367052">
        <ele>314.97000000000003</ele>
        <time>2013-05-23T10:02:28Z</time>
      </trkpt>
      <trkpt lat="46.100214477628469" lon="9.320912528783083">
        <ele>316.41000000000003</ele>
        <time>2013-05-23T10:02:41Z</time>
      </trkpt>
      <trkpt lat="46.100265774875879" lon="9.320783531293273">
        <ele>315.93000000000001</ele>
        <time>2013-05-23T10:02:53Z</time>
      </trkpt>
      <trkpt lat="46.100292345508933" lon="9.320711111649871">
        <ele>315.93000000000001</ele>
        <time>2013-05-23T10:03:07Z</time>
      </trkpt>
      <trkpt lat="46.100331321358681" lon="9.320722259581089">
        <ele>315.93000000000001</ele>
        <time>2013-05-23T10:03:27Z</time>
      </trkpt>
      <trkpt lat="46.100347582250834" lon="9.320721505209804">
        <ele>316.41000000000003</ele>
        <time>2013-05-23T10:03:29Z</time>
      </trkpt>
      <trkpt lat="46.100372979417443" lon="9.320752853527665">
        <ele>315.93000000000001</ele>
        <time>2013-05-23T10:03:44Z</time>
      </trkpt>
      <trkpt lat="46.100360658019781" lon="9.320797864347696">
        <ele>315.93000000000001</ele>
        <time>2013-05-23T10:04:06Z</time>
      </trkpt>
      <trkpt lat="46.100382702425122" lon="9.320784788578749">
        <ele>315.93000000000001</ele>
        <time>2013-05-23T10:04:38Z</time>
      </trkpt>
      <trkpt lat="46.100379852578044" lon="9.320775819942355">
        <ele>315.93000000000001</ele>
        <time>2013-05-23T10:04:54Z</time>
      </trkpt>
      <trkpt lat="46.100351605564356" lon="9.320796439424157">
        <ele>316.41000000000003</ele>
        <time>2013-05-23T10:05:13Z</time>
      </trkpt>
      <trkpt lat="46.10034448094666" lon="9.320799959823489">
        <ele>316.41000000000003</ele>
        <time>2013-05-23T10:05:25Z</time>
      </trkpt>
      <trkpt lat="46.100312881171703" lon="9.320768779143691">
        <ele>315.93000000000001</ele>
        <time>2013-05-23T10:05:41Z</time>
      </trkpt>
      <trkpt lat="46.10032201744616" lon="9.32073843665421">
        <ele>315.93000000000001</ele>
        <time>2013-05-23T10:05:52Z</time>
      </trkpt>
      <trkpt lat="46.100348671898246" lon="9.320735922083259">
        <ele>315.93000000000001</ele>
        <time>2013-05-23T10:06:08Z</time>
      </trkpt>
      <trkpt lat="46.100366357713938" lon="9.320747405290604">
        <ele>315.44999999999999</ele>
        <time>2013-05-23T10:06:20Z</time>
      </trkpt>
      <trkpt lat="46.100360574200749" lon="9.320773305371404">
        <ele>315.93000000000001</ele>
        <time>2013-05-23T10:06:39Z</time>
      </trkpt>
      <trkpt lat="46.1003752425313" lon="9.320824686437845">
        <ele>314.49000000000001</ele>
        <time>2013-05-23T10:07:03Z</time>
      </trkpt>
      <trkpt lat="46.100371638312936" lon="9.320819489657879">
        <ele>314.97000000000003</ele>
        <time>2013-05-23T10:07:24Z</time>
      </trkpt>
      <trkpt lat="46.100386474281549" lon="9.320785375311971">
        <ele>315.44999999999999</ele>
        <time>2013-05-23T10:07:52Z</time>
      </trkpt>
      <trkpt lat="46.100384714081883" lon="9.320794595405459">
        <ele>315.44999999999999</ele>
        <time>2013-05-23T10:08:27Z</time>
      </trkpt>
      <trkpt lat="46.100361496210098" lon="9.320853520184755">
        <ele>315.44999999999999</ele>
        <time>2013-05-23T10:08:31Z</time>
      </trkpt>
      <trkpt lat="46.100350683555007" lon="9.320873050019145">
        <ele>315.93000000000001</ele>
        <time>2013-05-23T10:08:33Z</time>
      </trkpt>
      <trkpt lat="46.100313803181052" lon="9.321014536544681">
        <ele>317.85000000000002</ele>
        <time>2013-05-23T10:08:48Z</time>
      </trkpt>
      <trkpt lat="46.100332578644156" lon="9.321021661162376">
        <ele>318.81</ele>
        <time>2013-05-23T10:08:52Z</time>
      </trkpt>
      <trkpt lat="46.10037624835968" lon="9.32109315879643">
        <ele>320.74000000000001</ele>
        <time>2013-05-23T10:09:07Z</time>
      </trkpt>
      <trkpt lat="46.100372895598412" lon="9.321126183494926">
        <ele>320.25999999999999</ele>
        <time>2013-05-23T10:09:09Z</time>
      </trkpt>
      <trkpt lat="46.100386222824454" lon="9.321184102445841">
        <ele>320.74000000000001</ele>
        <time>2013-05-23T10:09:16Z</time>
      </trkpt>
      <trkpt lat="46.100426120683551" lon="9.321228861808777">
        <ele>320.74000000000001</ele>
        <time>2013-05-23T10:09:21Z</time>
      </trkpt>
      <trkpt lat="46.100574648007751" lon="9.321271944791079">
        <ele>321.69999999999999</ele>
        <time>2013-05-23T10:09:37Z</time>
      </trkpt>
      <trkpt lat="46.100661316886544" lon="9.321292648091912">
        <ele>324.10000000000002</ele>
        <time>2013-05-23T10:09:49Z</time>
      </trkpt>
      <trkpt lat="46.100674979388714" lon="9.321266245096922">
        <ele>324.10000000000002</ele>
        <time>2013-05-23T10:09:52Z</time>
      </trkpt>
      <trkpt lat="46.100789811462164" lon="9.32115669362247">
        <ele>324.57999999999998</ele>
        <time>2013-05-23T10:10:06Z</time>
      </trkpt>
      <trkpt lat="46.100836247205734" lon="9.321110174059868">
        <ele>323.62</ele>
        <time>2013-05-23T10:10:21Z</time>
      </trkpt>
      <trkpt lat="46.100834403187037" lon="9.321097852662206">
        <ele>323.62</ele>
        <time>2013-05-23T10:10:36Z</time>
      </trkpt>
      <trkpt lat="46.100840186700225" lon="9.321096930652857">
        <ele>323.62</ele>
        <time>2013-05-23T10:10:39Z</time>
      </trkpt>
      <trkpt lat="46.100872624665499" lon="9.321077903732657">
        <ele>323.62</ele>
        <time>2013-05-23T10:10:42Z</time>
      </trkpt>
      <trkpt lat="46.100907828658819" lon="9.321068767458201">
        <ele>324.10000000000002</ele>
        <time>2013-05-23T10:10:45Z</time>
      </trkpt>
      <trkpt lat="46.100937500596046" lon="9.321080418303609">
        <ele>324.57999999999998</ele>
        <time>2013-05-23T10:10:48Z</time>
      </trkpt>
      <trkpt lat="46.100991731509566" lon="9.321173457428813">
        <ele>324.57999999999998</ele>
        <time>2013-05-23T10:10:52Z</time>
      </trkpt>
      <trkpt lat="46.101032802835107" lon="9.321182426065207">
        <ele>325.06</ele>
        <time>2013-05-23T10:10:56Z</time>
      </trkpt>
      <trkpt lat="46.10110966488719" lon="9.321342688053846">
        <ele>326.01999999999998</ele>
        <time>2013-05-23T10:11:08Z</time>
      </trkpt>
      <trkpt lat="46.101134894415736" lon="9.321483420208097">
        <ele>328.91000000000003</ele>
        <time>2013-05-23T10:11:22Z</time>
      </trkpt>
      <trkpt lat="46.101180408149958" lon="9.321528011932969">
        <ele>328.43000000000001</ele>
        <time>2013-05-23T10:11:34Z</time>
      </trkpt>
      <trkpt lat="46.101198261603713" lon="9.321561371907592">
        <ele>328.91000000000003</ele>
        <time>2013-05-23T10:11:36Z</time>
      </trkpt>
      <trkpt lat="46.101243272423744" lon="9.321604035794735">
        <ele>328.43000000000001</ele>
        <time>2013-05-23T10:11:40Z</time>
      </trkpt>
      <trkpt lat="46.101319128647447" lon="9.321745522320271">
        <ele>328.91000000000003</ele>
        <time>2013-05-23T10:11:50Z</time>
      </trkpt>
      <trkpt lat="46.101419208571315" lon="9.321938725188375">
        <ele>328.91000000000003</ele>
        <time>2013-05-23T10:12:06Z</time>
      </trkpt>
      <trkpt lat="46.101460196077824" lon="9.32198541238904">
        <ele>328.43000000000001</ele>
        <time>2013-05-23T10:12:11Z</time>
      </trkpt>
      <trkpt lat="46.101520881056786" lon="9.322121031582356">
        <ele>327.94999999999999</ele>
        <time>2013-05-23T10:12:25Z</time>
      </trkpt>
      <trkpt lat="46.101557593792677" lon="9.322461504489183">
        <ele>327.94999999999999</ele>
        <time>2013-05-23T10:12:42Z</time>
      </trkpt>
      <trkpt lat="46.101533705368638" lon="9.322585891932249">
        <ele>328.91000000000003</ele>
        <time>2013-05-23T10:12:55Z</time>
      </trkpt>
      <trkpt lat="46.101523647084832" lon="9.322570888325572">
        <ele>328.43000000000001</ele>
        <time>2013-05-23T10:13:12Z</time>
      </trkpt>
      <trkpt lat="46.101543344557285" lon="9.322586478665471">
        <ele>328.43000000000001</ele>
        <time>2013-05-23T10:13:15Z</time>
      </trkpt>
      <trkpt lat="46.101590199396014" lon="9.32261967100203">
        <ele>328.43000000000001</ele>
        <time>2013-05-23T10:13:23Z</time>
      </trkpt>
      <trkpt lat="46.101599000394344" lon="9.322603577747941">
        <ele>328.43000000000001</ele>
        <time>2013-05-23T10:13:25Z</time>
      </trkpt>
      <trkpt lat="46.101635210216045" lon="9.322511460632086">
        <ele>328.43000000000001</ele>
        <time>2013-05-23T10:13:38Z</time>
      </trkpt>
      <trkpt lat="46.101694302633405" lon="9.322455050423741">
        <ele>328.91000000000003</ele>
        <time>2013-05-23T10:13:45Z</time>
      </trkpt>
      <trkpt lat="46.10173461958766" lon="9.32246133685112">
        <ele>328.91000000000003</ele>
        <time>2013-05-23T10:13:58Z</time>
      </trkpt>
      <trkpt lat="46.101742833852768" lon="9.322487656027079">
        <ele>328.91000000000003</ele>
        <time>2013-05-23T10:14:28Z</time>
      </trkpt>
      <trkpt lat="46.101745767518878" lon="9.322508443146944">
        <ele>328.91000000000003</ele>
        <time>2013-05-23T10:14:35Z</time>
      </trkpt>
      <trkpt lat="46.101775271818042" lon="9.322502911090851">
        <ele>328.43000000000001</ele>
        <time>2013-05-23T10:14:38Z</time>
      </trkpt>
      <trkpt lat="46.10198381356895" lon="9.32244474068284">
        <ele>329.38999999999999</ele>
        <time>2013-05-23T10:14:54Z</time>
      </trkpt>
      <trkpt lat="46.102069895714521" lon="9.322467455640435">
        <ele>330.35000000000002</ele>
        <time>2013-05-23T10:15:08Z</time>
      </trkpt>
      <trkpt lat="46.102143237367272" lon="9.322457229718566">
        <ele>330.35000000000002</ele>
        <time>2013-05-23T10:15:19Z</time>
      </trkpt>
      <trkpt lat="46.102271229028702" lon="9.322433425113559">
        <ele>331.31</ele>
        <time>2013-05-23T10:15:33Z</time>
      </trkpt>
      <trkpt lat="46.102284472435713" lon="9.322454379871488">
        <ele>331.31</ele>
        <time>2013-05-23T10:15:35Z</time>
      </trkpt>
      <trkpt lat="46.102356808260083" lon="9.322456642985344">
        <ele>332.26999999999998</ele>
        <time>2013-05-23T10:15:41Z</time>
      </trkpt>
      <trkpt lat="46.102516651153564" lon="9.32249897159636">
        <ele>333.70999999999998</ele>
        <time>2013-05-23T10:15:55Z</time>
      </trkpt>
      <trkpt lat="46.102587478235364" lon="9.322508526965976">
        <ele>335.16000000000003</ele>
        <time>2013-05-23T10:16:03Z</time>
      </trkpt>
      <trkpt lat="46.102607594802976" lon="9.322520764544606">
        <ele>335.63999999999999</ele>
        <time>2013-05-23T10:16:05Z</time>
      </trkpt>
      <trkpt lat="46.102683618664742" lon="9.322581449523568">
        <ele>337.56</ele>
        <time>2013-05-23T10:16:14Z</time>
      </trkpt>
      <trkpt lat="46.102806078270078" lon="9.322680020704866">
        <ele>339.95999999999998</ele>
        <time>2013-05-23T10:16:28Z</time>
      </trkpt>
      <trkpt lat="46.102919317781925" lon="9.322757972404361">
        <ele>340.44</ele>
        <time>2013-05-23T10:16:41Z</time>
      </trkpt>
      <trkpt lat="46.102938260883093" lon="9.322795858606696">
        <ele>340.92000000000002</ele>
        <time>2013-05-23T10:16:43Z</time>
      </trkpt>
      <trkpt lat="46.103012105450034" lon="9.32290842756629">
        <ele>340.44</ele>
        <time>2013-05-23T10:16:52Z</time>
      </trkpt>
      <trkpt lat="46.103166164830327" lon="9.32312979362905">
        <ele>339.48000000000002</ele>
        <time>2013-05-23T10:17:07Z</time>
      </trkpt>
      <trkpt lat="46.10320639796555" lon="9.323322325944901">
        <ele>341.41000000000003</ele>
        <time>2013-05-23T10:17:20Z</time>
      </trkpt>
      <trkpt lat="46.103246212005615" lon="9.323374880477786">
        <ele>340.92000000000002</ele>
        <time>2013-05-23T10:17:25Z</time>
      </trkpt>
      <trkpt lat="46.103329779580235" lon="9.323437241837382">
        <ele>339.95999999999998</ele>
        <time>2013-05-23T10:17:33Z</time>
      </trkpt>
      <trkpt lat="46.103394739329815" lon="9.323671432211995">
        <ele>338.51999999999998</ele>
        <time>2013-05-23T10:17:47Z</time>
      </trkpt>
      <trkpt lat="46.103515606373549" lon="9.323921045288444">
        <ele>339</ele>
        <time>2013-05-23T10:18:02Z</time>
      </trkpt>
      <trkpt lat="46.103531531989574" lon="9.323953986167908">
        <ele>339</ele>
        <time>2013-05-23T10:18:05Z</time>
      </trkpt>
      <trkpt lat="46.103584924712777" lon="9.32413293980062">
        <ele>342.37</ele>
        <time>2013-05-23T10:18:20Z</time>
      </trkpt>
      <trkpt lat="46.103591797873378" lon="9.324242491275072">
        <ele>343.81</ele>
        <time>2013-05-23T10:18:27Z</time>
      </trkpt>
      <trkpt lat="46.103596743196249" lon="9.324315413832665">
        <ele>343.32999999999998</ele>
        <time>2013-05-23T10:18:32Z</time>
      </trkpt>
      <trkpt lat="46.103664804250002" lon="9.324359251186252">
        <ele>343.32999999999998</ele>
        <time>2013-05-23T10:18:46Z</time>
      </trkpt>
      <trkpt lat="46.103742169216275" lon="9.324283311143518">
        <ele>346.20999999999998</ele>
        <time>2013-05-23T10:18:59Z</time>
      </trkpt>
      <trkpt lat="46.10381375066936" lon="9.324240144342184">
        <ele>348.13</ele>
        <time>2013-05-23T10:19:10Z</time>
      </trkpt>
      <trkpt lat="46.103894636034966" lon="9.324227068573237">
        <ele>350.06</ele>
        <time>2013-05-23T10:19:22Z</time>
      </trkpt>
      <trkpt lat="46.10397451557219" lon="9.324241988360882">
        <ele>353.42000000000002</ele>
        <time>2013-05-23T10:19:33Z</time>
      </trkpt>
      <trkpt lat="46.104045510292053" lon="9.32423016987741">
        <ele>355.82999999999998</ele>
        <time>2013-05-23T10:19:43Z</time>
      </trkpt>
      <trkpt lat="46.104116169735789" lon="9.324217177927494">
        <ele>358.70999999999998</ele>
        <time>2013-05-23T10:19:53Z</time>
      </trkpt>
      <trkpt lat="46.104206778109074" lon="9.324257075786591">
        <ele>360.63</ele>
        <time>2013-05-23T10:20:05Z</time>
      </trkpt>
      <trkpt lat="46.104217087849975" lon="9.324275432154536">
        <ele>361.11000000000001</ele>
        <time>2013-05-23T10:20:07Z</time>
      </trkpt>
      <trkpt lat="46.104282131418586" lon="9.324385486543179">
        <ele>363.51999999999998</ele>
        <time>2013-05-23T10:20:21Z</time>
      </trkpt>
      <trkpt lat="46.104365112259984" lon="9.324428485706449">
        <ele>365.92000000000002</ele>
        <time>2013-05-23T10:20:33Z</time>
      </trkpt>
      <trkpt lat="46.104393107816577" lon="9.324434017762542">
        <ele>369.27999999999997</ele>
        <time>2013-05-23T10:20:43Z</time>
      </trkpt>
      <trkpt lat="46.104426551610231" lon="9.324381211772561">
        <ele>369.75999999999999</ele>
        <time>2013-05-23T10:20:49Z</time>
      </trkpt>
      <trkpt lat="46.104557476937771" lon="9.32426730170846">
        <ele>370.24000000000001</ele>
        <time>2013-05-23T10:21:04Z</time>
      </trkpt>
      <trkpt lat="46.104570887982845" lon="9.324255986139178">
        <ele>370.24000000000001</ele>
        <time>2013-05-23T10:21:06Z</time>
      </trkpt>
      <trkpt lat="46.104629058390856" lon="9.324146937578917">
        <ele>370.73000000000002</ele>
        <time>2013-05-23T10:21:14Z</time>
      </trkpt>
      <trkpt lat="46.104656048119068" lon="9.324133191257715">
        <ele>370.24000000000001</ele>
        <time>2013-05-23T10:21:16Z</time>
      </trkpt>
      <trkpt lat="46.104738945141435" lon="9.32413000613451">
        <ele>371.69</ele>
        <time>2013-05-23T10:21:24Z</time>
      </trkpt>
      <trkpt lat="46.104821423068643" lon="9.324119277298451">
        <ele>375.52999999999997</ele>
        <time>2013-05-23T10:21:35Z</time>
      </trkpt>
      <trkpt lat="46.104835756123066" lon="9.324114751070738">
        <ele>376.00999999999999</ele>
        <time>2013-05-23T10:21:37Z</time>
      </trkpt>
      <trkpt lat="46.10487699508667" lon="9.324116846546531">
        <ele>377.44999999999999</ele>
        <time>2013-05-23T10:21:43Z</time>
      </trkpt>
      <trkpt lat="46.104906164109707" lon="9.324126234278083">
        <ele>377.94</ele>
        <time>2013-05-23T10:21:46Z</time>
      </trkpt>
      <trkpt lat="46.105029797181487" lon="9.324068566784263">
        <ele>378.42000000000002</ele>
        <time>2013-05-23T10:21:58Z</time>
      </trkpt>
      <trkpt lat="46.105162231251597" lon="9.324049036949873">
        <ele>379.86000000000001</ele>
        <time>2013-05-23T10:22:11Z</time>
      </trkpt>
      <trkpt lat="46.105228951200843" lon="9.324019616469741">
        <ele>382.25999999999999</ele>
        <time>2013-05-23T10:22:22Z</time>
      </trkpt>
      <trkpt lat="46.1052449606359" lon="9.324004864320159">
        <ele>382.25999999999999</ele>
        <time>2013-05-23T10:22:43Z</time>
      </trkpt>
      <trkpt lat="46.105297515168786" lon="9.323958763852716">
        <ele>384.18000000000001</ele>
        <time>2013-05-23T10:22:56Z</time>
      </trkpt>
      <trkpt lat="46.105311848223209" lon="9.323930013924837">
        <ele>385.63</ele>
        <time>2013-05-23T10:23:12Z</time>
      </trkpt>
      <trkpt lat="46.105358619242907" lon="9.323881901800633">
        <ele>385.63</ele>
        <time>2013-05-23T10:23:19Z</time>
      </trkpt>
      <trkpt lat="46.105435900390148" lon="9.323804369196296">
        <ele>387.06999999999999</ele>
        <time>2013-05-23T10:23:28Z</time>
      </trkpt>
      <trkpt lat="46.105537991970778" lon="9.323759023100138">
        <ele>389.94999999999999</ele>
        <time>2013-05-23T10:23:41Z</time>
      </trkpt>
      <trkpt lat="46.105621978640556" lon="9.323740834370256">
        <ele>392.83999999999997</ele>
        <time>2013-05-23T10:23:53Z</time>
      </trkpt>
      <trkpt lat="46.105675958096981" lon="9.323722226545215">
        <ele>395.72000000000003</ele>
        <time>2013-05-23T10:24:05Z</time>
      </trkpt>
      <trkpt lat="46.105684004724026" lon="9.323710994794965">
        <ele>396.19999999999999</ele>
        <time>2013-05-23T10:24:08Z</time>
      </trkpt>
      <trkpt lat="46.105737229809165" lon="9.323655003681779">
        <ele>398.60000000000002</ele>
        <time>2013-05-23T10:24:19Z</time>
      </trkpt>
      <trkpt lat="46.105778133496642" lon="9.323698002845049">
        <ele>401.00999999999999</ele>
        <time>2013-05-23T10:24:31Z</time>
      </trkpt>
      <trkpt lat="46.10578048042953" lon="9.3237679079175">
        <ele>403.88999999999999</ele>
        <time>2013-05-23T10:24:43Z</time>
      </trkpt>
      <trkpt lat="46.105831442400813" lon="9.323774445801973">
        <ele>406.76999999999998</ele>
        <time>2013-05-23T10:24:53Z</time>
      </trkpt>
      <trkpt lat="46.10583714209497" lon="9.323779223486781">
        <ele>406.76999999999998</ele>
        <time>2013-05-23T10:24:54Z</time>
      </trkpt>
      <trkpt lat="46.10586354508996" lon="9.323910735547543">
        <ele>410.62</ele>
        <time>2013-05-23T10:25:06Z</time>
      </trkpt>
      <trkpt lat="46.105898581445217" lon="9.323873771354556">
        <ele>412.54000000000002</ele>
        <time>2013-05-23T10:25:17Z</time>
      </trkpt>
      <trkpt lat="46.105923727154732" lon="9.323834627866745">
        <ele>413.5</ele>
        <time>2013-05-23T10:25:22Z</time>
      </trkpt>
      <trkpt lat="46.106002600863576" lon="9.323776625096798">
        <ele>415.91000000000003</ele>
        <time>2013-05-23T10:25:34Z</time>
      </trkpt>
      <trkpt lat="46.106063788756728" lon="9.323800345882773">
        <ele>417.82999999999998</ele>
        <time>2013-05-23T10:25:44Z</time>
      </trkpt>
      <trkpt lat="46.106096478179097" lon="9.323911657556891">
        <ele>420.23000000000002</ele>
        <time>2013-05-23T10:25:57Z</time>
      </trkpt>
      <trkpt lat="46.10610343515873" lon="9.323953064158559">
        <ele>422.16000000000003</ele>
        <time>2013-05-23T10:26:11Z</time>
      </trkpt>
      <trkpt lat="46.106146685779095" lon="9.323962284252048">
        <ele>423.60000000000002</ele>
        <time>2013-05-23T10:26:28Z</time>
      </trkpt>
      <trkpt lat="46.106217345222831" lon="9.323951303958893">
        <ele>426.95999999999998</ele>
        <time>2013-05-23T10:26:40Z</time>
      </trkpt>
      <trkpt lat="46.106289681047201" lon="9.323956416919828">
        <ele>429.37</ele>
        <time>2013-05-23T10:26:53Z</time>
      </trkpt>
      <trkpt lat="46.106354556977749" lon="9.323950465768576">
        <ele>432.25</ele>
        <time>2013-05-23T10:27:04Z</time>
      </trkpt>
      <trkpt lat="46.106416834518313" lon="9.323932947590947">
        <ele>435.13</ele>
        <time>2013-05-23T10:27:15Z</time>
      </trkpt>
      <trkpt lat="46.106444830074906" lon="9.323950130492449">
        <ele>435.61000000000001</ele>
        <time>2013-05-23T10:27:19Z</time>
      </trkpt>
      <trkpt lat="46.106598889455199" lon="9.323958093300462">
        <ele>435.61000000000001</ele>
        <time>2013-05-23T10:27:34Z</time>
      </trkpt>
      <trkpt lat="46.106699137017131" lon="9.32394384406507">
        <ele>438.5</ele>
        <time>2013-05-23T10:27:47Z</time>
      </trkpt>
      <trkpt lat="46.106785722076893" lon="9.32395163923502">
        <ele>440.42000000000002</ele>
        <time>2013-05-23T10:27:57Z</time>
      </trkpt>
      <trkpt lat="46.106871217489243" lon="9.323939820751548">
        <ele>443.79000000000002</ele>
        <time>2013-05-23T10:28:11Z</time>
      </trkpt>
      <trkpt lat="46.106945313513279" lon="9.323919536545873">
        <ele>445.70999999999998</ele>
        <time>2013-05-23T10:28:22Z</time>
      </trkpt>
      <trkpt lat="46.107004154473543" lon="9.323848122730851">
        <ele>448.11000000000001</ele>
        <time>2013-05-23T10:28:34Z</time>
      </trkpt>
      <trkpt lat="46.107056541368365" lon="9.323803028091788">
        <ele>451</ele>
        <time>2013-05-23T10:28:45Z</time>
      </trkpt>
      <trkpt lat="46.107120495289564" lon="9.323747623711824">
        <ele>452.92000000000002</ele>
        <time>2013-05-23T10:28:56Z</time>
      </trkpt>
      <trkpt lat="46.107148071750998" lon="9.323709402233362">
        <ele>454.36000000000001</ele>
        <time>2013-05-23T10:29:09Z</time>
      </trkpt>
      <trkpt lat="46.107143294066191" lon="9.323750054463744">
        <ele>454.36000000000001</ele>
        <time>2013-05-23T10:29:26Z</time>
      </trkpt>
      <trkpt lat="46.107147736474872" lon="9.323716945946217">
        <ele>453.39999999999998</ele>
        <time>2013-05-23T10:29:42Z</time>
      </trkpt>
      <trkpt lat="46.107152346521616" lon="9.323702193796635">
        <ele>453.39999999999998</ele>
        <time>2013-05-23T10:29:59Z</time>
      </trkpt>
      <trkpt lat="46.107177156955004" lon="9.323731362819672">
        <ele>454.36000000000001</ele>
        <time>2013-05-23T10:30:26Z</time>
      </trkpt>
      <trkpt lat="46.107165338471532" lon="9.32372004725039">
        <ele>453.39999999999998</ele>
        <time>2013-05-23T10:30:46Z</time>
      </trkpt>
      <trkpt lat="46.107168858870864" lon="9.323725244030356">
        <ele>453.39999999999998</ele>
        <time>2013-05-23T10:31:02Z</time>
      </trkpt>
      <trkpt lat="46.10714714974165" lon="9.323729602620006">
        <ele>453.88</ele>
        <time>2013-05-23T10:31:15Z</time>
      </trkpt>
      <trkpt lat="46.10715989023447" lon="9.323722561821342">
        <ele>453.88</ele>
        <time>2013-05-23T10:31:31Z</time>
      </trkpt>
      <trkpt lat="46.107153268530965" lon="9.323722310364246">
        <ele>454.36000000000001</ele>
        <time>2013-05-23T10:31:46Z</time>
      </trkpt>
      <trkpt lat="46.107154693454504" lon="9.323739912360907">
        <ele>454.36000000000001</ele>
        <time>2013-05-23T10:31:59Z</time>
      </trkpt>
      <trkpt lat="46.107145138084888" lon="9.323706468567252">
        <ele>454.36000000000001</ele>
        <time>2013-05-23T10:32:17Z</time>
      </trkpt>
      <trkpt lat="46.107148574665189" lon="9.323710408061743">
        <ele>454.36000000000001</ele>
        <time>2013-05-23T10:32:38Z</time>
      </trkpt>
      <trkpt lat="46.107151173055172" lon="9.323708899319172">
        <ele>453.88</ele>
        <time>2013-05-23T10:32:54Z</time>
      </trkpt>
      <trkpt lat="46.107132313773036" lon="9.323699343949556">
        <ele>453.88</ele>
        <time>2013-05-23T10:33:16Z</time>
      </trkpt>
      <trkpt lat="46.107140025123954" lon="9.323707725852728">
        <ele>453.88</ele>
        <time>2013-05-23T10:33:40Z</time>
      </trkpt>
      <trkpt lat="46.107130218297243" lon="9.323733625933528">
        <ele>453.88</ele>
        <time>2013-05-23T10:34:01Z</time>
      </trkpt>
      <trkpt lat="46.107133822515607" lon="9.323722310364246">
        <ele>453.39999999999998</ele>
        <time>2013-05-23T10:34:26Z</time>
      </trkpt>
      <trkpt lat="46.107150921598077" lon="9.323715018108487">
        <ele>453.39999999999998</ele>
        <time>2013-05-23T10:34:44Z</time>
      </trkpt>
      <trkpt lat="46.107145389541984" lon="9.323694901540875">
        <ele>453.88</ele>
        <time>2013-05-23T10:35:12Z</time>
      </trkpt>
      <trkpt lat="46.107172127813101" lon="9.323724741116166">
        <ele>453.39999999999998</ele>
        <time>2013-05-23T10:35:41Z</time>
      </trkpt>
      <trkpt lat="46.107145473361015" lon="9.323702193796635">
        <ele>453.88</ele>
        <time>2013-05-23T10:36:03Z</time>
      </trkpt>
      <trkpt lat="46.107219569385052" lon="9.323677215725184">
        <ele>455.31999999999999</ele>
        <time>2013-05-23T10:36:17Z</time>
      </trkpt>
      <trkpt lat="46.107317889109254" lon="9.323652908205986">
        <ele>458.20999999999998</ele>
        <time>2013-05-23T10:36:30Z</time>
      </trkpt>
      <trkpt lat="46.107395421713591" lon="9.323643688112497">
        <ele>459.64999999999998</ele>
        <time>2013-05-23T10:36:41Z</time>
      </trkpt>
      <trkpt lat="46.107466081157327" lon="9.323682831600308">
        <ele>462.52999999999997</ele>
        <time>2013-05-23T10:36:53Z</time>
      </trkpt>
      <trkpt lat="46.107467170804739" lon="9.323694566264749">
        <ele>463.00999999999999</ele>
        <time>2013-05-23T10:36:54Z</time>
      </trkpt>
      <trkpt lat="46.10748284496367" lon="9.323767488822341">
        <ele>464.93000000000001</ele>
        <time>2013-05-23T10:37:02Z</time>
      </trkpt>
      <trkpt lat="46.107536572962999" lon="9.323723819106817">
        <ele>467.33999999999997</ele>
        <time>2013-05-23T10:37:16Z</time>
      </trkpt>
      <trkpt lat="46.107582924887538" lon="9.323654919862747">
        <ele>469.25999999999999</ele>
        <time>2013-05-23T10:37:29Z</time>
      </trkpt>
      <trkpt lat="46.107638916000724" lon="9.323606472462416">
        <ele>472.13999999999999</ele>
        <time>2013-05-23T10:37:42Z</time>
      </trkpt>
      <trkpt lat="46.107674371451139" lon="9.323598509654403">
        <ele>474.06999999999999</ele>
        <time>2013-05-23T10:37:52Z</time>
      </trkpt>
      <trkpt lat="46.107683843001723" lon="9.323569675907493">
        <ele>474.06999999999999</ele>
        <time>2013-05-23T10:38:05Z</time>
      </trkpt>
      <trkpt lat="46.107722483575344" lon="9.323624074459076">
        <ele>474.06999999999999</ele>
        <time>2013-05-23T10:38:16Z</time>
      </trkpt>
      <trkpt lat="46.107794651761651" lon="9.32363455183804">
        <ele>476.94999999999999</ele>
        <time>2013-05-23T10:38:28Z</time>
      </trkpt>
      <trkpt lat="46.10780144110322" lon="9.323631450533867">
        <ele>477.43000000000001</ele>
        <time>2013-05-23T10:38:29Z</time>
      </trkpt>
      <trkpt lat="46.107859527692199" lon="9.323644358664751">
        <ele>479.35000000000002</ele>
        <time>2013-05-23T10:38:41Z</time>
      </trkpt>
      <trkpt lat="46.107918620109558" lon="9.323632037267089">
        <ele>481.27999999999997</ele>
        <time>2013-05-23T10:38:57Z</time>
      </trkpt>
      <trkpt lat="46.107938401401043" lon="9.323757849633694">
        <ele>484.63999999999999</ele>
        <time>2013-05-23T10:39:09Z</time>
      </trkpt>
      <trkpt lat="46.107923900708556" lon="9.323828844353557">
        <ele>487.05000000000001</ele>
        <time>2013-05-23T10:39:22Z</time>
      </trkpt>
      <trkpt lat="46.107934461906552" lon="9.323888942599297">
        <ele>488.49000000000001</ele>
        <time>2013-05-23T10:39:35Z</time>
      </trkpt>
      <trkpt lat="46.107978047803044" lon="9.323870921507478">
        <ele>490.41000000000003</ele>
        <time>2013-05-23T10:39:49Z</time>
      </trkpt>
      <trkpt lat="46.108046108856797" lon="9.323913836851716">
        <ele>493.29000000000002</ele>
        <time>2013-05-23T10:40:01Z</time>
      </trkpt>
      <trkpt lat="46.108093047514558" lon="9.323965217918158">
        <ele>495.69999999999999</ele>
        <time>2013-05-23T10:40:13Z</time>
      </trkpt>
      <trkpt lat="46.108151972293854" lon="9.324025064706802">
        <ele>498.10000000000002</ele>
        <time>2013-05-23T10:40:25Z</time>
      </trkpt>
      <trkpt lat="46.108162114396691" lon="9.323948454111815">
        <ele>498.57999999999998</ele>
        <time>2013-05-23T10:40:38Z</time>
      </trkpt>
      <trkpt lat="46.108129005879164" lon="9.323931522667408">
        <ele>499.06</ele>
        <time>2013-05-23T10:40:54Z</time>
      </trkpt>
      <trkpt lat="46.108172507956624" lon="9.323858767747879">
        <ele>498.10000000000002</ele>
        <time>2013-05-23T10:41:10Z</time>
      </trkpt>
      <trkpt lat="46.108159767463803" lon="9.323906293138862">
        <ele>498.57999999999998</ele>
        <time>2013-05-23T10:41:21Z</time>
      </trkpt>
      <trkpt lat="46.108201509341598" lon="9.324019365012646">
        <ele>499.06</ele>
        <time>2013-05-23T10:41:32Z</time>
      </trkpt>
      <trkpt lat="46.108173849061131" lon="9.324103435501456">
        <ele>499.06</ele>
        <time>2013-05-23T10:41:41Z</time>
      </trkpt>
      <trkpt lat="46.108146607875824" lon="9.324158169329166">
        <ele>502.43000000000001</ele>
        <time>2013-05-23T10:41:51Z</time>
      </trkpt>
      <trkpt lat="46.10813470557332" lon="9.324167221784592">
        <ele>503.38999999999999</ele>
        <time>2013-05-23T10:41:54Z</time>
      </trkpt>
      <trkpt lat="46.108077373355627" lon="9.32424190454185">
        <ele>505.79000000000002</ele>
        <time>2013-05-23T10:42:06Z</time>
      </trkpt>
      <trkpt lat="46.108046695590019" lon="9.324287418276072">
        <ele>508.19</ele>
        <time>2013-05-23T10:42:16Z</time>
      </trkpt>
      <trkpt lat="46.108016520738602" lon="9.324323209002614">
        <ele>510.12</ele>
        <time>2013-05-23T10:42:28Z</time>
      </trkpt>
      <trkpt lat="46.108009731397033" lon="9.324304852634668">
        <ele>512.03999999999996</ele>
        <time>2013-05-23T10:42:41Z</time>
      </trkpt>
      <trkpt lat="46.108022555708885" lon="9.324318766593933">
        <ele>512.03999999999996</ele>
        <time>2013-05-23T10:42:44Z</time>
      </trkpt>
      <trkpt lat="46.108037475496531" lon="9.324374925345182">
        <ele>512.03999999999996</ele>
        <time>2013-05-23T10:42:48Z</time>
      </trkpt>
      <trkpt lat="46.108077289536595" lon="9.324428820982575">
        <ele>513.96000000000004</ele>
        <time>2013-05-23T10:42:59Z</time>
      </trkpt>
      <trkpt lat="46.108121713623405" lon="9.324481040239334">
        <ele>515.39999999999998</ele>
        <time>2013-05-23T10:43:11Z</time>
      </trkpt>
      <trkpt lat="46.108135627582669" lon="9.324474921450019">
        <ele>514.44000000000005</ele>
        <time>2013-05-23T10:43:25Z</time>
      </trkpt>
      <trkpt lat="46.108124563470483" lon="9.32447986677289">
        <ele>513.96000000000004</ele>
        <time>2013-05-23T10:43:40Z</time>
      </trkpt>
      <trkpt lat="46.108120707795024" lon="9.324463102966547">
        <ele>513.96000000000004</ele>
        <time>2013-05-23T10:44:15Z</time>
      </trkpt>
      <trkpt lat="46.108128586784005" lon="9.324438711628318">
        <ele>514.44000000000005</ele>
        <time>2013-05-23T10:44:44Z</time>
      </trkpt>
      <trkpt lat="46.108112074434757" lon="9.324399568140507">
        <ele>514.44000000000005</ele>
        <time>2013-05-23T10:45:04Z</time>
      </trkpt>
      <trkpt lat="46.108153145760298" lon="9.324457822367549">
        <ele>514.91999999999996</ele>
        <time>2013-05-23T10:45:27Z</time>
      </trkpt>
      <trkpt lat="46.108143422752619" lon="9.324474837630987">
        <ele>514.44000000000005</ele>
        <time>2013-05-23T10:46:02Z</time>
      </trkpt>
      <trkpt lat="46.10812590457499" lon="9.32449352927506">
        <ele>513.96000000000004</ele>
        <time>2013-05-23T10:46:41Z</time>
      </trkpt>
      <trkpt lat="46.108144847676158" lon="9.324492691084743">
        <ele>514.44000000000005</ele>
        <time>2013-05-23T10:47:18Z</time>
      </trkpt>
      <trkpt lat="46.108117438852787" lon="9.324464192613959">
        <ele>514.44000000000005</ele>
        <time>2013-05-23T10:47:55Z</time>
      </trkpt>
      <trkpt lat="46.108103105798364" lon="9.324478944763541">
        <ele>514.44000000000005</ele>
        <time>2013-05-23T10:48:28Z</time>
      </trkpt>
      <trkpt lat="46.1081254016608" lon="9.324483219534159">
        <ele>513.96000000000004</ele>
        <time>2013-05-23T10:49:12Z</time>
      </trkpt>
      <trkpt lat="46.108126156032085" lon="9.324493445456028">
        <ele>513.48000000000002</ele>
        <time>2013-05-23T10:49:52Z</time>
      </trkpt>
      <trkpt lat="46.108144093304873" lon="9.32449403218925">
        <ele>513.96000000000004</ele>
        <time>2013-05-23T10:50:35Z</time>
      </trkpt>
      <trkpt lat="46.108132358640432" lon="9.324479112401605">
        <ele>513.48000000000002</ele>
        <time>2013-05-23T10:51:21Z</time>
      </trkpt>
      <trkpt lat="46.108154151588678" lon="9.324474250897765">
        <ele>513.48000000000002</ele>
        <time>2013-05-23T10:51:57Z</time>
      </trkpt>
      <trkpt lat="46.108163204044104" lon="9.32448523119092">
        <ele>513.48000000000002</ele>
        <time>2013-05-23T10:52:36Z</time>
      </trkpt>
      <trkpt lat="46.108135543763638" lon="9.3244793638587">
        <ele>513.48000000000002</ele>
        <time>2013-05-23T10:53:20Z</time>
      </trkpt>
      <trkpt lat="46.108126491308212" lon="9.32447056286037">
        <ele>513</ele>
        <time>2013-05-23T10:54:02Z</time>
      </trkpt>
      <trkpt lat="46.108128922060132" lon="9.324481962248683">
        <ele>513</ele>
        <time>2013-05-23T10:54:46Z</time>
      </trkpt>
      <trkpt lat="46.108145602047443" lon="9.324487997218967">
        <ele>513</ele>
        <time>2013-05-23T10:55:30Z</time>
      </trkpt>
      <trkpt lat="46.108139902353287" lon="9.324480956420302">
        <ele>512.51999999999998</ele>
        <time>2013-05-23T10:56:08Z</time>
      </trkpt>
      <trkpt lat="46.108147362247109" lon="9.32449746876955">
        <ele>512.51999999999998</ele>
        <time>2013-05-23T10:56:46Z</time>
      </trkpt>
      <trkpt lat="46.108125820755959" lon="9.324473664164543">
        <ele>512.51999999999998</ele>
        <time>2013-05-23T10:57:24Z</time>
      </trkpt>
      <trkpt lat="46.108158342540264" lon="9.324486320838332">
        <ele>512.51999999999998</ele>
        <time>2013-05-23T10:57:56Z</time>
      </trkpt>
      <trkpt lat="46.108145266771317" lon="9.324483722448349">
        <ele>512.51999999999998</ele>
        <time>2013-05-23T10:58:30Z</time>
      </trkpt>
      <trkpt lat="46.108151888474822" lon="9.324491517618299">
        <ele>513</ele>
        <time>2013-05-23T10:59:01Z</time>
      </trkpt>
      <trkpt lat="46.108173849061131" lon="9.324460756033659">
        <ele>512.51999999999998</ele>
        <time>2013-05-23T10:59:32Z</time>
      </trkpt>
      <trkpt lat="46.108153481036425" lon="9.324466288089752">
        <ele>512.51999999999998</ele>
        <time>2013-05-23T11:00:00Z</time>
      </trkpt>
      <trkpt lat="46.108160689473152" lon="9.32447106577456">
        <ele>512.51999999999998</ele>
        <time>2013-05-23T11:00:28Z</time>
      </trkpt>
      <trkpt lat="46.108169741928577" lon="9.324477100744844">
        <ele>512.51999999999998</ele>
        <time>2013-05-23T11:00:52Z</time>
      </trkpt>
      <trkpt lat="46.10817083157599" lon="9.324477603659034">
        <ele>516.37</ele>
        <time>2013-05-23T11:00:57Z</time>
      </trkpt>
      <trkpt lat="46.108171921223402" lon="9.324476346373558">
        <ele>512.51999999999998</ele>
        <time>2013-05-23T11:00:58Z</time>
      </trkpt>
      <trkpt lat="46.108138477429748" lon="9.324466455727816">
        <ele>512.51999999999998</ele>
        <time>2013-05-23T11:01:17Z</time>
      </trkpt>
      <trkpt lat="46.108101261779666" lon="9.324390515685082">
        <ele>512.51999999999998</ele>
        <time>2013-05-23T11:01:55Z</time>
      </trkpt>
      <trkpt lat="46.108119618147612" lon="9.3244085367769">
        <ele>513.48000000000002</ele>
        <time>2013-05-23T11:02:34Z</time>
      </trkpt>
      <trkpt lat="46.108131352812052" lon="9.324429910629988">
        <ele>513.48000000000002</ele>
        <time>2013-05-23T11:02:51Z</time>
      </trkpt>
      <trkpt lat="46.108123809099197" lon="9.324495289474726">
        <ele>512.03999999999996</ele>
        <time>2013-05-23T11:03:03Z</time>
      </trkpt>
      <trkpt lat="46.108166975900531" lon="9.324482213705778">
        <ele>509.63999999999999</ele>
        <time>2013-05-23T11:03:14Z</time>
      </trkpt>
      <trkpt lat="46.108222212642431" lon="9.324518255889416">
        <ele>508.19</ele>
        <time>2013-05-23T11:03:27Z</time>
      </trkpt>
      <trkpt lat="46.108270492404699" lon="9.324552370235324">
        <ele>507.23000000000002</ele>
        <time>2013-05-23T11:03:39Z</time>
      </trkpt>
      <trkpt lat="46.1083326023072" lon="9.324490930885077">
        <ele>506.26999999999998</ele>
        <time>2013-05-23T11:03:52Z</time>
      </trkpt>
      <trkpt lat="46.108304355293512" lon="9.324431084096432">
        <ele>506.75</ele>
        <time>2013-05-23T11:04:11Z</time>
      </trkpt>
      <trkpt lat="46.108286920934916" lon="9.324472742155194">
        <ele>506.75</ele>
        <time>2013-05-23T11:04:39Z</time>
      </trkpt>
      <trkpt lat="46.108322544023395" lon="9.324486907571554">
        <ele>507.23000000000002</ele>
        <time>2013-05-23T11:05:06Z</time>
      </trkpt>
      <trkpt lat="46.108314832672477" lon="9.324476681649685">
        <ele>506.75</ele>
        <time>2013-05-23T11:05:38Z</time>
      </trkpt>
      <trkpt lat="46.108319442719221" lon="9.324438543990254">
        <ele>507.23000000000002</ele>
        <time>2013-05-23T11:06:11Z</time>
      </trkpt>
      <trkpt lat="46.108287256211042" lon="9.324416918680072">
        <ele>506.75</ele>
        <time>2013-05-23T11:06:43Z</time>
      </trkpt>
      <trkpt lat="46.108323466032743" lon="9.324500905349851">
        <ele>507.70999999999998</ele>
        <time>2013-05-23T11:07:25Z</time>
      </trkpt>
      <trkpt lat="46.108318269252777" lon="9.324449105188251">
        <ele>507.23000000000002</ele>
        <time>2013-05-23T11:07:51Z</time>
      </trkpt>
      <trkpt lat="46.108296811580658" lon="9.324437202885747">
        <ele>507.70999999999998</ele>
        <time>2013-05-23T11:08:28Z</time>
      </trkpt>
      <trkpt lat="46.10827786847949" lon="9.324452960863709">
        <ele>506.75</ele>
        <time>2013-05-23T11:09:05Z</time>
      </trkpt>
      <trkpt lat="46.108295470476151" lon="9.324461929500103">
        <ele>507.23000000000002</ele>
        <time>2013-05-23T11:09:37Z</time>
      </trkpt>
      <trkpt lat="46.108329501003027" lon="9.324452122673392">
        <ele>506.75</ele>
        <time>2013-05-23T11:09:59Z</time>
      </trkpt>
      <trkpt lat="46.1082998290658" lon="9.324404932558537">
        <ele>506.75</ele>
        <time>2013-05-23T11:10:23Z</time>
      </trkpt>
      <trkpt lat="46.108298571780324" lon="9.324411135166884">
        <ele>507.23000000000002</ele>
        <time>2013-05-23T11:10:54Z</time>
      </trkpt>
      <trkpt lat="46.108368644490838" lon="9.324466707184911">
        <ele>507.70999999999998</ele>
        <time>2013-05-23T11:11:28Z</time>
      </trkpt>
      <trkpt lat="46.108338302001357" lon="9.324445500969887">
        <ele>507.23000000000002</ele>
        <time>2013-05-23T11:12:03Z</time>
      </trkpt>
      <trkpt lat="46.108294045552611" lon="9.32448036968708">
        <ele>507.70999999999998</ele>
        <time>2013-05-23T11:12:44Z</time>
      </trkpt>
      <trkpt lat="46.108322711661458" lon="9.324468718841672">
        <ele>507.70999999999998</ele>
        <time>2013-05-23T11:13:21Z</time>
      </trkpt>
      <trkpt lat="46.108296308666468" lon="9.324505683034658">
        <ele>507.70999999999998</ele>
        <time>2013-05-23T11:13:52Z</time>
      </trkpt>
      <trkpt lat="46.108327908441424" lon="9.324430832639337">
        <ele>508.19</ele>
        <time>2013-05-23T11:14:25Z</time>
      </trkpt>
      <trkpt lat="46.108375266194344" lon="9.324463102966547">
        <ele>508.67000000000002</ele>
        <time>2013-05-23T11:14:57Z</time>
      </trkpt>
      <trkpt lat="46.108334865421057" lon="9.324456062167883">
        <ele>509.63999999999999</ele>
        <time>2013-05-23T11:15:26Z</time>
      </trkpt>
      <trkpt lat="46.108342912048101" lon="9.324458912014961">
        <ele>509.16000000000003</ele>
        <time>2013-05-23T11:15:45Z</time>
      </trkpt>
      <trkpt lat="46.108295302838087" lon="9.324454385787249">
        <ele>508.67000000000002</ele>
        <time>2013-05-23T11:16:01Z</time>
      </trkpt>
      <trkpt lat="46.108315419405699" lon="9.324437957257032">
        <ele>509.16000000000003</ele>
        <time>2013-05-23T11:16:24Z</time>
      </trkpt>
      <trkpt lat="46.108340565115213" lon="9.324425468221307">
        <ele>508.67000000000002</ele>
        <time>2013-05-23T11:16:55Z</time>
      </trkpt>
      <trkpt lat="46.108292955905199" lon="9.324439382180572">
        <ele>509.63999999999999</ele>
        <time>2013-05-23T11:17:26Z</time>
      </trkpt>
      <trkpt lat="46.108290776610374" lon="9.324496043846011">
        <ele>509.63999999999999</ele>
        <time>2013-05-23T11:17:50Z</time>
      </trkpt>
      <trkpt lat="46.108282813802361" lon="9.324500234797597">
        <ele>510.12</ele>
        <time>2013-05-23T11:18:20Z</time>
      </trkpt>
      <trkpt lat="46.108270660042763" lon="9.32446519844234">
        <ele>510.60000000000002</ele>
        <time>2013-05-23T11:18:56Z</time>
      </trkpt>
      <trkpt lat="46.10830083489418" lon="9.324400071054697">
        <ele>511.07999999999998</ele>
        <time>2013-05-23T11:19:20Z</time>
      </trkpt>
      <trkpt lat="46.10834282822907" lon="9.324457151815295">
        <ele>510.60000000000002</ele>
        <time>2013-05-23T11:19:51Z</time>
      </trkpt>
      <trkpt lat="46.108335703611374" lon="9.32446176186204">
        <ele>510.60000000000002</ele>
        <time>2013-05-23T11:20:29Z</time>
      </trkpt>
      <trkpt lat="46.108349449932575" lon="9.324433347210288">
        <ele>510.60000000000002</ele>
        <time>2013-05-23T11:20:55Z</time>
      </trkpt>
      <trkpt lat="46.108334613963962" lon="9.324446506798267">
        <ele>511.07999999999998</ele>
        <time>2013-05-23T11:21:15Z</time>
      </trkpt>
      <trkpt lat="46.108343582600355" lon="9.324420019984245">
        <ele>511.07999999999998</ele>
        <time>2013-05-23T11:21:30Z</time>
      </trkpt>
      <trkpt lat="46.108331680297852" lon="9.324428485706449">
        <ele>511.07999999999998</ele>
        <time>2013-05-23T11:21:45Z</time>
      </trkpt>
      <trkpt lat="46.108323633670807" lon="9.324413817375898">
        <ele>510.12</ele>
        <time>2013-05-23T11:22:14Z</time>
      </trkpt>
      <trkpt lat="46.108298655599356" lon="9.324435694143176">
        <ele>510.60000000000002</ele>
        <time>2013-05-23T11:22:33Z</time>
      </trkpt>
      <trkpt lat="46.108294213190675" lon="9.324435275048018">
        <ele>511.07999999999998</ele>
        <time>2013-05-23T11:22:51Z</time>
      </trkpt>
      <trkpt lat="46.108301086351275" lon="9.324454637244344">
        <ele>511.56</ele>
        <time>2013-05-23T11:23:22Z</time>
      </trkpt>
      <trkpt lat="46.108295219019055" lon="9.3244793638587">
        <ele>511.56</ele>
        <time>2013-05-23T11:23:51Z</time>
      </trkpt>
      <trkpt lat="46.108334446325898" lon="9.324477100744844">
        <ele>511.56</ele>
        <time>2013-05-23T11:24:23Z</time>
      </trkpt>
      <trkpt lat="46.10831986181438" lon="9.32449352927506">
        <ele>511.07999999999998</ele>
        <time>2013-05-23T11:24:32Z</time>
      </trkpt>
      <trkpt lat="46.108288848772645" lon="9.324479196220636">
        <ele>510.60000000000002</ele>
        <time>2013-05-23T11:24:49Z</time>
      </trkpt>
      <trkpt lat="46.108241323381662" lon="9.32446469552815">
        <ele>510.60000000000002</ele>
        <time>2013-05-23T11:25:17Z</time>
      </trkpt>
      <trkpt lat="46.108281724154949" lon="9.324493277817965">
        <ele>511.56</ele>
        <time>2013-05-23T11:25:34Z</time>
      </trkpt>
      <trkpt lat="46.108289770781994" lon="9.324456648901105">
        <ele>511.56</ele>
        <time>2013-05-23T11:25:46Z</time>
      </trkpt>
      <trkpt lat="46.108290525153279" lon="9.324426474049687">
        <ele>511.56</ele>
        <time>2013-05-23T11:26:05Z</time>
      </trkpt>
      <trkpt lat="46.108282227069139" lon="9.324445500969887">
        <ele>511.07999999999998</ele>
        <time>2013-05-23T11:26:26Z</time>
      </trkpt>
      <trkpt lat="46.108324471861124" lon="9.324523033574224">
        <ele>511.56</ele>
        <time>2013-05-23T11:26:46Z</time>
      </trkpt>
      <trkpt lat="46.108315838500857" lon="9.324597464874387">
        <ele>513</ele>
        <time>2013-05-23T11:26:54Z</time>
      </trkpt>
      <trkpt lat="46.108307540416718" lon="9.324578773230314">
        <ele>513.48000000000002</ele>
        <time>2013-05-23T11:27:07Z</time>
      </trkpt>
      <trkpt lat="46.108293458819389" lon="9.324587909504771">
        <ele>513.48000000000002</ele>
        <time>2013-05-23T11:27:21Z</time>
      </trkpt>
      <trkpt lat="46.108308294788003" lon="9.324585730209947">
        <ele>513.48000000000002</ele>
        <time>2013-05-23T11:27:38Z</time>
      </trkpt>
      <trkpt lat="46.108339056372643" lon="9.324618587270379">
        <ele>513.96000000000004</ele>
        <time>2013-05-23T11:27:53Z</time>
      </trkpt>
      <trkpt lat="46.108281472697854" lon="9.324725791811943">
        <ele>515.88</ele>
        <time>2013-05-23T11:28:04Z</time>
      </trkpt>
      <trkpt lat="46.108254734426737" lon="9.324832493439317">
        <ele>519.25</ele>
        <time>2013-05-23T11:28:17Z</time>
      </trkpt>
      <trkpt lat="46.10824559815228" lon="9.324854454025626">
        <ele>519.73000000000002</ele>
        <time>2013-05-23T11:28:20Z</time>
      </trkpt>
      <trkpt lat="46.108227074146271" lon="9.324952270835638">
        <ele>521.64999999999998</ele>
        <time>2013-05-23T11:28:32Z</time>
      </trkpt>
      <trkpt lat="46.108274515718222" lon="9.325008764863014">
        <ele>523.58000000000004</ele>
        <time>2013-05-23T11:28:46Z</time>
      </trkpt>
      <trkpt lat="46.108305025845766" lon="9.325123261660337">
        <ele>526.46000000000004</ele>
        <time>2013-05-23T11:29:00Z</time>
      </trkpt>
      <trkpt lat="46.108345007523894" lon="9.325168775394559">
        <ele>528.86000000000001</ele>
        <time>2013-05-23T11:29:14Z</time>
      </trkpt>
      <trkpt lat="46.108393957838416" lon="9.325224850326777">
        <ele>531.75</ele>
        <time>2013-05-23T11:29:29Z</time>
      </trkpt>
      <trkpt lat="46.108413822948933" lon="9.325300790369511">
        <ele>535.11000000000001</ele>
        <time>2013-05-23T11:29:42Z</time>
      </trkpt>
      <trkpt lat="46.108435615897179" lon="9.325303640216589">
        <ele>537.02999999999997</ele>
        <time>2013-05-23T11:29:54Z</time>
      </trkpt>
      <trkpt lat="46.108447434380651" lon="9.325425177812576">
        <ele>540.88</ele>
        <time>2013-05-23T11:30:07Z</time>
      </trkpt>
      <trkpt lat="46.108448440209031" lon="9.325444372370839">
        <ele>540.88</ele>
        <time>2013-05-23T11:30:08Z</time>
      </trkpt>
      <trkpt lat="46.108507616445422" lon="9.325564233586192">
        <ele>542.32000000000005</ele>
        <time>2013-05-23T11:30:24Z</time>
      </trkpt>
      <trkpt lat="46.108546843752265" lon="9.325591055676341">
        <ele>544.72000000000003</ele>
        <time>2013-05-23T11:30:34Z</time>
      </trkpt>
      <trkpt lat="46.108647426590323" lon="9.325602538883686">
        <ele>546.64999999999998</ele>
        <time>2013-05-23T11:30:50Z</time>
      </trkpt>
      <trkpt lat="46.108750440180302" lon="9.325649728998542">
        <ele>549.52999999999997</ele>
        <time>2013-05-23T11:31:06Z</time>
      </trkpt>
      <trkpt lat="46.10883585177362" lon="9.325705636292696">
        <ele>552.89999999999998</ele>
        <time>2013-05-23T11:31:20Z</time>
      </trkpt>
      <trkpt lat="46.108905421569943" lon="9.325733296573162">
        <ele>554.82000000000005</ele>
        <time>2013-05-23T11:31:31Z</time>
      </trkpt>
      <trkpt lat="46.108988402411342" lon="9.325747713446617">
        <ele>556.25999999999999</ele>
        <time>2013-05-23T11:31:47Z</time>
      </trkpt>
      <trkpt lat="46.10908797942102" lon="9.325792975723743">
        <ele>558.17999999999995</ele>
        <time>2013-05-23T11:32:01Z</time>
      </trkpt>
      <trkpt lat="46.109179509803653" lon="9.325800184160471">
        <ele>559.62</ele>
        <time>2013-05-23T11:32:17Z</time>
      </trkpt>
      <trkpt lat="46.109276153147221" lon="9.325807644054294">
        <ele>562.02999999999997</ele>
        <time>2013-05-23T11:32:31Z</time>
      </trkpt>
      <trkpt lat="46.109357541427016" lon="9.32581233792007">
        <ele>562.50999999999999</ele>
        <time>2013-05-23T11:32:44Z</time>
      </trkpt>
      <trkpt lat="46.109485113993287" lon="9.325831532478333">
        <ele>564.42999999999995</ele>
        <time>2013-05-23T11:32:59Z</time>
      </trkpt>
      <trkpt lat="46.109626851975918" lon="9.325880985707045">
        <ele>563.95000000000005</ele>
        <time>2013-05-23T11:33:13Z</time>
      </trkpt>
      <trkpt lat="46.109661050140858" lon="9.325888445600867">
        <ele>565.38999999999999</ele>
        <time>2013-05-23T11:33:17Z</time>
      </trkpt>
      <trkpt lat="46.109806140884757" lon="9.32596824131906">
        <ele>566.35000000000002</ele>
        <time>2013-05-23T11:33:30Z</time>
      </trkpt>
      <trkpt lat="46.109873866662383" lon="9.325997829437256">
        <ele>567.79999999999995</ele>
        <time>2013-05-23T11:33:39Z</time>
      </trkpt>
      <trkpt lat="46.109954249113798" lon="9.326082402840257">
        <ele>568.27999999999997</ele>
        <time>2013-05-23T11:33:52Z</time>
      </trkpt>
      <trkpt lat="46.10999783501029" lon="9.326165886595845">
        <ele>569.24000000000001</ele>
        <time>2013-05-23T11:34:04Z</time>
      </trkpt>
      <trkpt lat="46.110037984326482" lon="9.326219782233238">
        <ele>569.24000000000001</ele>
        <time>2013-05-23T11:34:09Z</time>
      </trkpt>
      <trkpt lat="46.110070841386914" lon="9.326321873813868">
        <ele>568.27999999999997</ele>
        <time>2013-05-23T11:34:15Z</time>
      </trkpt>
      <trkpt lat="46.110111242160201" lon="9.326450536027551">
        <ele>568.75999999999999</ele>
        <time>2013-05-23T11:34:25Z</time>
      </trkpt>
      <trkpt lat="46.110126497223973" lon="9.326559584587812">
        <ele>567.79999999999995</ele>
        <time>2013-05-23T11:34:42Z</time>
      </trkpt>
      <trkpt lat="46.110125239938498" lon="9.326580036431551">
        <ele>568.27999999999997</ele>
        <time>2013-05-23T11:34:57Z</time>
      </trkpt>
      <trkpt lat="46.110132280737162" lon="9.326582383364439">
        <ele>567.32000000000005</ele>
        <time>2013-05-23T11:35:00Z</time>
      </trkpt>
      <trkpt lat="46.110143680125475" lon="9.326590932905674">
        <ele>567.32000000000005</ele>
        <time>2013-05-23T11:35:17Z</time>
      </trkpt>
      <trkpt lat="46.11016446724534" lon="9.326610881835222">
        <ele>566.83000000000004</ele>
        <time>2013-05-23T11:35:43Z</time>
      </trkpt>
      <trkpt lat="46.110155833885074" lon="9.326554974541068">
        <ele>567.32000000000005</ele>
        <time>2013-05-23T11:35:59Z</time>
      </trkpt>
      <trkpt lat="46.110139489173889" lon="9.326520273461938">
        <ele>567.32000000000005</ele>
        <time>2013-05-23T11:36:12Z</time>
      </trkpt>
      <trkpt lat="46.110137226060033" lon="9.326508371159434">
        <ele>567.79999999999995</ele>
        <time>2013-05-23T11:36:25Z</time>
      </trkpt>
      <trkpt lat="46.110174860805273" lon="9.326502252370119">
        <ele>567.79999999999995</ele>
        <time>2013-05-23T11:36:48Z</time>
      </trkpt>
      <trkpt lat="46.110184835270047" lon="9.326549442484975">
        <ele>566.83000000000004</ele>
        <time>2013-05-23T11:37:13Z</time>
      </trkpt>
      <trkpt lat="46.110153151676059" lon="9.326590178534389">
        <ele>566.83000000000004</ele>
        <time>2013-05-23T11:37:28Z</time>
      </trkpt>
      <trkpt lat="46.110159270465374" lon="9.326581042259932">
        <ele>566.83000000000004</ele>
        <time>2013-05-23T11:37:48Z</time>
      </trkpt>
      <trkpt lat="46.110152564942837" lon="9.326556567102671">
        <ele>567.32000000000005</ele>
        <time>2013-05-23T11:38:00Z</time>
      </trkpt>
      <trkpt lat="46.110127922147512" lon="9.326592609286308">
        <ele>566.83000000000004</ele>
        <time>2013-05-23T11:38:15Z</time>
      </trkpt>
      <trkpt lat="46.110078301280737" lon="9.326587161049247">
        <ele>569.72000000000003</ele>
        <time>2013-05-23T11:38:27Z</time>
      </trkpt>
      <trkpt lat="46.110069416463375" lon="9.326593447476625">
        <ele>570.20000000000005</ele>
        <time>2013-05-23T11:38:39Z</time>
      </trkpt>
      <trkpt lat="46.110077295452356" lon="9.32654432952404">
        <ele>568.75999999999999</ele>
        <time>2013-05-23T11:38:53Z</time>
      </trkpt>
      <trkpt lat="46.11008626408875" lon="9.326527481898665">
        <ele>568.27999999999997</ele>
        <time>2013-05-23T11:39:12Z</time>
      </trkpt>
      <trkpt lat="46.110032619908452" lon="9.326556483283639">
        <ele>568.75999999999999</ele>
        <time>2013-05-23T11:39:23Z</time>
      </trkpt>
      <trkpt lat="46.110018454492092" lon="9.32661616243422">
        <ele>567.79999999999995</ele>
        <time>2013-05-23T11:39:29Z</time>
      </trkpt>
      <trkpt lat="46.109981071203947" lon="9.326786650344729">
        <ele>566.35000000000002</ele>
        <time>2013-05-23T11:39:44Z</time>
      </trkpt>
      <trkpt lat="46.109934719279408" lon="9.326935177668929">
        <ele>565.87</ele>
        <time>2013-05-23T11:39:57Z</time>
      </trkpt>
      <trkpt lat="46.109844110906124" lon="9.327034000307322">
        <ele>564.90999999999997</ele>
        <time>2013-05-23T11:40:10Z</time>
      </trkpt>
      <trkpt lat="46.109797172248363" lon="9.327124357223511">
        <ele>563.47000000000003</ele>
        <time>2013-05-23T11:40:24Z</time>
      </trkpt>
      <trkpt lat="46.109780743718147" lon="9.327192166820169">
        <ele>561.07000000000005</ele>
        <time>2013-05-23T11:40:37Z</time>
      </trkpt>
      <trkpt lat="46.109802620485425" lon="9.327284367755055">
        <ele>558.65999999999997</ele>
        <time>2013-05-23T11:40:48Z</time>
      </trkpt>
      <trkpt lat="46.109797675162554" lon="9.327392745763063">
        <ele>555.29999999999995</ele>
        <time>2013-05-23T11:41:01Z</time>
      </trkpt>
      <trkpt lat="46.109801195561886" lon="9.327543536201119">
        <ele>554.34000000000003</ele>
        <time>2013-05-23T11:41:17Z</time>
      </trkpt>
      <trkpt lat="46.109784264117479" lon="9.327705893665552">
        <ele>551.92999999999995</ele>
        <time>2013-05-23T11:41:33Z</time>
      </trkpt>
      <trkpt lat="46.109804632142186" lon="9.327760543674231">
        <ele>550.49000000000001</ele>
        <time>2013-05-23T11:41:38Z</time>
      </trkpt>
      <trkpt lat="46.109806643798947" lon="9.327892977744341">
        <ele>549.04999999999995</ele>
        <time>2013-05-23T11:41:49Z</time>
      </trkpt>
      <trkpt lat="46.109804967418313" lon="9.328067153692246">
        <ele>547.61000000000001</ele>
        <time>2013-05-23T11:42:03Z</time>
      </trkpt>
      <trkpt lat="46.109803123399615" lon="9.328086599707604">
        <ele>548.09000000000003</ele>
        <time>2013-05-23T11:42:04Z</time>
      </trkpt>
      <trkpt lat="46.109760208055377" lon="9.328313833102584">
        <ele>546.64999999999998</ele>
        <time>2013-05-23T11:42:19Z</time>
      </trkpt>
      <trkpt lat="46.109781330451369" lon="9.32848415337503">
        <ele>546.16999999999996</ele>
        <time>2013-05-23T11:42:32Z</time>
      </trkpt>
      <trkpt lat="46.109794322401285" lon="9.328513909131289">
        <ele>546.64999999999998</ele>
        <time>2013-05-23T11:42:34Z</time>
      </trkpt>
      <trkpt lat="46.109855510294437" lon="9.328726893290877">
        <ele>546.16999999999996</ele>
        <time>2013-05-23T11:42:49Z</time>
      </trkpt>
      <trkpt lat="46.109858695417643" lon="9.328906685113907">
        <ele>547.61000000000001</ele>
        <time>2013-05-23T11:43:03Z</time>
      </trkpt>
      <trkpt lat="46.109847966581583" lon="9.329002154991031">
        <ele>548.09000000000003</ele>
        <time>2013-05-23T11:43:10Z</time>
      </trkpt>
      <trkpt lat="46.109833801165223" lon="9.329110952094197">
        <ele>549.04999999999995</ele>
        <time>2013-05-23T11:43:18Z</time>
      </trkpt>
      <trkpt lat="46.109835309907794" lon="9.329309267923236">
        <ele>549.04999999999995</ele>
        <time>2013-05-23T11:43:32Z</time>
      </trkpt>
      <trkpt lat="46.109838830307126" lon="9.329319912940264">
        <ele>549.04999999999995</ele>
        <time>2013-05-23T11:43:33Z</time>
      </trkpt>
      <trkpt lat="46.109876129776239" lon="9.329543877393007">
        <ele>546.64999999999998</ele>
        <time>2013-05-23T11:43:49Z</time>
      </trkpt>
      <trkpt lat="46.10987956635654" lon="9.329780079424381">
        <ele>543.75999999999999</ele>
        <time>2013-05-23T11:44:05Z</time>
      </trkpt>
      <trkpt lat="46.109905298799276" lon="9.329850403591991">
        <ele>542.32000000000005</ele>
        <time>2013-05-23T11:44:12Z</time>
      </trkpt>
      <trkpt lat="46.109922649338841" lon="9.329897677525878">
        <ele>541.84000000000003</ele>
        <time>2013-05-23T11:44:15Z</time>
      </trkpt>
      <trkpt lat="46.109985848888755" lon="9.330140920355916">
        <ele>539.91999999999996</ele>
        <time>2013-05-23T11:44:31Z</time>
      </trkpt>
      <trkpt lat="46.109994482249022" lon="9.330169837921858">
        <ele>540.39999999999998</ele>
        <time>2013-05-23T11:44:33Z</time>
      </trkpt>
      <trkpt lat="46.110036643221974" lon="9.330294393002987">
        <ele>541.36000000000001</ele>
        <time>2013-05-23T11:44:44Z</time>
      </trkpt>
      <trkpt lat="46.110014263540506" lon="9.330432778224349">
        <ele>542.79999999999995</ele>
        <time>2013-05-23T11:44:56Z</time>
      </trkpt>
      <trkpt lat="46.110041504725814" lon="9.330618437379599">
        <ele>544.24000000000001</ele>
        <time>2013-05-23T11:45:09Z</time>
      </trkpt>
      <trkpt lat="46.110057681798935" lon="9.330678535625339">
        <ele>544.24000000000001</ele>
        <time>2013-05-23T11:45:14Z</time>
      </trkpt>
      <trkpt lat="46.110098334029317" lon="9.33077048510313">
        <ele>541.84000000000003</ele>
        <time>2013-05-23T11:45:23Z</time>
      </trkpt>
      <trkpt lat="46.110111158341169" lon="9.330785404890776">
        <ele>541.36000000000001</ele>
        <time>2013-05-23T11:45:25Z</time>
      </trkpt>
      <trkpt lat="46.110128173604608" lon="9.330813148990274">
        <ele>540.88</ele>
        <time>2013-05-23T11:45:27Z</time>
      </trkpt>
      <trkpt lat="46.110167652368546" lon="9.330993443727493">
        <ele>537.50999999999999</ele>
        <time>2013-05-23T11:45:40Z</time>
      </trkpt>
      <trkpt lat="46.110183326527476" lon="9.331074580550194">
        <ele>536.54999999999995</ele>
        <time>2013-05-23T11:45:45Z</time>
      </trkpt>
      <trkpt lat="46.110234456136823" lon="9.331162087619305">
        <ele>536.54999999999995</ele>
        <time>2013-05-23T11:45:52Z</time>
      </trkpt>
      <trkpt lat="46.110237138345838" lon="9.331229142844677">
        <ele>537.02999999999997</ele>
        <time>2013-05-23T11:46:05Z</time>
      </trkpt>
      <trkpt lat="46.110266894102097" lon="9.331337017938495">
        <ele>537.50999999999999</ele>
        <time>2013-05-23T11:46:26Z</time>
      </trkpt>
      <trkpt lat="46.110278125852346" lon="9.331409940496087">
        <ele>537.50999999999999</ele>
        <time>2013-05-23T11:46:32Z</time>
      </trkpt>
      <trkpt lat="46.110288938507438" lon="9.331550253555179">
        <ele>535.11000000000001</ele>
        <time>2013-05-23T11:46:46Z</time>
      </trkpt>
      <trkpt lat="46.110284747555852" lon="9.331557545810938">
        <ele>535.11000000000001</ele>
        <time>2013-05-23T11:46:55Z</time>
      </trkpt>
      <trkpt lat="46.110333194956183" lon="9.331650082021952">
        <ele>534.63</ele>
        <time>2013-05-23T11:47:02Z</time>
      </trkpt>
      <trkpt lat="46.110368650406599" lon="9.331730799749494">
        <ele>532.71000000000004</ele>
        <time>2013-05-23T11:47:08Z</time>
      </trkpt>
      <trkpt lat="46.110384911298752" lon="9.331749910488725">
        <ele>532.23000000000002</ele>
        <time>2013-05-23T11:47:10Z</time>
      </trkpt>
      <trkpt lat="46.110450709238648" lon="9.331928864121437">
        <ele>528.86000000000001</ele>
        <time>2013-05-23T11:47:24Z</time>
      </trkpt>
      <trkpt lat="46.110584065318108" lon="9.332091053947806">
        <ele>526.46000000000004</ele>
        <time>2013-05-23T11:47:38Z</time>
      </trkpt>
      <trkpt lat="46.110614240169525" lon="9.332135980948806">
        <ele>525.5</ele>
        <time>2013-05-23T11:47:43Z</time>
      </trkpt>
      <trkpt lat="46.110700070858002" lon="9.332352066412568">
        <ele>523.09000000000003</ele>
        <time>2013-05-23T11:47:58Z</time>
      </trkpt>
      <trkpt lat="46.110746506601572" lon="9.332429096102715">
        <ele>522.13</ele>
        <time>2013-05-23T11:48:04Z</time>
      </trkpt>
      <trkpt lat="46.110836612060666" lon="9.332480560988188">
        <ele>518.28999999999996</ele>
        <time>2013-05-23T11:48:14Z</time>
      </trkpt>
      <trkpt lat="46.110866870731115" lon="9.332577791064978">
        <ele>517.80999999999995</ele>
        <time>2013-05-23T11:48:20Z</time>
      </trkpt>
      <trkpt lat="46.110956892371178" lon="9.332744674757123">
        <ele>517.33000000000004</ele>
        <time>2013-05-23T11:48:34Z</time>
      </trkpt>
      <trkpt lat="46.110985558480024" lon="9.332903260365129">
        <ele>520.21000000000004</ele>
        <time>2013-05-23T11:48:47Z</time>
      </trkpt>
      <trkpt lat="46.111016068607569" lon="9.333020690828562">
        <ele>521.64999999999998</ele>
        <time>2013-05-23T11:48:56Z</time>
      </trkpt>
      <trkpt lat="46.111045572906733" lon="9.333239123225212">
        <ele>519.25</ele>
        <time>2013-05-23T11:49:09Z</time>
      </trkpt>
      <trkpt lat="46.111061163246632" lon="9.333277428522706">
        <ele>519.25</ele>
        <time>2013-05-23T11:49:12Z</time>
      </trkpt>
      <trkpt lat="46.111126709729433" lon="9.333417573943734">
        <ele>521.16999999999996</ele>
        <time>2013-05-23T11:49:26Z</time>
      </trkpt>
      <trkpt lat="46.111143305897713" lon="9.333476414903998">
        <ele>522.13</ele>
        <time>2013-05-23T11:49:31Z</time>
      </trkpt>
      <trkpt lat="46.111158644780517" lon="9.333493765443564">
        <ele>522.61000000000001</ele>
        <time>2013-05-23T11:49:33Z</time>
      </trkpt>
      <trkpt lat="46.111164931207895" lon="9.333497621119022">
        <ele>523.09000000000003</ele>
        <time>2013-05-23T11:49:34Z</time>
      </trkpt>
      <trkpt lat="46.111183874309063" lon="9.333516396582127">
        <ele>522.61000000000001</ele>
        <time>2013-05-23T11:49:37Z</time>
      </trkpt>
      <trkpt lat="46.111251767724752" lon="9.333610106259584">
        <ele>523.58000000000004</ele>
        <time>2013-05-23T11:49:46Z</time>
      </trkpt>
      <trkpt lat="46.111354529857635" lon="9.333726614713669">
        <ele>523.58000000000004</ele>
        <time>2013-05-23T11:50:00Z</time>
      </trkpt>
      <trkpt lat="46.111389147117734" lon="9.333873968571425">
        <ele>524.53999999999996</ele>
        <time>2013-05-23T11:50:14Z</time>
      </trkpt>
      <trkpt lat="46.111436672508717" lon="9.333974635228515">
        <ele>526.94000000000005</ele>
        <time>2013-05-23T11:50:28Z</time>
      </trkpt>
      <trkpt lat="46.111494759097695" lon="9.334097346290946">
        <ele>529.82000000000005</ele>
        <time>2013-05-23T11:50:43Z</time>
      </trkpt>
      <trkpt lat="46.111561227589846" lon="9.334218380972743">
        <ele>531.75</ele>
        <time>2013-05-23T11:50:56Z</time>
      </trkpt>
      <trkpt lat="46.111617721617222" lon="9.334381995722652">
        <ele>532.71000000000004</ele>
        <time>2013-05-23T11:51:11Z</time>
      </trkpt>
      <trkpt lat="46.111641358584166" lon="9.334443854168057">
        <ele>533.19000000000005</ele>
        <time>2013-05-23T11:51:19Z</time>
      </trkpt>
      <trkpt lat="46.111657368019223" lon="9.334468832239509">
        <ele>533.19000000000005</ele>
        <time>2013-05-23T11:51:22Z</time>
      </trkpt>
      <trkpt lat="46.111745713278651" lon="9.334666142240167">
        <ele>535.11000000000001</ele>
        <time>2013-05-23T11:51:39Z</time>
      </trkpt>
      <trkpt lat="46.111772954463959" lon="9.334762450307608">
        <ele>537.50999999999999</ele>
        <time>2013-05-23T11:51:51Z</time>
      </trkpt>
      <trkpt lat="46.111807990819216" lon="9.33483830653131">
        <ele>538.96000000000004</ele>
        <time>2013-05-23T11:52:02Z</time>
      </trkpt>
      <trkpt lat="46.111861299723387" lon="9.334967639297247">
        <ele>541.36000000000001</ele>
        <time>2013-05-23T11:52:16Z</time>
      </trkpt>
      <trkpt lat="46.111885523423553" lon="9.335013488307595">
        <ele>541.84000000000003</ele>
        <time>2013-05-23T11:52:21Z</time>
      </trkpt>
      <trkpt lat="46.111898431554437" lon="9.33504106476903">
        <ele>541.84000000000003</ele>
        <time>2013-05-23T11:52:23Z</time>
      </trkpt>
      <trkpt lat="46.111916368827224" lon="9.335194285959005">
        <ele>542.32000000000005</ele>
        <time>2013-05-23T11:52:35Z</time>
      </trkpt>
      <trkpt lat="46.111938413232565" lon="9.33527366258204">
        <ele>543.75999999999999</ele>
        <time>2013-05-23T11:52:42Z</time>
      </trkpt>
      <trkpt lat="46.11197873018682" lon="9.335466446354985">
        <ele>542.79999999999995</ele>
        <time>2013-05-23T11:52:56Z</time>
      </trkpt>
      <trkpt lat="46.112003456801176" lon="9.335515396669507">
        <ele>542.32000000000005</ele>
        <time>2013-05-23T11:53:00Z</time>
      </trkpt>
      <trkpt lat="46.11207939684391" lon="9.335617320612073">
        <ele>542.79999999999995</ele>
        <time>2013-05-23T11:53:12Z</time>
      </trkpt>
      <trkpt lat="46.112096076831222" lon="9.335634168237448">
        <ele>543.75999999999999</ele>
        <time>2013-05-23T11:53:16Z</time>
      </trkpt>
      <trkpt lat="46.112165059894323" lon="9.335668031126261">
        <ele>545.69000000000005</ele>
        <time>2013-05-23T11:53:27Z</time>
      </trkpt>
      <trkpt lat="46.112230019643903" lon="9.33571882545948">
        <ele>545.69000000000005</ele>
        <time>2013-05-23T11:53:36Z</time>
      </trkpt>
      <trkpt lat="46.112290034070611" lon="9.335865676403046">
        <ele>546.64999999999998</ele>
        <time>2013-05-23T11:53:48Z</time>
      </trkpt>
      <trkpt lat="46.11228902824223" lon="9.335883278399706">
        <ele>546.64999999999998</ele>
        <time>2013-05-23T11:53:49Z</time>
      </trkpt>
      <trkpt lat="46.112291039898992" lon="9.335986040532589">
        <ele>547.13</ele>
        <time>2013-05-23T11:53:57Z</time>
      </trkpt>
      <trkpt lat="46.112348539754748" lon="9.336181338876486">
        <ele>546.64999999999998</ele>
        <time>2013-05-23T11:54:10Z</time>
      </trkpt>
      <trkpt lat="46.112353904172778" lon="9.336196007207036">
        <ele>546.64999999999998</ele>
        <time>2013-05-23T11:54:11Z</time>
      </trkpt>
      <trkpt lat="46.112360442057252" lon="9.33622308075428">
        <ele>547.13</ele>
        <time>2013-05-23T11:54:13Z</time>
      </trkpt>
      <trkpt lat="46.112377205863595" lon="9.336265996098518">
        <ele>547.13</ele>
        <time>2013-05-23T11:54:16Z</time>
      </trkpt>
      <trkpt lat="46.112509975209832" lon="9.336426258087158">
        <ele>548.09000000000003</ele>
        <time>2013-05-23T11:54:30Z</time>
      </trkpt>
      <trkpt lat="46.11254015006125" lon="9.336499515920878">
        <ele>549.52999999999997</ele>
        <time>2013-05-23T11:54:38Z</time>
      </trkpt>
      <trkpt lat="46.112565798684955" lon="9.336599009111524">
        <ele>551.45000000000005</ele>
        <time>2013-05-23T11:54:50Z</time>
      </trkpt>
      <trkpt lat="46.112594045698643" lon="9.336741836741567">
        <ele>552.40999999999997</ele>
        <time>2013-05-23T11:55:01Z</time>
      </trkpt>
      <trkpt lat="46.112658418715" lon="9.336916515603662">
        <ele>552.40999999999997</ele>
        <time>2013-05-23T11:55:14Z</time>
      </trkpt>
      <trkpt lat="46.112685911357403" lon="9.336956916376948">
        <ele>553.38</ele>
        <time>2013-05-23T11:55:25Z</time>
      </trkpt>
      <trkpt lat="46.112702926620841" lon="9.336924394592643">
        <ele>555.29999999999995</ele>
        <time>2013-05-23T11:55:33Z</time>
      </trkpt>
      <trkpt lat="46.112763779237866" lon="9.336958341300488">
        <ele>558.17999999999995</ele>
        <time>2013-05-23T11:55:40Z</time>
      </trkpt>
      <trkpt lat="46.112773837521672" lon="9.336990108713508">
        <ele>558.65999999999997</ele>
        <time>2013-05-23T11:55:44Z</time>
      </trkpt>
      <trkpt lat="46.112785739824176" lon="9.337008045986295">
        <ele>559.13999999999999</ele>
        <time>2013-05-23T11:55:46Z</time>
      </trkpt>
      <trkpt lat="46.112828152254224" lon="9.337036544457078">
        <ele>559.13999999999999</ele>
        <time>2013-05-23T11:55:52Z</time>
      </trkpt>
      <trkpt lat="46.112865870818496" lon="9.337052050977945">
        <ele>559.62</ele>
        <time>2013-05-23T11:55:57Z</time>
      </trkpt>
      <trkpt lat="46.112883137539029" lon="9.337069317698479">
        <ele>558.65999999999997</ele>
        <time>2013-05-23T11:56:12Z</time>
      </trkpt>
      <trkpt lat="46.112849693745375" lon="9.337083902209997">
        <ele>558.65999999999997</ele>
        <time>2013-05-23T11:56:40Z</time>
      </trkpt>
      <trkpt lat="46.112868133932352" lon="9.337058588862419">
        <ele>558.17999999999995</ele>
        <time>2013-05-23T11:56:55Z</time>
      </trkpt>
      <trkpt lat="46.112840054556727" lon="9.337068228051066">
        <ele>559.13999999999999</ele>
        <time>2013-05-23T11:57:00Z</time>
      </trkpt>
      <trkpt lat="46.112810801714659" lon="9.337027156725526">
        <ele>559.13999999999999</ele>
        <time>2013-05-23T11:57:13Z</time>
      </trkpt>
      <trkpt lat="46.112833013758063" lon="9.337030844762921">
        <ele>558.65999999999997</ele>
        <time>2013-05-23T11:57:46Z</time>
      </trkpt>
      <trkpt lat="46.112819099798799" lon="9.337057247757912">
        <ele>559.13999999999999</ele>
        <time>2013-05-23T11:58:03Z</time>
      </trkpt>
      <trkpt lat="46.11280987970531" lon="9.337082644924521">
        <ele>559.13999999999999</ele>
        <time>2013-05-23T11:58:26Z</time>
      </trkpt>
      <trkpt lat="46.112816920503974" lon="9.337068311870098">
        <ele>559.13999999999999</ele>
        <time>2013-05-23T11:58:50Z</time>
      </trkpt>
      <trkpt lat="46.11284801736474" lon="9.337054817005992">
        <ele>559.62</ele>
        <time>2013-05-23T11:59:03Z</time>
      </trkpt>
      <trkpt lat="46.112857237458229" lon="9.337061690166593">
        <ele>559.62</ele>
        <time>2013-05-23T11:59:17Z</time>
      </trkpt>
      <trkpt lat="46.112893279641867" lon="9.33709966018796">
        <ele>558.65999999999997</ele>
        <time>2013-05-23T11:59:35Z</time>
      </trkpt>
      <trkpt lat="46.112896548584104" lon="9.33714953251183">
        <ele>556.74000000000001</ele>
        <time>2013-05-23T11:59:49Z</time>
      </trkpt>
      <trkpt lat="46.112908450886607" lon="9.337176606059074">
        <ele>555.77999999999997</ele>
        <time>2013-05-23T12:00:02Z</time>
      </trkpt>
      <trkpt lat="46.112925047054887" lon="9.337250618264079">
        <ele>553.38</ele>
        <time>2013-05-23T12:00:09Z</time>
      </trkpt>
      <trkpt lat="46.112876934930682" lon="9.337380034849048">
        <ele>551.92999999999995</ele>
        <time>2013-05-23T12:00:20Z</time>
      </trkpt>
      <trkpt lat="46.112884478643537" lon="9.33738749474287">
        <ele>552.40999999999997</ele>
        <time>2013-05-23T12:00:32Z</time>
      </trkpt>
      <trkpt lat="46.112883975729346" lon="9.337336951866746">
        <ele>551.92999999999995</ele>
        <time>2013-05-23T12:00:56Z</time>
      </trkpt>
      <trkpt lat="46.11289395019412" lon="9.337427392601967">
        <ele>552.40999999999997</ele>
        <time>2013-05-23T12:01:08Z</time>
      </trkpt>
      <trkpt lat="46.112911468371749" lon="9.337443569675088">
        <ele>552.40999999999997</ele>
        <time>2013-05-23T12:01:10Z</time>
      </trkpt>
      <trkpt lat="46.112959245219827" lon="9.337517162784934">
        <ele>552.40999999999997</ele>
        <time>2013-05-23T12:01:17Z</time>
      </trkpt>
      <trkpt lat="46.11299411393702" lon="9.337538285180926">
        <ele>552.40999999999997</ele>
        <time>2013-05-23T12:01:20Z</time>
      </trkpt>
      <trkpt lat="46.113054631277919" lon="9.337636856362224">
        <ele>552.40999999999997</ele>
        <time>2013-05-23T12:01:34Z</time>
      </trkpt>
      <trkpt lat="46.113042226061225" lon="9.337736684828997">
        <ele>551.92999999999995</ele>
        <time>2013-05-23T12:01:44Z</time>
      </trkpt>
      <trkpt lat="46.113091930747032" lon="9.337848415598273">
        <ele>551.45000000000005</ele>
        <time>2013-05-23T12:01:57Z</time>
      </trkpt>
      <trkpt lat="46.113044572994113" lon="9.337861994281411">
        <ele>551.92999999999995</ele>
        <time>2013-05-23T12:02:10Z</time>
      </trkpt>
      <trkpt lat="46.113115986809134" lon="9.337967690080404">
        <ele>550.49000000000001</ele>
        <time>2013-05-23T12:02:25Z</time>
      </trkpt>
      <trkpt lat="46.113155214115977" lon="9.338302547112107">
        <ele>550.49000000000001</ele>
        <time>2013-05-23T12:02:51Z</time>
      </trkpt>
      <trkpt lat="46.113195195794106" lon="9.338652323931456">
        <ele>551.92999999999995</ele>
        <time>2013-05-23T12:03:18Z</time>
      </trkpt>
      <trkpt lat="46.113189328461885" lon="9.338916353881359">
        <ele>551.45000000000005</ele>
        <time>2013-05-23T12:03:37Z</time>
      </trkpt>
      <trkpt lat="46.113150771707296" lon="9.338978715240955">
        <ele>551.45000000000005</ele>
        <time>2013-05-23T12:03:42Z</time>
      </trkpt>
      <trkpt lat="46.113116405904293" lon="9.339198740199208">
        <ele>552.40999999999997</ele>
        <time>2013-05-23T12:03:58Z</time>
      </trkpt>
      <trkpt lat="46.113072652369738" lon="9.339399235323072">
        <ele>553.86000000000001</ele>
        <time>2013-05-23T12:04:12Z</time>
      </trkpt>
      <trkpt lat="46.113013811409473" lon="9.339608363807201">
        <ele>554.82000000000005</ele>
        <time>2013-05-23T12:04:26Z</time>
      </trkpt>
      <trkpt lat="46.112965196371078" lon="9.339767703786492">
        <ele>556.25999999999999</ele>
        <time>2013-05-23T12:04:40Z</time>
      </trkpt>
      <trkpt lat="46.112939715385437" lon="9.339849259704351">
        <ele>557.22000000000003</ele>
        <time>2013-05-23T12:04:52Z</time>
      </trkpt>
      <trkpt lat="46.112930998206139" lon="9.339908938854933">
        <ele>557.70000000000005</ele>
        <time>2013-05-23T12:04:57Z</time>
      </trkpt>
      <trkpt lat="46.112904343754053" lon="9.340092418715358">
        <ele>558.17999999999995</ele>
        <time>2013-05-23T12:05:12Z</time>
      </trkpt>
      <trkpt lat="46.112837875261903" lon="9.340202473104">
        <ele>561.54999999999995</ele>
        <time>2013-05-23T12:05:27Z</time>
      </trkpt>
      <trkpt lat="46.112761432304978" lon="9.340307582169771">
        <ele>563.95000000000005</ele>
        <time>2013-05-23T12:05:41Z</time>
      </trkpt>
      <trkpt lat="46.112753553315997" lon="9.340316215530038">
        <ele>563.95000000000005</ele>
        <time>2013-05-23T12:05:42Z</time>
      </trkpt>
      <trkpt lat="46.112704100087285" lon="9.340410595759749">
        <ele>565.38999999999999</ele>
        <time>2013-05-23T12:05:56Z</time>
      </trkpt>
      <trkpt lat="46.112708039581776" lon="9.3405288644135">
        <ele>567.32000000000005</ele>
        <time>2013-05-23T12:06:12Z</time>
      </trkpt>
      <trkpt lat="46.112645426765084" lon="9.340607654303312">
        <ele>569.72000000000003</ele>
        <time>2013-05-23T12:06:27Z</time>
      </trkpt>
      <trkpt lat="46.112556327134371" lon="9.340667752549052">
        <ele>571.15999999999997</ele>
        <time>2013-05-23T12:06:37Z</time>
      </trkpt>
      <trkpt lat="46.112461360171437" lon="9.340747632086277">
        <ele>573.55999999999995</ele>
        <time>2013-05-23T12:06:50Z</time>
      </trkpt>
      <trkpt lat="46.112392963841558" lon="9.340816950425506">
        <ele>575.49000000000001</ele>
        <time>2013-05-23T12:07:02Z</time>
      </trkpt>
      <trkpt lat="46.112362118437886" lon="9.340886101126671">
        <ele>577.40999999999997</ele>
        <time>2013-05-23T12:07:15Z</time>
      </trkpt>
      <trkpt lat="46.112334709614515" lon="9.340955335646868">
        <ele>579.80999999999995</ele>
        <time>2013-05-23T12:07:31Z</time>
      </trkpt>
      <trkpt lat="46.112283747643232" lon="9.340987103059888">
        <ele>581.73000000000002</ele>
        <time>2013-05-23T12:07:44Z</time>
      </trkpt>
      <trkpt lat="46.112233120948076" lon="9.341054745018482">
        <ele>583.65999999999997</ele>
        <time>2013-05-23T12:07:59Z</time>
      </trkpt>
      <trkpt lat="46.112131364643574" lon="9.341101264581084">
        <ele>585.10000000000002</ele>
        <time>2013-05-23T12:08:12Z</time>
      </trkpt>
      <trkpt lat="46.112068081274629" lon="9.341141749173403">
        <ele>587.01999999999998</ele>
        <time>2013-05-23T12:08:23Z</time>
      </trkpt>
      <trkpt lat="46.112024495378137" lon="9.3412144202739">
        <ele>588.46000000000004</ele>
        <time>2013-05-23T12:08:35Z</time>
      </trkpt>
      <trkpt lat="46.112007899209857" lon="9.341243840754032">
        <ele>588.95000000000005</ele>
        <time>2013-05-23T12:08:37Z</time>
      </trkpt>
      <trkpt lat="46.111900610849261" lon="9.341332688927651">
        <ele>590.87</ele>
        <time>2013-05-23T12:08:53Z</time>
      </trkpt>
      <trkpt lat="46.111822910606861" lon="9.341387674212456">
        <ele>592.78999999999996</ele>
        <time>2013-05-23T12:09:06Z</time>
      </trkpt>
      <trkpt lat="46.111733727157116" lon="9.341428829357028">
        <ele>594.71000000000004</ele>
        <time>2013-05-23T12:09:19Z</time>
      </trkpt>
      <trkpt lat="46.111678574234247" lon="9.341459590941668">
        <ele>596.14999999999998</ele>
        <time>2013-05-23T12:09:27Z</time>
      </trkpt>
      <trkpt lat="46.111566759645939" lon="9.341506529599428">
        <ele>598.08000000000004</ele>
        <time>2013-05-23T12:09:42Z</time>
      </trkpt>
      <trkpt lat="46.111519318073988" lon="9.341483060270548">
        <ele>597.60000000000002</ele>
        <time>2013-05-23T12:09:48Z</time>
      </trkpt>
      <trkpt lat="46.111495681107044" lon="9.341466212645173">
        <ele>597.60000000000002</ele>
        <time>2013-05-23T12:09:50Z</time>
      </trkpt>
      <trkpt lat="46.11148034222424" lon="9.341444838792086">
        <ele>597.60000000000002</ele>
        <time>2013-05-23T12:09:52Z</time>
      </trkpt>
      <trkpt lat="46.111352350562811" lon="9.341360181570053">
        <ele>599.03999999999996</ele>
        <time>2013-05-23T12:10:08Z</time>
      </trkpt>
      <trkpt lat="46.111350171267986" lon="9.341423967853189">
        <ele>602.39999999999998</ele>
        <time>2013-05-23T12:10:22Z</time>
      </trkpt>
      <trkpt lat="46.111358720809221" lon="9.341497058048844">
        <ele>604.33000000000004</ele>
        <time>2013-05-23T12:10:39Z</time>
      </trkpt>
      <trkpt lat="46.111328797414899" lon="9.341476941481233">
        <ele>606.25</ele>
        <time>2013-05-23T12:10:58Z</time>
      </trkpt>
      <trkpt lat="46.111370623111725" lon="9.341507367789745">
        <ele>607.69000000000005</ele>
        <time>2013-05-23T12:11:10Z</time>
      </trkpt>
      <trkpt lat="46.111421417444944" lon="9.341583978384733">
        <ele>610.57000000000005</ele>
        <time>2013-05-23T12:11:23Z</time>
      </trkpt>
      <trkpt lat="46.111375819891691" lon="9.341710964217782">
        <ele>612.5</ele>
        <time>2013-05-23T12:11:37Z</time>
      </trkpt>
      <trkpt lat="46.111346902325749" lon="9.341830406337977">
        <ele>612.98000000000002</ele>
        <time>2013-05-23T12:11:49Z</time>
      </trkpt>
      <trkpt lat="46.11131857149303" lon="9.341997290030122">
        <ele>615.86000000000001</ele>
        <time>2013-05-23T12:12:04Z</time>
      </trkpt>
      <trkpt lat="46.111223269253969" lon="9.342118743807077">
        <ele>616.34000000000003</ele>
        <time>2013-05-23T12:12:18Z</time>
      </trkpt>
      <trkpt lat="46.111153364181519" lon="9.342124275863171">
        <ele>616.82000000000005</ele>
        <time>2013-05-23T12:12:30Z</time>
      </trkpt>
      <trkpt lat="46.111037023365498" lon="9.342160485684872">
        <ele>617.77999999999997</ele>
        <time>2013-05-23T12:12:44Z</time>
      </trkpt>
      <trkpt lat="46.110925795510411" lon="9.342217398807406">
        <ele>619.23000000000002</ele>
        <time>2013-05-23T12:12:57Z</time>
      </trkpt>
      <trkpt lat="46.11088908277452" lon="9.342259475961328">
        <ele>620.66999999999996</ele>
        <time>2013-05-23T12:13:02Z</time>
      </trkpt>
      <trkpt lat="46.110845832154155" lon="9.34241252951324">
        <ele>620.19000000000005</ele>
        <time>2013-05-23T12:13:15Z</time>
      </trkpt>
      <trkpt lat="46.110782381147146" lon="9.342575222253799">
        <ele>619.23000000000002</ele>
        <time>2013-05-23T12:13:31Z</time>
      </trkpt>
      <trkpt lat="46.110748266801238" lon="9.342759875580668">
        <ele>619.23000000000002</ele>
        <time>2013-05-23T12:13:45Z</time>
      </trkpt>
      <trkpt lat="46.11072882078588" lon="9.342936398461461">
        <ele>621.14999999999998</ele>
        <time>2013-05-23T12:14:00Z</time>
      </trkpt>
      <trkpt lat="46.110727144405246" lon="9.342952240258455">
        <ele>621.63</ele>
        <time>2013-05-23T12:14:11Z</time>
      </trkpt>
      <trkpt lat="46.110730580985546" lon="9.343005213886499">
        <ele>621.14999999999998</ele>
        <time>2013-05-23T12:14:16Z</time>
      </trkpt>
      <trkpt lat="46.110741226002574" lon="9.343025917187333">
        <ele>619.71000000000004</ele>
        <time>2013-05-23T12:14:19Z</time>
      </trkpt>
      <trkpt lat="46.110736113041639" lon="9.343062629923224">
        <ele>619.23000000000002</ele>
        <time>2013-05-23T12:14:23Z</time>
      </trkpt>
      <trkpt lat="46.110669476911426" lon="9.343260191380978">
        <ele>617.77999999999997</ele>
        <time>2013-05-23T12:14:38Z</time>
      </trkpt>
      <trkpt lat="46.110686659812927" lon="9.343371922150254">
        <ele>617.77999999999997</ele>
        <time>2013-05-23T12:14:54Z</time>
      </trkpt>
      <trkpt lat="46.11063745804131" lon="9.343582727015019">
        <ele>616.82000000000005</ele>
        <time>2013-05-23T12:15:11Z</time>
      </trkpt>
      <trkpt lat="46.110613401979208" lon="9.343707282096148">
        <ele>616.34000000000003</ele>
        <time>2013-05-23T12:15:22Z</time>
      </trkpt>
      <trkpt lat="46.110630249604583" lon="9.343908783048391">
        <ele>616.82000000000005</ele>
        <time>2013-05-23T12:15:35Z</time>
      </trkpt>
      <trkpt lat="46.110628070309758" lon="9.344048425555229">
        <ele>617.77999999999997</ele>
        <time>2013-05-23T12:15:50Z</time>
      </trkpt>
      <trkpt lat="46.110608372837305" lon="9.344118246808648">
        <ele>617.77999999999997</ele>
        <time>2013-05-23T12:16:02Z</time>
      </trkpt>
      <trkpt lat="46.11057735979557" lon="9.344234000891447">
        <ele>617.77999999999997</ele>
        <time>2013-05-23T12:16:14Z</time>
      </trkpt>
      <trkpt lat="46.110477447509766" lon="9.344445141032338">
        <ele>617.77999999999997</ele>
        <time>2013-05-23T12:16:30Z</time>
      </trkpt>
      <trkpt lat="46.110467808321118" lon="9.344575144350529">
        <ele>620.19000000000005</ele>
        <time>2013-05-23T12:16:44Z</time>
      </trkpt>
      <trkpt lat="46.110483482480049" lon="9.344729287549853">
        <ele>620.66999999999996</ele>
        <time>2013-05-23T12:16:58Z</time>
      </trkpt>
      <trkpt lat="46.110456073656678" lon="9.344909079372883">
        <ele>621.63</ele>
        <time>2013-05-23T12:17:12Z</time>
      </trkpt>
      <trkpt lat="46.110459342598915" lon="9.345067413523793">
        <ele>623.07000000000005</ele>
        <time>2013-05-23T12:17:26Z</time>
      </trkpt>
      <trkpt lat="46.110424557700753" lon="9.345206469297409">
        <ele>624.99000000000001</ele>
        <time>2013-05-23T12:17:40Z</time>
      </trkpt>
      <trkpt lat="46.110406620427966" lon="9.345335969701409">
        <ele>626.44000000000005</ele>
        <time>2013-05-23T12:17:51Z</time>
      </trkpt>
      <trkpt lat="46.110379714518785" lon="9.34540344402194">
        <ele>626.44000000000005</ele>
        <time>2013-05-23T12:18:04Z</time>
      </trkpt>
      <trkpt lat="46.110379379242659" lon="9.345541829243302">
        <ele>626.91999999999996</ele>
        <time>2013-05-23T12:18:18Z</time>
      </trkpt>
      <trkpt lat="46.110382648184896" lon="9.345550294965506">
        <ele>626.91999999999996</ele>
        <time>2013-05-23T12:18:19Z</time>
      </trkpt>
      <trkpt lat="46.110349372029305" lon="9.345690775662661">
        <ele>628.36000000000001</ele>
        <time>2013-05-23T12:18:33Z</time>
      </trkpt>
      <trkpt lat="46.110307043418288" lon="9.345835028216243">
        <ele>630.75999999999999</ele>
        <time>2013-05-23T12:18:46Z</time>
      </trkpt>
      <trkpt lat="46.11028416082263" lon="9.345881715416908">
        <ele>632.20000000000005</ele>
        <time>2013-05-23T12:18:56Z</time>
      </trkpt>
      <trkpt lat="46.110281310975552" lon="9.345907950773835">
        <ele>631.72000000000003</ele>
        <time>2013-05-23T12:19:12Z</time>
      </trkpt>
      <trkpt lat="46.110288267955184" lon="9.345874423161149">
        <ele>631.24000000000001</ele>
        <time>2013-05-23T12:19:37Z</time>
      </trkpt>
      <trkpt lat="46.110330177471042" lon="9.345884900540113">
        <ele>632.20000000000005</ele>
        <time>2013-05-23T12:20:11Z</time>
      </trkpt>
      <trkpt lat="46.110309222713113" lon="9.345873249694705">
        <ele>632.20000000000005</ele>
        <time>2013-05-23T12:20:26Z</time>
      </trkpt>
      <trkpt lat="46.110294135287404" lon="9.345920858904719">
        <ele>632.20000000000005</ele>
        <time>2013-05-23T12:20:41Z</time>
      </trkpt>
      <trkpt lat="46.110299834981561" lon="9.345922200009227">
        <ele>632.67999999999995</ele>
        <time>2013-05-23T12:21:06Z</time>
      </trkpt>
      <trkpt lat="46.110277036204934" lon="9.345940640196204">
        <ele>633.16999999999996</ele>
        <time>2013-05-23T12:21:25Z</time>
      </trkpt>
      <trkpt lat="46.110250381752849" lon="9.345929492264986">
        <ele>632.67999999999995</ele>
        <time>2013-05-23T12:21:51Z</time>
      </trkpt>
      <trkpt lat="46.11025339923799" lon="9.345893952995539">
        <ele>632.20000000000005</ele>
        <time>2013-05-23T12:22:12Z</time>
      </trkpt>
      <trkpt lat="46.110294973477721" lon="9.345864532515407">
        <ele>632.67999999999995</ele>
        <time>2013-05-23T12:22:35Z</time>
      </trkpt>
      <trkpt lat="46.110315257683396" lon="9.345895210281014">
        <ele>632.67999999999995</ele>
        <time>2013-05-23T12:22:52Z</time>
      </trkpt>
      <trkpt lat="46.11027485691011" lon="9.34591306373477">
        <ele>632.67999999999995</ele>
        <time>2013-05-23T12:23:08Z</time>
      </trkpt>
      <trkpt lat="46.110259098932147" lon="9.345896216109395">
        <ele>632.67999999999995</ele>
        <time>2013-05-23T12:23:30Z</time>
      </trkpt>
      <trkpt lat="46.110244933515787" lon="9.345882805064321">
        <ele>632.67999999999995</ele>
        <time>2013-05-23T12:23:50Z</time>
      </trkpt>
      <trkpt lat="46.110230935737491" lon="9.345896299928427">
        <ele>632.67999999999995</ele>
        <time>2013-05-23T12:24:16Z</time>
      </trkpt>
      <trkpt lat="46.110263373702765" lon="9.345938377082348">
        <ele>632.67999999999995</ele>
        <time>2013-05-23T12:24:42Z</time>
      </trkpt>
      <trkpt lat="46.110301343724132" lon="9.346019430086017">
        <ele>631.72000000000003</ele>
        <time>2013-05-23T12:25:03Z</time>
      </trkpt>
      <trkpt lat="46.110256584361196" lon="9.346151109784842">
        <ele>631.24000000000001</ele>
        <time>2013-05-23T12:25:18Z</time>
      </trkpt>
      <trkpt lat="46.110229175537825" lon="9.34624238871038">
        <ele>630.75999999999999</ele>
        <time>2013-05-23T12:25:25Z</time>
      </trkpt>
      <trkpt lat="46.110262954607606" lon="9.34641832485795">
        <ele>630.75999999999999</ele>
        <time>2013-05-23T12:25:38Z</time>
      </trkpt>
      <trkpt lat="46.110354317352176" lon="9.346522260457277">
        <ele>629.79999999999995</ele>
        <time>2013-05-23T12:25:47Z</time>
      </trkpt>
      <trkpt lat="46.110396143049002" lon="9.346590070053935">
        <ele>629.32000000000005</ele>
        <time>2013-05-23T12:25:52Z</time>
      </trkpt>
      <trkpt lat="46.110442075878382" lon="9.34673834592104">
        <ele>628.36000000000001</ele>
        <time>2013-05-23T12:26:03Z</time>
      </trkpt>
      <trkpt lat="46.110463282093406" lon="9.346817554906011">
        <ele>626.91999999999996</ele>
        <time>2013-05-23T12:26:15Z</time>
      </trkpt>
      <trkpt lat="46.110488176345825" lon="9.346909588202834">
        <ele>625.47000000000003</ele>
        <time>2013-05-23T12:26:27Z</time>
      </trkpt>
      <trkpt lat="46.110510975122452" lon="9.346997514367104">
        <ele>624.50999999999999</ele>
        <time>2013-05-23T12:26:33Z</time>
      </trkpt>
      <trkpt lat="46.110601415857673" lon="9.347252324223518">
        <ele>622.59000000000003</ele>
        <time>2013-05-23T12:26:50Z</time>
      </trkpt>
      <trkpt lat="46.110596302896738" lon="9.347339496016502">
        <ele>621.14999999999998</ele>
        <time>2013-05-23T12:26:56Z</time>
      </trkpt>
      <trkpt lat="46.110621616244316" lon="9.347508056089282">
        <ele>619.23000000000002</ele>
        <time>2013-05-23T12:27:10Z</time>
      </trkpt>
      <trkpt lat="46.110643409192562" lon="9.347556671127677">
        <ele>618.75</ele>
        <time>2013-05-23T12:27:13Z</time>
      </trkpt>
      <trkpt lat="46.110693700611591" lon="9.347780384123325">
        <ele>616.34000000000003</ele>
        <time>2013-05-23T12:27:25Z</time>
      </trkpt>
      <trkpt lat="46.110678026452661" lon="9.347751718014479">
        <ele>616.82000000000005</ele>
        <time>2013-05-23T12:27:40Z</time>
      </trkpt>
      <trkpt lat="46.110690180212259" lon="9.347796309739351">
        <ele>616.82000000000005</ele>
        <time>2013-05-23T12:27:54Z</time>
      </trkpt>
      <trkpt lat="46.110709458589554" lon="9.348030081018806">
        <ele>614.41999999999996</ele>
        <time>2013-05-23T12:28:07Z</time>
      </trkpt>
      <trkpt lat="46.110722534358501" lon="9.348099315539002">
        <ele>613.94000000000005</ele>
        <time>2013-05-23T12:28:18Z</time>
      </trkpt>
      <trkpt lat="46.110720606520772" lon="9.348219763487577">
        <ele>613.46000000000004</ele>
        <time>2013-05-23T12:28:25Z</time>
      </trkpt>
      <trkpt lat="46.110735274851322" lon="9.348260415717959">
        <ele>613.46000000000004</ele>
        <time>2013-05-23T12:28:28Z</time>
      </trkpt>
      <trkpt lat="46.110746087506413" lon="9.348301235586405">
        <ele>612.5</ele>
        <time>2013-05-23T12:28:31Z</time>
      </trkpt>
      <trkpt lat="46.110762432217598" lon="9.348379103466868">
        <ele>612.98000000000002</ele>
        <time>2013-05-23T12:28:38Z</time>
      </trkpt>
      <trkpt lat="46.11076645553112" lon="9.348443392664194">
        <ele>612.5</ele>
        <time>2013-05-23T12:28:43Z</time>
      </trkpt>
      <trkpt lat="46.110793696716428" lon="9.348596781492233">
        <ele>612.01999999999998</ele>
        <time>2013-05-23T12:28:53Z</time>
      </trkpt>
      <trkpt lat="46.110755978152156" lon="9.348805155605078">
        <ele>611.53999999999996</ele>
        <time>2013-05-23T12:29:06Z</time>
      </trkpt>
      <trkpt lat="46.110720103606582" lon="9.348877659067512">
        <ele>611.53999999999996</ele>
        <time>2013-05-23T12:29:12Z</time>
      </trkpt>
      <trkpt lat="46.110795708373189" lon="9.349025683477521">
        <ele>610.57000000000005</ele>
        <time>2013-05-23T12:29:27Z</time>
      </trkpt>
      <trkpt lat="46.110796462744474" lon="9.349016882479191">
        <ele>610.09000000000003</ele>
        <time>2013-05-23T12:29:41Z</time>
      </trkpt>
      <trkpt lat="46.110760672017932" lon="9.349058708176017">
        <ele>609.61000000000001</ele>
        <time>2013-05-23T12:30:01Z</time>
      </trkpt>
      <trkpt lat="46.110734017565846" lon="9.349030377343297">
        <ele>609.61000000000001</ele>
        <time>2013-05-23T12:30:21Z</time>
      </trkpt>
      <trkpt lat="46.110729575157166" lon="9.34904177673161">
        <ele>610.09000000000003</ele>
        <time>2013-05-23T12:30:34Z</time>
      </trkpt>
      <trkpt lat="46.110731083899736" lon="9.349034400656819">
        <ele>610.09000000000003</ele>
        <time>2013-05-23T12:30:55Z</time>
      </trkpt>
      <trkpt lat="46.110818674787879" lon="9.349184771999717">
        <ele>612.5</ele>
        <time>2013-05-23T12:31:09Z</time>
      </trkpt>
      <trkpt lat="46.110818926244974" lon="9.349218383431435">
        <ele>612.5</ele>
        <time>2013-05-23T12:31:12Z</time>
      </trkpt>
      <trkpt lat="46.110826302319765" lon="9.349371939897537">
        <ele>612.5</ele>
        <time>2013-05-23T12:31:22Z</time>
      </trkpt>
      <trkpt lat="46.110827140510082" lon="9.349445533007383">
        <ele>612.01999999999998</ele>
        <time>2013-05-23T12:31:26Z</time>
      </trkpt>
      <trkpt lat="46.11085538752377" lon="9.349503451958299">
        <ele>612.5</ele>
        <time>2013-05-23T12:31:39Z</time>
      </trkpt>
      <trkpt lat="46.110879611223936" lon="9.349526669830084">
        <ele>612.5</ele>
        <time>2013-05-23T12:31:49Z</time>
      </trkpt>
      <trkpt lat="46.110893273726106" lon="9.349559610709548">
        <ele>612.01999999999998</ele>
        <time>2013-05-23T12:31:52Z</time>
      </trkpt>
      <trkpt lat="46.110967118293047" lon="9.349703611806035">
        <ele>612.5</ele>
        <time>2013-05-23T12:32:05Z</time>
      </trkpt>
      <trkpt lat="46.111043309792876" lon="9.349819365888834">
        <ele>612.5</ele>
        <time>2013-05-23T12:32:16Z</time>
      </trkpt>
      <trkpt lat="46.111068204045296" lon="9.349856832996011">
        <ele>612.98000000000002</ele>
        <time>2013-05-23T12:32:20Z</time>
      </trkpt>
      <trkpt lat="46.111133247613907" lon="9.349974095821381">
        <ele>613.46000000000004</ele>
        <time>2013-05-23T12:32:31Z</time>
      </trkpt>
      <trkpt lat="46.111164931207895" lon="9.350133184343576">
        <ele>614.41999999999996</ele>
        <time>2013-05-23T12:32:43Z</time>
      </trkpt>
      <trkpt lat="46.111170882359147" lon="9.350243574008346">
        <ele>616.34000000000003</ele>
        <time>2013-05-23T12:32:53Z</time>
      </trkpt>
      <trkpt lat="46.111206756904721" lon="9.350371481850743">
        <ele>615.86000000000001</ele>
        <time>2013-05-23T12:33:03Z</time>
      </trkpt>
      <trkpt lat="46.111247492954135" lon="9.350468376651406">
        <ele>616.34000000000003</ele>
        <time>2013-05-23T12:33:08Z</time>
      </trkpt>
      <trkpt lat="46.111259311437607" lon="9.350503329187632">
        <ele>615.86000000000001</ele>
        <time>2013-05-23T12:33:10Z</time>
      </trkpt>
      <trkpt lat="46.111275404691696" lon="9.350542724132538">
        <ele>616.34000000000003</ele>
        <time>2013-05-23T12:33:13Z</time>
      </trkpt>
      <trkpt lat="46.111352266743779" lon="9.350735591724515">
        <ele>616.82000000000005</ele>
        <time>2013-05-23T12:33:26Z</time>
      </trkpt>
      <trkpt lat="46.1114202439785" lon="9.350950084626675">
        <ele>616.34000000000003</ele>
        <time>2013-05-23T12:33:42Z</time>
      </trkpt>
      <trkpt lat="46.111522503197193" lon="9.351109256967902">
        <ele>615.86000000000001</ele>
        <time>2013-05-23T12:33:56Z</time>
      </trkpt>
      <trkpt lat="46.111533232033253" lon="9.351138509809971">
        <ele>615.86000000000001</ele>
        <time>2013-05-23T12:33:58Z</time>
      </trkpt>
      <trkpt lat="46.111621996387839" lon="9.351309752091765">
        <ele>615.86000000000001</ele>
        <time>2013-05-23T12:34:10Z</time>
      </trkpt>
      <trkpt lat="46.111682094633579" lon="9.351494153961539">
        <ele>615.86000000000001</ele>
        <time>2013-05-23T12:34:23Z</time>
      </trkpt>
      <trkpt lat="46.11173003911972" lon="9.351649386808276">
        <ele>616.82000000000005</ele>
        <time>2013-05-23T12:34:35Z</time>
      </trkpt>
      <trkpt lat="46.111774127930403" lon="9.351773522794247">
        <ele>617.29999999999995</ele>
        <time>2013-05-23T12:34:46Z</time>
      </trkpt>
      <trkpt lat="46.11186440102756" lon="9.351982902735472">
        <ele>616.82000000000005</ele>
        <time>2013-05-23T12:35:03Z</time>
      </trkpt>
      <trkpt lat="46.111936317756772" lon="9.352125311270356">
        <ele>617.77999999999997</ele>
        <time>2013-05-23T12:35:16Z</time>
      </trkpt>
      <trkpt lat="46.111969677731395" lon="9.352273419499397">
        <ele>618.75</ele>
        <time>2013-05-23T12:35:29Z</time>
      </trkpt>
      <trkpt lat="46.11202709376812" lon="9.352366961538792">
        <ele>619.23000000000002</ele>
        <time>2013-05-23T12:35:40Z</time>
      </trkpt>
      <trkpt lat="46.112053329125047" lon="9.352394370362163">
        <ele>619.23000000000002</ele>
        <time>2013-05-23T12:35:54Z</time>
      </trkpt>
      <trkpt lat="46.112144440412521" lon="9.352612467482686">
        <ele>619.23000000000002</ele>
        <time>2013-05-23T12:36:12Z</time>
      </trkpt>
      <trkpt lat="46.112153576686978" lon="9.352677678689361">
        <ele>619.71000000000004</ele>
        <time>2013-05-23T12:36:24Z</time>
      </trkpt>
      <trkpt lat="46.112149553373456" lon="9.352702321484685">
        <ele>619.23000000000002</ele>
        <time>2013-05-23T12:36:42Z</time>
      </trkpt>
      <trkpt lat="46.112147960811853" lon="9.352687820792198">
        <ele>618.75</ele>
        <time>2013-05-23T12:37:10Z</time>
      </trkpt>
      <trkpt lat="46.112147625535727" lon="9.352696957066655">
        <ele>618.75</ele>
        <time>2013-05-23T12:37:12Z</time>
      </trkpt>
      <trkpt lat="46.112143937498331" lon="9.352782787755132">
        <ele>618.25999999999999</ele>
        <time>2013-05-23T12:37:18Z</time>
      </trkpt>
      <trkpt lat="46.112142847850919" lon="9.352832576259971">
        <ele>617.77999999999997</ele>
        <time>2013-05-23T12:37:21Z</time>
      </trkpt>
      <trkpt lat="46.112141003832221" lon="9.352871552109718">
        <ele>619.23000000000002</ele>
        <time>2013-05-23T12:37:23Z</time>
      </trkpt>
      <trkpt lat="46.112171011045575" lon="9.353029383346438">
        <ele>617.29999999999995</ele>
        <time>2013-05-23T12:37:32Z</time>
      </trkpt>
      <trkpt lat="46.112252650782466" lon="9.353241194039583">
        <ele>617.29999999999995</ele>
        <time>2013-05-23T12:37:48Z</time>
      </trkpt>
      <trkpt lat="46.112287100404501" lon="9.353342112153769">
        <ele>617.77999999999997</ele>
        <time>2013-05-23T12:37:55Z</time>
      </trkpt>
      <trkpt lat="46.112324483692646" lon="9.353491980582476">
        <ele>618.25999999999999</ele>
        <time>2013-05-23T12:38:04Z</time>
      </trkpt>
      <trkpt lat="46.112390365451574" lon="9.353744192048907">
        <ele>618.25999999999999</ele>
        <time>2013-05-23T12:38:17Z</time>
      </trkpt>
      <trkpt lat="46.112428419291973" lon="9.353926666080952">
        <ele>619.23000000000002</ele>
        <time>2013-05-23T12:38:28Z</time>
      </trkpt>
      <trkpt lat="46.112437974661589" lon="9.353997157886624">
        <ele>619.71000000000004</ele>
        <time>2013-05-23T12:38:32Z</time>
      </trkpt>
      <trkpt lat="46.112470831722021" lon="9.354122383520007">
        <ele>619.23000000000002</ele>
        <time>2013-05-23T12:38:39Z</time>
      </trkpt>
      <trkpt lat="46.112482231110334" lon="9.354179548099637">
        <ele>619.71000000000004</ele>
        <time>2013-05-23T12:38:42Z</time>
      </trkpt>
      <trkpt lat="46.112510561943054" lon="9.354341821745038">
        <ele>619.71000000000004</ele>
        <time>2013-05-23T12:38:51Z</time>
      </trkpt>
      <trkpt lat="46.112566636875272" lon="9.354539634659886">
        <ele>620.66999999999996</ele>
        <time>2013-05-23T12:39:02Z</time>
      </trkpt>
      <trkpt lat="46.112645929679275" lon="9.354693777859211">
        <ele>622.11000000000001</ele>
        <time>2013-05-23T12:39:14Z</time>
      </trkpt>
      <trkpt lat="46.112660933285952" lon="9.354721438139677">
        <ele>622.59000000000003</ele>
        <time>2013-05-23T12:39:16Z</time>
      </trkpt>
      <trkpt lat="46.112709296867251" lon="9.35482420027256">
        <ele>623.07000000000005</ele>
        <time>2013-05-23T12:39:24Z</time>
      </trkpt>
      <trkpt lat="46.112762270495296" lon="9.355099629610777">
        <ele>623.07000000000005</ele>
        <time>2013-05-23T12:39:39Z</time>
      </trkpt>
      <trkpt lat="46.112814657390118" lon="9.355296939611435">
        <ele>624.02999999999997</ele>
        <time>2013-05-23T12:39:53Z</time>
      </trkpt>
      <trkpt lat="46.112888837233186" lon="9.355442030355334">
        <ele>627.39999999999998</ele>
        <time>2013-05-23T12:40:08Z</time>
      </trkpt>
      <trkpt lat="46.1129657831043" lon="9.355569602921605">
        <ele>630.27999999999997</ele>
        <time>2013-05-23T12:40:23Z</time>
      </trkpt>
      <trkpt lat="46.112987995147705" lon="9.355626935139298">
        <ele>630.75999999999999</ele>
        <time>2013-05-23T12:40:27Z</time>
      </trkpt>
      <trkpt lat="46.113050440326333" lon="9.3558185454458">
        <ele>632.20000000000005</ele>
        <time>2013-05-23T12:40:39Z</time>
      </trkpt>
      <trkpt lat="46.113072820007801" lon="9.355822317302227">
        <ele>632.67999999999995</ele>
        <time>2013-05-23T12:40:41Z</time>
      </trkpt>
      <trkpt lat="46.113221514970064" lon="9.355850731953979">
        <ele>629.32000000000005</ele>
        <time>2013-05-23T12:40:53Z</time>
      </trkpt>
      <trkpt lat="46.113344728946686" lon="9.356028763577342">
        <ele>627.39999999999998</ele>
        <time>2013-05-23T12:41:06Z</time>
      </trkpt>
      <trkpt lat="46.113496441394091" lon="9.356165053322911">
        <ele>624.50999999999999</ele>
        <time>2013-05-23T12:41:21Z</time>
      </trkpt>
      <trkpt lat="46.113537512719631" lon="9.356182487681508">
        <ele>623.54999999999995</ele>
        <time>2013-05-23T12:41:24Z</time>
      </trkpt>
      <trkpt lat="46.113585876300931" lon="9.356192126870155">
        <ele>623.07000000000005</ele>
        <time>2013-05-23T12:41:29Z</time>
      </trkpt>
      <trkpt lat="46.113786706700921" lon="9.356332691386342">
        <ele>623.07000000000005</ele>
        <time>2013-05-23T12:41:41Z</time>
      </trkpt>
      <trkpt lat="46.113824844360352" lon="9.356371415778995">
        <ele>622.11000000000001</ele>
        <time>2013-05-23T12:41:44Z</time>
      </trkpt>
      <trkpt lat="46.113912435248494" lon="9.356497647240758">
        <ele>620.19000000000005</ele>
        <time>2013-05-23T12:41:52Z</time>
      </trkpt>
      <trkpt lat="46.113965408876538" lon="9.356596637517214">
        <ele>619.71000000000004</ele>
        <time>2013-05-23T12:41:57Z</time>
      </trkpt>
      <trkpt lat="46.113992147147655" lon="9.356676684692502">
        <ele>619.71000000000004</ele>
        <time>2013-05-23T12:42:03Z</time>
      </trkpt>
      <trkpt lat="46.114040846005082" lon="9.356876257807016">
        <ele>621.14999999999998</ele>
        <time>2013-05-23T12:42:15Z</time>
      </trkpt>
      <trkpt lat="46.114152241498232" lon="9.357097037136555">
        <ele>623.54999999999995</ele>
        <time>2013-05-23T12:42:30Z</time>
      </trkpt>
      <trkpt lat="46.114166993647814" lon="9.357153028249741">
        <ele>623.54999999999995</ele>
        <time>2013-05-23T12:42:33Z</time>
      </trkpt>
      <trkpt lat="46.11423572525382" lon="9.357376992702484">
        <ele>624.02999999999997</ele>
        <time>2013-05-23T12:42:46Z</time>
      </trkpt>
      <trkpt lat="46.114272270351648" lon="9.357604729011655">
        <ele>624.50999999999999</ele>
        <time>2013-05-23T12:42:58Z</time>
      </trkpt>
      <trkpt lat="46.114318873733282" lon="9.357920810580254">
        <ele>626.44000000000005</ele>
        <time>2013-05-23T12:43:16Z</time>
      </trkpt>
      <trkpt lat="46.114350305870175" lon="9.358176710084081">
        <ele>628.36000000000001</ele>
        <time>2013-05-23T12:43:32Z</time>
      </trkpt>
      <trkpt lat="46.114396322518587" lon="9.358487762510777">
        <ele>628.36000000000001</ele>
        <time>2013-05-23T12:43:48Z</time>
      </trkpt>
      <trkpt lat="46.114400681108236" lon="9.358759252354503">
        <ele>624.99000000000001</ele>
        <time>2013-05-23T12:44:02Z</time>
      </trkpt>
      <trkpt lat="46.114359609782696" lon="9.359009871259332">
        <ele>623.07000000000005</ele>
        <time>2013-05-23T12:44:15Z</time>
      </trkpt>
      <trkpt lat="46.114356759935617" lon="9.359074160456657">
        <ele>622.11000000000001</ele>
        <time>2013-05-23T12:44:18Z</time>
      </trkpt>
      <trkpt lat="46.114299511536956" lon="9.359388565644622">
        <ele>620.19000000000005</ele>
        <time>2013-05-23T12:44:34Z</time>
      </trkpt>
      <trkpt lat="46.114240838214755" lon="9.359625019133091">
        <ele>619.71000000000004</ele>
        <time>2013-05-23T12:44:49Z</time>
      </trkpt>
      <trkpt lat="46.11422055400908" lon="9.359740102663636">
        <ele>618.25999999999999</ele>
        <time>2013-05-23T12:45:01Z</time>
      </trkpt>
      <trkpt lat="46.114213094115257" lon="9.359850995242596">
        <ele>616.82000000000005</ele>
        <time>2013-05-23T12:45:12Z</time>
      </trkpt>
      <trkpt lat="46.114227678626776" lon="9.360008575022221">
        <ele>613.94000000000005</ele>
        <time>2013-05-23T12:45:23Z</time>
      </trkpt>
      <trkpt lat="46.114239245653152" lon="9.360142853111029">
        <ele>612.01999999999998</ele>
        <time>2013-05-23T12:45:30Z</time>
      </trkpt>
      <trkpt lat="46.114258440211415" lon="9.36030512675643">
        <ele>609.61000000000001</ele>
        <time>2013-05-23T12:45:39Z</time>
      </trkpt>
      <trkpt lat="46.114267073571682" lon="9.360393136739731">
        <ele>608.64999999999998</ele>
        <time>2013-05-23T12:45:44Z</time>
      </trkpt>
      <trkpt lat="46.114256512373686" lon="9.360562451183796">
        <ele>606.25</ele>
        <time>2013-05-23T12:45:54Z</time>
      </trkpt>
      <trkpt lat="46.114289369434118" lon="9.360659848898649">
        <ele>604.80999999999995</ele>
        <time>2013-05-23T12:45:59Z</time>
      </trkpt>
      <trkpt lat="46.114286603406072" lon="9.360812986269593">
        <ele>601.44000000000005</ele>
        <time>2013-05-23T12:46:09Z</time>
      </trkpt>
      <trkpt lat="46.11428995616734" lon="9.361000489443541">
        <ele>599.03999999999996</ele>
        <time>2013-05-23T12:46:20Z</time>
      </trkpt>
      <trkpt lat="46.114305211231112" lon="9.361055474728346">
        <ele>598.08000000000004</ele>
        <time>2013-05-23T12:46:25Z</time>
      </trkpt>
      <trkpt lat="46.114286687225103" lon="9.361347919330001">
        <ele>595.19000000000005</ele>
        <time>2013-05-23T12:46:37Z</time>
      </trkpt>
      <trkpt lat="46.114207142964005" lon="9.361577751114965">
        <ele>593.26999999999998</ele>
        <time>2013-05-23T12:46:50Z</time>
      </trkpt>
      <trkpt lat="46.114131454378366" lon="9.361761817708612">
        <ele>592.30999999999995</ele>
        <time>2013-05-23T12:47:01Z</time>
      </trkpt>
      <trkpt lat="46.11409742385149" lon="9.361866759136319">
        <ele>592.78999999999996</ele>
        <time>2013-05-23T12:47:08Z</time>
      </trkpt>
      <trkpt lat="46.114039588719606" lon="9.362014029175043">
        <ele>593.75</ele>
        <time>2013-05-23T12:47:18Z</time>
      </trkpt>
      <trkpt lat="46.113947471603751" lon="9.362282166257501">
        <ele>594.23000000000002</ele>
        <time>2013-05-23T12:47:35Z</time>
      </trkpt>
      <trkpt lat="46.113925343379378" lon="9.362348048016429">
        <ele>593.75</ele>
        <time>2013-05-23T12:47:39Z</time>
      </trkpt>
      <trkpt lat="46.113821407780051" lon="9.362649293616414">
        <ele>594.71000000000004</ele>
        <time>2013-05-23T12:47:56Z</time>
      </trkpt>
      <trkpt lat="46.113669946789742" lon="9.362898990511894">
        <ele>594.71000000000004</ele>
        <time>2013-05-23T12:48:12Z</time>
      </trkpt>
      <trkpt lat="46.113496525213122" lon="9.363128403201699">
        <ele>593.75</ele>
        <time>2013-05-23T12:48:30Z</time>
      </trkpt>
      <trkpt lat="46.113382615149021" lon="9.363341303542256">
        <ele>591.83000000000004</ele>
        <time>2013-05-23T12:48:45Z</time>
      </trkpt>
      <trkpt lat="46.113326288759708" lon="9.363492093980312">
        <ele>591.35000000000002</ele>
        <time>2013-05-23T12:48:54Z</time>
      </trkpt>
      <trkpt lat="46.113210283219814" lon="9.363794513046742">
        <ele>590.38999999999999</ele>
        <time>2013-05-23T12:49:11Z</time>
      </trkpt>
      <trkpt lat="46.113124284893274" lon="9.364023841917515">
        <ele>590.38999999999999</ele>
        <time>2013-05-23T12:49:24Z</time>
      </trkpt>
      <trkpt lat="46.112975673750043" lon="9.364145463332534">
        <ele>589.90999999999997</ele>
        <time>2013-05-23T12:49:37Z</time>
      </trkpt>
      <trkpt lat="46.112807700410485" lon="9.364259708672762">
        <ele>588.95000000000005</ele>
        <time>2013-05-23T12:49:52Z</time>
      </trkpt>
      <trkpt lat="46.112759504467249" lon="9.364485768601298">
        <ele>589.90999999999997</ele>
        <time>2013-05-23T12:50:05Z</time>
      </trkpt>
      <trkpt lat="46.112838294357061" lon="9.364769831299782">
        <ele>591.35000000000002</ele>
        <time>2013-05-23T12:50:20Z</time>
      </trkpt>
      <trkpt lat="46.112852795049548" lon="9.36482104472816">
        <ele>590.38999999999999</ele>
        <time>2013-05-23T12:50:23Z</time>
      </trkpt>
      <trkpt lat="46.112894956022501" lon="9.364932859316468">
        <ele>587.5</ele>
        <time>2013-05-23T12:50:34Z</time>
      </trkpt>
      <trkpt lat="46.112927896901965" lon="9.364945348352194">
        <ele>585.58000000000004</ele>
        <time>2013-05-23T12:50:38Z</time>
      </trkpt>
      <trkpt lat="46.113033508881927" lon="9.365035034716129">
        <ele>582.22000000000003</ele>
        <time>2013-05-23T12:50:50Z</time>
      </trkpt>
      <trkpt lat="46.113119842484593" lon="9.365337621420622">
        <ele>580.28999999999996</ele>
        <time>2013-05-23T12:51:05Z</time>
      </trkpt>
      <trkpt lat="46.113188154995441" lon="9.365613218396902">
        <ele>578.37</ele>
        <time>2013-05-23T12:51:23Z</time>
      </trkpt>
      <trkpt lat="46.113213552162051" lon="9.365658229216933">
        <ele>577.88999999999999</ele>
        <time>2013-05-23T12:51:26Z</time>
      </trkpt>
      <trkpt lat="46.113347830250859" lon="9.36576459556818">
        <ele>575.00999999999999</ele>
        <time>2013-05-23T12:51:39Z</time>
      </trkpt>
      <trkpt lat="46.113423854112625" lon="9.36585352756083">
        <ele>572.60000000000002</ele>
        <time>2013-05-23T12:51:47Z</time>
      </trkpt>
      <trkpt lat="46.113492585718632" lon="9.365945812314749">
        <ele>569.72000000000003</ele>
        <time>2013-05-23T12:51:54Z</time>
      </trkpt>
      <trkpt lat="46.113505996763706" lon="9.365966264158487">
        <ele>569.72000000000003</ele>
        <time>2013-05-23T12:51:56Z</time>
      </trkpt>
      <trkpt lat="46.113535836338997" lon="9.366053016856313">
        <ele>568.27999999999997</ele>
        <time>2013-05-23T12:52:01Z</time>
      </trkpt>
      <trkpt lat="46.113576907664537" lon="9.366192743182182">
        <ele>565.38999999999999</ele>
        <time>2013-05-23T12:52:10Z</time>
      </trkpt>
      <trkpt lat="46.113596437498927" lon="9.366272035986185">
        <ele>563.95000000000005</ele>
        <time>2013-05-23T12:52:14Z</time>
      </trkpt>
      <trkpt lat="46.113695511594415" lon="9.36646674759686">
        <ele>561.07000000000005</ele>
        <time>2013-05-23T12:52:25Z</time>
      </trkpt>
      <trkpt lat="46.113708335906267" lon="9.366615107282996">
        <ele>558.65999999999997</ele>
        <time>2013-05-23T12:52:33Z</time>
      </trkpt>
      <trkpt lat="46.113687884062529" lon="9.366777129471302">
        <ele>555.29999999999995</ele>
        <time>2013-05-23T12:52:44Z</time>
      </trkpt>
      <trkpt lat="46.113762063905597" lon="9.366779308766127">
        <ele>553.86000000000001</ele>
        <time>2013-05-23T12:52:53Z</time>
      </trkpt>
      <trkpt lat="46.113849151879549" lon="9.366669589653611">
        <ele>552.40999999999997</ele>
        <time>2013-05-23T12:53:03Z</time>
      </trkpt>
      <trkpt lat="46.113897347822785" lon="9.3666304461658">
        <ele>552.40999999999997</ele>
        <time>2013-05-23T12:53:07Z</time>
      </trkpt>
      <trkpt lat="46.113975970074534" lon="9.366389298811555">
        <ele>550.97000000000003</ele>
        <time>2013-05-23T12:53:21Z</time>
      </trkpt>
      <trkpt lat="46.114053335040808" lon="9.366103978827596">
        <ele>549.04999999999995</ele>
        <time>2013-05-23T12:53:38Z</time>
      </trkpt>
      <trkpt lat="46.114086359739304" lon="9.365855623036623">
        <ele>547.13</ele>
        <time>2013-05-23T12:53:51Z</time>
      </trkpt>
      <trkpt lat="46.114080660045147" lon="9.365811869502068">
        <ele>546.64999999999998</ele>
        <time>2013-05-23T12:53:54Z</time>
      </trkpt>
      <trkpt lat="46.11409499309957" lon="9.365667784586549">
        <ele>546.16999999999996</ele>
        <time>2013-05-23T12:54:02Z</time>
      </trkpt>
      <trkpt lat="46.11411452293396" lon="9.365592515096068">
        <ele>545.69000000000005</ele>
        <time>2013-05-23T12:54:06Z</time>
      </trkpt>
      <trkpt lat="46.114149056375027" lon="9.365566531196237">
        <ele>544.72000000000003</ele>
        <time>2013-05-23T12:54:09Z</time>
      </trkpt>
      <trkpt lat="46.11421569250524" lon="9.365770379081368">
        <ele>543.27999999999997</ele>
        <time>2013-05-23T12:54:22Z</time>
      </trkpt>
      <trkpt lat="46.114210244268179" lon="9.365979004651308">
        <ele>541.84000000000003</ele>
        <time>2013-05-23T12:54:32Z</time>
      </trkpt>
      <trkpt lat="46.114222984761" lon="9.36601378954947">
        <ele>541.36000000000001</ele>
        <time>2013-05-23T12:54:34Z</time>
      </trkpt>
      <trkpt lat="46.114238910377026" lon="9.36610272154212">
        <ele>540.39999999999998</ele>
        <time>2013-05-23T12:54:38Z</time>
      </trkpt>
      <trkpt lat="46.114228432998061" lon="9.366404134780169">
        <ele>538.48000000000002</ele>
        <time>2013-05-23T12:54:54Z</time>
      </trkpt>
      <trkpt lat="46.114196497946978" lon="9.36671300791204">
        <ele>536.54999999999995</ele>
        <time>2013-05-23T12:55:10Z</time>
      </trkpt>
      <trkpt lat="46.114174369722605" lon="9.366924148052931">
        <ele>535.11000000000001</ele>
        <time>2013-05-23T12:55:21Z</time>
      </trkpt>
      <trkpt lat="46.114160707220435" lon="9.367179879918695">
        <ele>533.19000000000005</ele>
        <time>2013-05-23T12:55:32Z</time>
      </trkpt>
      <trkpt lat="46.114121396094561" lon="9.367565363645554">
        <ele>532.23000000000002</ele>
        <time>2013-05-23T12:55:49Z</time>
      </trkpt>
      <trkpt lat="46.114065824076533" lon="9.367860238999128">
        <ele>530.78999999999996</ele>
        <time>2013-05-23T12:56:05Z</time>
      </trkpt>
      <trkpt lat="46.113953674212098" lon="9.368187468498945">
        <ele>528.86000000000001</ele>
        <time>2013-05-23T12:56:23Z</time>
      </trkpt>
      <trkpt lat="46.113829622045159" lon="9.368443284183741">
        <ele>526.46000000000004</ele>
        <time>2013-05-23T12:56:38Z</time>
      </trkpt>
      <trkpt lat="46.113666845485568" lon="9.368672864511609">
        <ele>525.01999999999998</ele>
        <time>2013-05-23T12:56:55Z</time>
      </trkpt>
      <trkpt lat="46.113667767494917" lon="9.368686275556684">
        <ele>524.53999999999996</ele>
        <time>2013-05-23T12:56:56Z</time>
      </trkpt>
      <trkpt lat="46.113701211288571" lon="9.368714019656181">
        <ele>524.53999999999996</ele>
        <time>2013-05-23T12:57:00Z</time>
      </trkpt>
      <trkpt lat="46.113728787750006" lon="9.368697088211775">
        <ele>524.05999999999995</ele>
        <time>2013-05-23T12:57:03Z</time>
      </trkpt>
      <trkpt lat="46.113864909857512" lon="9.368481254205108">
        <ele>522.61000000000001</ele>
        <time>2013-05-23T12:57:19Z</time>
      </trkpt>
      <trkpt lat="46.113916458562016" lon="9.368400871753693">
        <ele>522.13</ele>
        <time>2013-05-23T12:57:24Z</time>
      </trkpt>
      <trkpt lat="46.114060124382377" lon="9.36813835054636">
        <ele>520.21000000000004</ele>
        <time>2013-05-23T12:57:42Z</time>
      </trkpt>
      <trkpt lat="46.114126676693559" lon="9.367997283115983">
        <ele>519.25</ele>
        <time>2013-05-23T12:57:51Z</time>
      </trkpt>
      <trkpt lat="46.114227594807744" lon="9.367769127711654">
        <ele>517.80999999999995</ele>
        <time>2013-05-23T12:58:06Z</time>
      </trkpt>
      <trkpt lat="46.114267660304904" lon="9.367747753858566">
        <ele>517.33000000000004</ele>
        <time>2013-05-23T12:58:19Z</time>
      </trkpt>
      <trkpt lat="46.114230528473854" lon="9.367755213752389">
        <ele>517.33000000000004</ele>
        <time>2013-05-23T12:58:42Z</time>
      </trkpt>
      <trkpt lat="46.114262714982033" lon="9.367690924555063">
        <ele>517.33000000000004</ele>
        <time>2013-05-23T12:59:05Z</time>
      </trkpt>
      <trkpt lat="46.114257266744971" lon="9.367769211530685">
        <ele>517.80999999999995</ele>
        <time>2013-05-23T12:59:24Z</time>
      </trkpt>
      <trkpt lat="46.114313174039125" lon="9.367747502401471">
        <ele>517.80999999999995</ele>
        <time>2013-05-23T12:59:50Z</time>
      </trkpt>
      <trkpt lat="46.114386934787035" lon="9.367567459121347">
        <ele>517.33000000000004</ele>
        <time>2013-05-23T13:00:04Z</time>
      </trkpt>
      <trkpt lat="46.114404117688537" lon="9.367517586797476">
        <ele>515.88</ele>
        <time>2013-05-23T13:00:08Z</time>
      </trkpt>
      <trkpt lat="46.114443931728601" lon="9.367395211011171">
        <ele>514.91999999999996</ele>
        <time>2013-05-23T13:00:15Z</time>
      </trkpt>
      <trkpt lat="46.11451325006783" lon="9.36708097346127">
        <ele>512.51999999999998</ele>
        <time>2013-05-23T13:00:31Z</time>
      </trkpt>
      <trkpt lat="46.114619448781013" lon="9.366767657920718">
        <ele>509.16000000000003</ele>
        <time>2013-05-23T13:00:47Z</time>
      </trkpt>
      <trkpt lat="46.114636212587357" lon="9.366701859980822">
        <ele>507.70999999999998</ele>
        <time>2013-05-23T13:00:51Z</time>
      </trkpt>
      <trkpt lat="46.114677116274834" lon="9.366566827520728">
        <ele>506.75</ele>
        <time>2013-05-23T13:00:58Z</time>
      </trkpt>
      <trkpt lat="46.114675775170326" lon="9.366549896076322">
        <ele>506.75</ele>
        <time>2013-05-23T13:01:00Z</time>
      </trkpt>
      <trkpt lat="46.114712907001376" lon="9.366442523896694">
        <ele>504.82999999999998</ele>
        <time>2013-05-23T13:01:05Z</time>
      </trkpt>
      <trkpt lat="46.114758253097534" lon="9.366293912753463">
        <ele>502.91000000000003</ele>
        <time>2013-05-23T13:01:13Z</time>
      </trkpt>
      <trkpt lat="46.114821620285511" lon="9.366026949137449">
        <ele>499.54000000000002</ele>
        <time>2013-05-23T13:01:28Z</time>
      </trkpt>
      <trkpt lat="46.114852968603373" lon="9.365944052115083">
        <ele>498.57999999999998</ele>
        <time>2013-05-23T13:01:33Z</time>
      </trkpt>
      <trkpt lat="46.114963358268142" lon="9.36603038571775">
        <ele>496.66000000000003</ele>
        <time>2013-05-23T13:01:40Z</time>
      </trkpt>
      <trkpt lat="46.114995796233416" lon="9.366403128951788">
        <ele>494.25999999999999</ele>
        <time>2013-05-23T13:01:59Z</time>
      </trkpt>
      <trkpt lat="46.114993784576654" lon="9.366420982405543">
        <ele>494.25999999999999</ele>
        <time>2013-05-23T13:02:00Z</time>
      </trkpt>
      <trkpt lat="46.114994455128908" lon="9.366522990167141">
        <ele>493.76999999999998</ele>
        <time>2013-05-23T13:02:05Z</time>
      </trkpt>
      <trkpt lat="46.115056062117219" lon="9.366853069514036">
        <ele>492.81</ele>
        <time>2013-05-23T13:02:22Z</time>
      </trkpt>
      <trkpt lat="46.115031335502863" lon="9.367163283750415">
        <ele>490.88999999999999</ele>
        <time>2013-05-23T13:02:37Z</time>
      </trkpt>
      <trkpt lat="46.114955395460129" lon="9.367442820221186">
        <ele>489.93000000000001</ele>
        <time>2013-05-23T13:02:53Z</time>
      </trkpt>
      <trkpt lat="46.114925052970648" lon="9.367601657286286">
        <ele>488.97000000000003</ele>
        <time>2013-05-23T13:03:01Z</time>
      </trkpt>
      <trkpt lat="46.114900996908545" lon="9.367636106908321">
        <ele>489.44999999999999</ele>
        <time>2013-05-23T13:03:04Z</time>
      </trkpt>
      <trkpt lat="46.114887250587344" lon="9.367939364165068">
        <ele>487.05000000000001</ele>
        <time>2013-05-23T13:03:20Z</time>
      </trkpt>
      <trkpt lat="46.114867888391018" lon="9.368256200104952">
        <ele>485.60000000000002</ele>
        <time>2013-05-23T13:03:36Z</time>
      </trkpt>
      <trkpt lat="46.114831091836095" lon="9.368539424613118">
        <ele>483.68000000000001</ele>
        <time>2013-05-23T13:03:51Z</time>
      </trkpt>
      <trkpt lat="46.114784236997366" lon="9.368782918900251">
        <ele>481.75999999999999</ele>
        <time>2013-05-23T13:04:04Z</time>
      </trkpt>
      <trkpt lat="46.114745177328587" lon="9.369017779827118">
        <ele>480.31999999999999</ele>
        <time>2013-05-23T13:04:17Z</time>
      </trkpt>
      <trkpt lat="46.114710979163647" lon="9.369166055694223">
        <ele>478.87</ele>
        <time>2013-05-23T13:04:25Z</time>
      </trkpt>
      <trkpt lat="46.114658005535603" lon="9.369492447003722">
        <ele>476.47000000000003</ele>
        <time>2013-05-23T13:04:42Z</time>
      </trkpt>
      <trkpt lat="46.114597823470831" lon="9.369753710925579">
        <ele>474.55000000000001</ele>
        <time>2013-05-23T13:04:57Z</time>
      </trkpt>
      <trkpt lat="46.114574102684855" lon="9.369858568534255">
        <ele>473.58999999999997</ele>
        <time>2013-05-23T13:05:04Z</time>
      </trkpt>
      <trkpt lat="46.11451224423945" lon="9.370066020637751">
        <ele>471.66000000000003</ele>
        <time>2013-05-23T13:05:16Z</time>
      </trkpt>
      <trkpt lat="46.114494809880853" lon="9.370145983994007">
        <ele>471.18000000000001</ele>
        <time>2013-05-23T13:05:20Z</time>
      </trkpt>
      <trkpt lat="46.114465976133943" lon="9.370207004249096">
        <ele>470.69999999999999</ele>
        <time>2013-05-23T13:05:25Z</time>
      </trkpt>
      <trkpt lat="46.114364303648472" lon="9.370513446629047">
        <ele>468.77999999999997</ele>
        <time>2013-05-23T13:05:40Z</time>
      </trkpt>
      <trkpt lat="46.114391628652811" lon="9.370806477963924">
        <ele>467.33999999999997</ele>
        <time>2013-05-23T13:05:55Z</time>
      </trkpt>
      <trkpt lat="46.114486511796713" lon="9.371104622259736">
        <ele>463.97000000000003</ele>
        <time>2013-05-23T13:06:11Z</time>
      </trkpt>
      <trkpt lat="46.114521464332938" lon="9.371295142918825">
        <ele>463.00999999999999</ele>
        <time>2013-05-23T13:06:20Z</time>
      </trkpt>
      <trkpt lat="46.114575359970331" lon="9.37146688811481">
        <ele>462.05000000000001</ele>
        <time>2013-05-23T13:06:29Z</time>
      </trkpt>
      <trkpt lat="46.114603187888861" lon="9.37162178568542">
        <ele>460.13</ele>
        <time>2013-05-23T13:06:38Z</time>
      </trkpt>
      <trkpt lat="46.11467351205647" lon="9.371832087635994">
        <ele>457.72000000000003</ele>
        <time>2013-05-23T13:06:50Z</time>
      </trkpt>
      <trkpt lat="46.114724138751626" lon="9.371899142861366">
        <ele>456.75999999999999</ele>
        <time>2013-05-23T13:06:55Z</time>
      </trkpt>
      <trkpt lat="46.114858584478498" lon="9.372092764824629">
        <ele>453.39999999999998</ele>
        <time>2013-05-23T13:07:09Z</time>
      </trkpt>
      <trkpt lat="46.115006357431412" lon="9.372325530275703">
        <ele>451</ele>
        <time>2013-05-23T13:07:23Z</time>
      </trkpt>
      <trkpt lat="46.114994874224067" lon="9.372390238568187">
        <ele>450.51999999999998</ele>
        <time>2013-05-23T13:07:38Z</time>
      </trkpt>
      <trkpt lat="46.114995712414384" lon="9.372396105900407">
        <ele>450.51999999999998</ele>
        <time>2013-05-23T13:07:39Z</time>
      </trkpt>
      <trkpt lat="46.115148514509201" lon="9.372479841113091">
        <ele>448.58999999999997</ele>
        <time>2013-05-23T13:07:53Z</time>
      </trkpt>
      <trkpt lat="46.115167122334242" lon="9.372473387047648">
        <ele>448.58999999999997</ele>
        <time>2013-05-23T13:08:00Z</time>
      </trkpt>
      <trkpt lat="46.115162344649434" lon="9.3725277017802">
        <ele>448.58999999999997</ele>
        <time>2013-05-23T13:08:03Z</time>
      </trkpt>
      <trkpt lat="46.115174582228065" lon="9.372592074796557">
        <ele>448.11000000000001</ele>
        <time>2013-05-23T13:08:07Z</time>
      </trkpt>
      <trkpt lat="46.1152159050107" lon="9.372678492218256">
        <ele>448.11000000000001</ele>
        <time>2013-05-23T13:08:12Z</time>
      </trkpt>
      <trkpt lat="46.115225795656443" lon="9.37271336093545">
        <ele>447.63</ele>
        <time>2013-05-23T13:08:14Z</time>
      </trkpt>
      <trkpt lat="46.115257730707526" lon="9.372765580192208">
        <ele>447.63</ele>
        <time>2013-05-23T13:08:18Z</time>
      </trkpt>
      <trkpt lat="46.115328138694167" lon="9.372897343710065">
        <ele>448.11000000000001</ele>
        <time>2013-05-23T13:08:26Z</time>
      </trkpt>
      <trkpt lat="46.115407850593328" lon="9.37304126098752">
        <ele>449.06999999999999</ele>
        <time>2013-05-23T13:08:39Z</time>
      </trkpt>
      <trkpt lat="46.115404749289155" lon="9.373173946514726">
        <ele>450.02999999999997</ele>
        <time>2013-05-23T13:08:53Z</time>
      </trkpt>
      <trkpt lat="46.115403659641743" lon="9.373211162164807">
        <ele>450.02999999999997</ele>
        <time>2013-05-23T13:09:18Z</time>
      </trkpt>
      <trkpt lat="46.115374574437737" lon="9.373281402513385">
        <ele>450.02999999999997</ele>
        <time>2013-05-23T13:09:52Z</time>
      </trkpt>
      <trkpt lat="46.115383207798004" lon="9.373285425826907">
        <ele>450.51999999999998</ele>
        <time>2013-05-23T13:10:20Z</time>
      </trkpt>
      <trkpt lat="46.11538547091186" lon="9.373282995074987">
        <ele>450.51999999999998</ele>
        <time>2013-05-23T13:10:49Z</time>
      </trkpt>
      <trkpt lat="46.115392679348588" lon="9.373281486332417">
        <ele>450.51999999999998</ele>
        <time>2013-05-23T13:11:24Z</time>
      </trkpt>
      <trkpt lat="46.115447832271457" lon="9.373220214620233">
        <ele>451</ele>
        <time>2013-05-23T13:11:50Z</time>
      </trkpt>
      <trkpt lat="46.115442551672459" lon="9.37322985380888">
        <ele>451.48000000000002</ele>
        <time>2013-05-23T13:11:51Z</time>
      </trkpt>
      <trkpt lat="46.115432996302843" lon="9.373187273740768">
        <ele>451.48000000000002</ele>
        <time>2013-05-23T13:11:53Z</time>
      </trkpt>
      <trkpt lat="46.11541086807847" lon="9.37303145416081">
        <ele>450.51999999999998</ele>
        <time>2013-05-23T13:12:01Z</time>
      </trkpt>
      <trkpt lat="46.115304250270128" lon="9.372841939330101">
        <ele>449.06999999999999</ele>
        <time>2013-05-23T13:12:15Z</time>
      </trkpt>
      <trkpt lat="46.115213055163622" lon="9.372671283781529">
        <ele>449.06999999999999</ele>
        <time>2013-05-23T13:12:29Z</time>
      </trkpt>
      <trkpt lat="46.11514457501471" lon="9.372524097561836">
        <ele>450.02999999999997</ele>
        <time>2013-05-23T13:12:40Z</time>
      </trkpt>
      <trkpt lat="46.115204757079482" lon="9.372404152527452">
        <ele>448.58999999999997</ele>
        <time>2013-05-23T13:12:55Z</time>
      </trkpt>
      <trkpt lat="46.11523887142539" lon="9.372377498075366">
        <ele>448.58999999999997</ele>
        <time>2013-05-23T13:12:59Z</time>
      </trkpt>
      <trkpt lat="46.115254461765289" lon="9.372414462268353">
        <ele>448.11000000000001</ele>
        <time>2013-05-23T13:13:09Z</time>
      </trkpt>
      <trkpt lat="46.115288492292166" lon="9.372419910505414">
        <ele>448.11000000000001</ele>
        <time>2013-05-23T13:13:24Z</time>
      </trkpt>
      <trkpt lat="46.115309111773968" lon="9.372420748695731">
        <ele>447.63</ele>
        <time>2013-05-23T13:13:41Z</time>
      </trkpt>
      <trkpt lat="46.115318331867456" lon="9.372419156134129">
        <ele>447.63</ele>
        <time>2013-05-23T13:14:06Z</time>
      </trkpt>
      <trkpt lat="46.115375077351928" lon="9.372398620471358">
        <ele>446.67000000000002</ele>
        <time>2013-05-23T13:14:22Z</time>
      </trkpt>
      <trkpt lat="46.11543039791286" lon="9.372387053444982">
        <ele>446.67000000000002</ele>
        <time>2013-05-23T13:14:28Z</time>
      </trkpt>
      <trkpt lat="46.115550175309181" lon="9.372320752590895">
        <ele>445.23000000000002</ele>
        <time>2013-05-23T13:14:42Z</time>
      </trkpt>
      <trkpt lat="46.115738935768604" lon="9.372256714850664">
        <ele>443.31</ele>
        <time>2013-05-23T13:14:59Z</time>
      </trkpt>
      <trkpt lat="46.115953512489796" lon="9.372195610776544">
        <ele>441.38</ele>
        <time>2013-05-23T13:15:17Z</time>
      </trkpt>
      <trkpt lat="46.115964073687792" lon="9.37219250947237">
        <ele>441.38</ele>
        <time>2013-05-23T13:15:18Z</time>
      </trkpt>
      <trkpt lat="46.116025429219007" lon="9.372222935780883">
        <ele>441.86000000000001</ele>
        <time>2013-05-23T13:15:22Z</time>
      </trkpt>
      <trkpt lat="46.116221733391285" lon="9.372174823656678">
        <ele>440.42000000000002</ele>
        <time>2013-05-23T13:15:41Z</time>
      </trkpt>
      <trkpt lat="46.116326088085771" lon="9.372152108699083">
        <ele>439.45999999999998</ele>
        <time>2013-05-23T13:15:55Z</time>
      </trkpt>
      <trkpt lat="46.11639590933919" lon="9.372120760381222">
        <ele>438.5</ele>
        <time>2013-05-23T13:16:11Z</time>
      </trkpt>
      <trkpt lat="46.116399597376585" lon="9.372122939676046">
        <ele>439.45999999999998</ele>
        <time>2013-05-23T13:16:43Z</time>
      </trkpt>
      <trkpt lat="46.116367075592279" lon="9.372155461460352">
        <ele>439.45999999999998</ele>
        <time>2013-05-23T13:16:58Z</time>
      </trkpt>
      <trkpt lat="46.116373529657722" lon="9.372110534459353">
        <ele>439.45999999999998</ele>
        <time>2013-05-23T13:17:25Z</time>
      </trkpt>
      <trkpt lat="46.116361794993281" lon="9.372105337679386">
        <ele>438.98000000000002</ele>
        <time>2013-05-23T13:17:57Z</time>
      </trkpt>
      <trkpt lat="46.116364141926169" lon="9.372151689603925">
        <ele>438.98000000000002</ele>
        <time>2013-05-23T13:18:12Z</time>
      </trkpt>
      <trkpt lat="46.116335894912481" lon="9.372156215831637">
        <ele>439.45999999999998</ele>
        <time>2013-05-23T13:18:22Z</time>
      </trkpt>
      <trkpt lat="46.116251656785607" lon="9.372173398733139">
        <ele>439.94</ele>
        <time>2013-05-23T13:18:34Z</time>
      </trkpt>
      <trkpt lat="46.116219302639365" lon="9.372234670445323">
        <ele>440.89999999999998</ele>
        <time>2013-05-23T13:18:44Z</time>
      </trkpt>
      <trkpt lat="46.116212429478765" lon="9.372228970751166">
        <ele>440.89999999999998</ele>
        <time>2013-05-23T13:19:07Z</time>
      </trkpt>
      <trkpt lat="46.11620094627142" lon="9.372209692373872">
        <ele>439.45999999999998</ele>
        <time>2013-05-23T13:19:20Z</time>
      </trkpt>
      <trkpt lat="46.116234222427011" lon="9.372155461460352">
        <ele>438.98000000000002</ele>
        <time>2013-05-23T13:19:25Z</time>
      </trkpt>
      <trkpt lat="46.116394149139524" lon="9.371996121481061">
        <ele>437.06</ele>
        <time>2013-05-23T13:19:41Z</time>
      </trkpt>
      <trkpt lat="46.116500850766897" lon="9.37171021476388">
        <ele>434.17000000000002</ele>
        <time>2013-05-23T13:19:56Z</time>
      </trkpt>
      <trkpt lat="46.116596655920148" lon="9.371519107371569">
        <ele>431.76999999999998</ele>
        <time>2013-05-23T13:20:10Z</time>
      </trkpt>
      <trkpt lat="46.116701681166887" lon="9.371230769902468">
        <ele>428.88999999999999</ele>
        <time>2013-05-23T13:20:27Z</time>
      </trkpt>
      <trkpt lat="46.116780722513795" lon="9.370948802679777">
        <ele>425.51999999999998</ele>
        <time>2013-05-23T13:20:42Z</time>
      </trkpt>
      <trkpt lat="46.116871666163206" lon="9.370752414688468">
        <ele>423.12</ele>
        <time>2013-05-23T13:20:55Z</time>
      </trkpt>
      <trkpt lat="46.117000160738826" lon="9.370490815490484">
        <ele>420.23000000000002</ele>
        <time>2013-05-23T13:21:11Z</time>
      </trkpt>
      <trkpt lat="46.117043746635318" lon="9.370422000065446">
        <ele>418.79000000000002</ele>
        <time>2013-05-23T13:21:17Z</time>
      </trkpt>
      <trkpt lat="46.117164948955178" lon="9.370256206020713">
        <ele>416.38999999999999</ele>
        <time>2013-05-23T13:21:28Z</time>
      </trkpt>
      <trkpt lat="46.117352787405252" lon="9.370064260438085">
        <ele>413.5</ele>
        <time>2013-05-23T13:21:46Z</time>
      </trkpt>
      <trkpt lat="46.117370557039976" lon="9.370026709511876">
        <ele>413.01999999999998</ele>
        <time>2013-05-23T13:21:48Z</time>
      </trkpt>
      <trkpt lat="46.117398720234632" lon="9.369958397001028">
        <ele>412.06</ele>
        <time>2013-05-23T13:21:52Z</time>
      </trkpt>
      <trkpt lat="46.117487316951156" lon="9.369697635993362">
        <ele>408.69999999999999</ele>
        <time>2013-05-23T13:22:07Z</time>
      </trkpt>
      <trkpt lat="46.117585888132453" lon="9.369444418698549">
        <ele>405.32999999999998</ele>
        <time>2013-05-23T13:22:22Z</time>
      </trkpt>
      <trkpt lat="46.117694601416588" lon="9.369181981310248">
        <ele>402.93000000000001</ele>
        <time>2013-05-23T13:22:37Z</time>
      </trkpt>
      <trkpt lat="46.117801135405898" lon="9.3689548317343">
        <ele>399.56999999999999</ele>
        <time>2013-05-23T13:22:52Z</time>
      </trkpt>
      <trkpt lat="46.117901802062988" lon="9.368760623037815">
        <ele>397.63999999999999</ele>
        <time>2013-05-23T13:23:05Z</time>
      </trkpt>
      <trkpt lat="46.11806851811707" lon="9.368579322472215">
        <ele>394.27999999999997</ele>
        <time>2013-05-23T13:23:18Z</time>
      </trkpt>
      <trkpt lat="46.118186954408884" lon="9.368420233950019">
        <ele>390.91000000000003</ele>
        <time>2013-05-23T13:23:31Z</time>
      </trkpt>
      <trkpt lat="46.118378732353449" lon="9.368169112131">
        <ele>387.55000000000001</ele>
        <time>2013-05-23T13:23:47Z</time>
      </trkpt>
      <trkpt lat="46.118500772863626" lon="9.367860406637192">
        <ele>384.18000000000001</ele>
        <time>2013-05-23T13:24:04Z</time>
      </trkpt>
      <trkpt lat="46.118585765361786" lon="9.367584139108658">
        <ele>381.30000000000001</ele>
        <time>2013-05-23T13:24:19Z</time>
      </trkpt>
      <trkpt lat="46.11863044090569" lon="9.36744499951601">
        <ele>379.38</ele>
        <time>2013-05-23T13:24:27Z</time>
      </trkpt>
      <trkpt lat="46.118703614920378" lon="9.367135623469949">
        <ele>376.49000000000001</ele>
        <time>2013-05-23T13:24:43Z</time>
      </trkpt>
      <trkpt lat="46.118778130039573" lon="9.366854745894671">
        <ele>373.61000000000001</ele>
        <time>2013-05-23T13:24:58Z</time>
      </trkpt>
      <trkpt lat="46.118797659873962" lon="9.366816775873303">
        <ele>373.13</ele>
        <time>2013-05-23T13:25:01Z</time>
      </trkpt>
      <trkpt lat="46.118898661807179" lon="9.366529863327742">
        <ele>369.75999999999999</ele>
        <time>2013-05-23T13:25:18Z</time>
      </trkpt>
      <trkpt lat="46.119025480002165" lon="9.366251584142447">
        <ele>366.88</ele>
        <time>2013-05-23T13:25:35Z</time>
      </trkpt>
      <trkpt lat="46.119159758090973" lon="9.366016136482358">
        <ele>364</ele>
        <time>2013-05-23T13:25:50Z</time>
      </trkpt>
      <trkpt lat="46.119322450831532" lon="9.365730900317431">
        <ele>360.63</ele>
        <time>2013-05-23T13:26:06Z</time>
      </trkpt>
      <trkpt lat="46.119464775547385" lon="9.365452453494072">
        <ele>357.75</ele>
        <time>2013-05-23T13:26:24Z</time>
      </trkpt>
      <trkpt lat="46.119591593742371" lon="9.365235110744834">
        <ele>354.38</ele>
        <time>2013-05-23T13:26:38Z</time>
      </trkpt>
      <trkpt lat="46.119725201278925" lon="9.36497937887907">
        <ele>351.01999999999998</ele>
        <time>2013-05-23T13:26:54Z</time>
      </trkpt>
      <trkpt lat="46.119878673925996" lon="9.364705877378583">
        <ele>347.64999999999998</ele>
        <time>2013-05-23T13:27:12Z</time>
      </trkpt>
      <trkpt lat="46.12002644687891" lon="9.364423491060734">
        <ele>344.29000000000002</ele>
        <time>2013-05-23T13:27:30Z</time>
      </trkpt>
      <trkpt lat="46.120120659470558" lon="9.364232216030359">
        <ele>342.85000000000002</ele>
        <time>2013-05-23T13:27:44Z</time>
      </trkpt>
      <trkpt lat="46.120251165702939" lon="9.364039348438382">
        <ele>340.92000000000002</ele>
        <time>2013-05-23T13:28:01Z</time>
      </trkpt>
      <trkpt lat="46.120414361357689" lon="9.363871039822698">
        <ele>339</ele>
        <time>2013-05-23T13:28:15Z</time>
      </trkpt>
      <trkpt lat="46.120562637224793" lon="9.363821083679795">
        <ele>337.56</ele>
        <time>2013-05-23T13:28:33Z</time>
      </trkpt>
      <trkpt lat="46.120718875899911" lon="9.363793423399329">
        <ele>336.60000000000002</ele>
        <time>2013-05-23T13:28:49Z</time>
      </trkpt>
      <trkpt lat="46.12099003046751" lon="9.36382133513689">
        <ele>334.68000000000001</ele>
        <time>2013-05-23T13:29:09Z</time>
      </trkpt>
      <trkpt lat="46.121179880574346" lon="9.363614888861775">
        <ele>332.26999999999998</ele>
        <time>2013-05-23T13:29:25Z</time>
      </trkpt>
      <trkpt lat="46.121242828667164" lon="9.363490585237742">
        <ele>331.31</ele>
        <time>2013-05-23T13:29:33Z</time>
      </trkpt>
      <trkpt lat="46.121252719312906" lon="9.363476922735572">
        <ele>330.82999999999998</ele>
        <time>2013-05-23T13:29:34Z</time>
      </trkpt>
      <trkpt lat="46.121261939406395" lon="9.36346460133791">
        <ele>330.35000000000002</ele>
        <time>2013-05-23T13:29:35Z</time>
      </trkpt>
      <trkpt lat="46.121270908042789" lon="9.363453118130565">
        <ele>330.35000000000002</ele>
        <time>2013-05-23T13:29:36Z</time>
      </trkpt>
      <trkpt lat="46.121280882507563" lon="9.363441467285156">
        <ele>330.35000000000002</ele>
        <time>2013-05-23T13:29:37Z</time>
      </trkpt>
      <trkpt lat="46.121289683505893" lon="9.363428726792336">
        <ele>330.35000000000002</ele>
        <time>2013-05-23T13:29:38Z</time>
      </trkpt>
      <trkpt lat="46.121366713196039" lon="9.363304255530238">
        <ele>328.43000000000001</ele>
        <time>2013-05-23T13:29:50Z</time>
      </trkpt>
      <trkpt lat="46.121377944946289" lon="9.363292185589671">
        <ele>328.43000000000001</ele>
        <time>2013-05-23T13:29:51Z</time>
      </trkpt>
      <trkpt lat="46.121556647121906" lon="9.363123876973987">
        <ele>325.06</ele>
        <time>2013-05-23T13:30:06Z</time>
      </trkpt>
      <trkpt lat="46.12166678532958" lon="9.363009883090854">
        <ele>324.10000000000002</ele>
        <time>2013-05-23T13:30:18Z</time>
      </trkpt>
      <trkpt lat="46.121678603813052" lon="9.363004099577665">
        <ele>323.62</ele>
        <time>2013-05-23T13:30:19Z</time>
      </trkpt>
      <trkpt lat="46.121690338477492" lon="9.36299404129386">
        <ele>323.62</ele>
        <time>2013-05-23T13:30:20Z</time>
      </trkpt>
      <trkpt lat="46.121846828609705" lon="9.362797737121582">
        <ele>320.25999999999999</ele>
        <time>2013-05-23T13:30:36Z</time>
      </trkpt>
      <trkpt lat="46.122000301256776" lon="9.362528594210744">
        <ele>318.32999999999998</ele>
        <time>2013-05-23T13:30:54Z</time>
      </trkpt>
      <trkpt lat="46.122190738096833" lon="9.362291218712926">
        <ele>315.93000000000001</ele>
        <time>2013-05-23T13:31:14Z</time>
      </trkpt>
      <trkpt lat="46.122198197990656" lon="9.362289709970355">
        <ele>315.93000000000001</ele>
        <time>2013-05-23T13:31:15Z</time>
      </trkpt>
      <trkpt lat="46.122281681746244" lon="9.362276718020439">
        <ele>314.49000000000001</ele>
        <time>2013-05-23T13:31:23Z</time>
      </trkpt>
      <trkpt lat="46.122294757515192" lon="9.36227822676301">
        <ele>314.00999999999999</ele>
        <time>2013-05-23T13:31:24Z</time>
      </trkpt>
      <trkpt lat="46.122312275692821" lon="9.362280489876866">
        <ele>314.49000000000001</ele>
        <time>2013-05-23T13:31:25Z</time>
      </trkpt>
      <trkpt lat="46.12238947302103" lon="9.362272527068853">
        <ele>313.52999999999997</ele>
        <time>2013-05-23T13:31:31Z</time>
      </trkpt>
      <trkpt lat="46.122401794418693" lon="9.36226649209857">
        <ele>313.52999999999997</ele>
        <time>2013-05-23T13:31:32Z</time>
      </trkpt>
      <trkpt lat="46.12241487018764" lon="9.362263977527618">
        <ele>313.52999999999997</ele>
        <time>2013-05-23T13:31:33Z</time>
      </trkpt>
      <trkpt lat="46.122427191585302" lon="9.362267162650824">
        <ele>313.52999999999997</ele>
        <time>2013-05-23T13:31:34Z</time>
      </trkpt>
      <trkpt lat="46.122440686449409" lon="9.362269174307585">
        <ele>313.05000000000001</ele>
        <time>2013-05-23T13:31:35Z</time>
      </trkpt>
      <trkpt lat="46.122455522418022" lon="9.362270683050156">
        <ele>312.56999999999999</ele>
        <time>2013-05-23T13:31:36Z</time>
      </trkpt>
      <trkpt lat="46.122549315914512" lon="9.362199185416102">
        <ele>312.08999999999997</ele>
        <time>2013-05-23T13:31:51Z</time>
      </trkpt>
      <trkpt lat="46.12258049659431" lon="9.362189546227455">
        <ele>312.56999999999999</ele>
        <time>2013-05-23T13:32:17Z</time>
      </trkpt>
      <trkpt lat="46.122583346441388" lon="9.362188288941979">
        <ele>312.08999999999997</ele>
        <time>2013-05-23T13:32:45Z</time>
      </trkpt>
      <trkpt lat="46.122590973973274" lon="9.362169848755002">
        <ele>312.08999999999997</ele>
        <time>2013-05-23T13:33:18Z</time>
      </trkpt>
      <trkpt lat="46.122588962316513" lon="9.3621941562742">
        <ele>312.08999999999997</ele>
        <time>2013-05-23T13:33:39Z</time>
      </trkpt>
      <trkpt lat="46.122676553204656" lon="9.362326338887215">
        <ele>312.08999999999997</ele>
        <time>2013-05-23T13:33:54Z</time>
      </trkpt>
      <trkpt lat="46.122730867937207" lon="9.362342180684209">
        <ele>312.08999999999997</ele>
        <time>2013-05-23T13:34:00Z</time>
      </trkpt>
      <trkpt lat="46.122741680592299" lon="9.362326674163342">
        <ele>310.63999999999999</ele>
        <time>2013-05-23T13:34:01Z</time>
      </trkpt>
      <trkpt lat="46.122788786888123" lon="9.362236484885216">
        <ele>310.63999999999999</ele>
        <time>2013-05-23T13:34:06Z</time>
      </trkpt>
      <trkpt lat="46.122850812971592" lon="9.361998355016112">
        <ele>308.24000000000001</ele>
        <time>2013-05-23T13:34:21Z</time>
      </trkpt>
      <trkpt lat="46.122899763286114" lon="9.361763410270214">
        <ele>307.27999999999997</ele>
        <time>2013-05-23T13:34:36Z</time>
      </trkpt>
      <trkpt lat="46.122978134080768" lon="9.361535422503948">
        <ele>306.80000000000001</ele>
        <time>2013-05-23T13:34:52Z</time>
      </trkpt>
      <trkpt lat="46.12300562672317" lon="9.361499799415469">
        <ele>306.80000000000001</ele>
        <time>2013-05-23T13:34:56Z</time>
      </trkpt>
      <trkpt lat="46.123016187921166" lon="9.361490830779076">
        <ele>306.80000000000001</ele>
        <time>2013-05-23T13:34:57Z</time>
      </trkpt>
      <trkpt lat="46.123089110478759" lon="9.361397791653872">
        <ele>301.50999999999999</ele>
        <time>2013-05-23T13:35:05Z</time>
      </trkpt>
      <trkpt lat="46.123099587857723" lon="9.361389242112637">
        <ele>301.50999999999999</ele>
        <time>2013-05-23T13:35:06Z</time>
      </trkpt>
      <trkpt lat="46.123241661116481" lon="9.361273907124996">
        <ele>300.06999999999999</ele>
        <time>2013-05-23T13:35:20Z</time>
      </trkpt>
      <trkpt lat="46.123402761295438" lon="9.361110962927342">
        <ele>300.06999999999999</ele>
        <time>2013-05-23T13:35:38Z</time>
      </trkpt>
      <trkpt lat="46.123551037162542" lon="9.360920945182443">
        <ele>299.58999999999997</ele>
        <time>2013-05-23T13:35:55Z</time>
      </trkpt>
      <trkpt lat="46.123614320531487" lon="9.360867133364081">
        <ele>293.81999999999999</ele>
        <time>2013-05-23T13:36:02Z</time>
      </trkpt>
      <trkpt lat="46.123626055195928" lon="9.360856991261244">
        <ele>294.30000000000001</ele>
        <time>2013-05-23T13:36:03Z</time>
      </trkpt>
      <trkpt lat="46.123818168416619" lon="9.360814830288291">
        <ele>293.81999999999999</ele>
        <time>2013-05-23T13:36:20Z</time>
      </trkpt>
      <trkpt lat="46.123881032690406" lon="9.360862774774432">
        <ele>291.42000000000002</ele>
        <time>2013-05-23T13:36:26Z</time>
      </trkpt>
      <trkpt lat="46.12401170656085" lon="9.360830672085285">
        <ele>289.49000000000001</ele>
        <time>2013-05-23T13:36:35Z</time>
      </trkpt>
      <trkpt lat="46.124019669368863" lon="9.360788427293301">
        <ele>289.49000000000001</ele>
        <time>2013-05-23T13:36:45Z</time>
      </trkpt>
      <trkpt lat="46.124063255265355" lon="9.360786750912666">
        <ele>289.00999999999999</ele>
        <time>2013-05-23T13:36:49Z</time>
      </trkpt>
      <trkpt lat="46.124074151739478" lon="9.360787505283952">
        <ele>289.00999999999999</ele>
        <time>2013-05-23T13:36:50Z</time>
      </trkpt>
      <trkpt lat="46.124179009348154" lon="9.360820110887289">
        <ele>289.00999999999999</ele>
        <time>2013-05-23T13:37:07Z</time>
      </trkpt>
      <trkpt lat="46.124386377632618" lon="9.360795887187123">
        <ele>288.52999999999997</ele>
        <time>2013-05-23T13:37:24Z</time>
      </trkpt>
      <trkpt lat="46.124526187777519" lon="9.360757833346725">
        <ele>285.64999999999998</ele>
        <time>2013-05-23T13:37:41Z</time>
      </trkpt>
      <trkpt lat="46.124526523053646" lon="9.360753055661917">
        <ele>285.64999999999998</ele>
        <time>2013-05-23T13:37:42Z</time>
      </trkpt>
      <trkpt lat="46.124564409255981" lon="9.360759593546391">
        <ele>286.13</ele>
        <time>2013-05-23T13:37:59Z</time>
      </trkpt>
      <trkpt lat="46.124556194990873" lon="9.360741823911667">
        <ele>285.64999999999998</ele>
        <time>2013-05-23T13:38:25Z</time>
      </trkpt>
      <trkpt lat="46.124567594379187" lon="9.360755486413837">
        <ele>285.64999999999998</ele>
        <time>2013-05-23T13:38:56Z</time>
      </trkpt>
      <trkpt lat="46.124574299901724" lon="9.360769484192133">
        <ele>285.17000000000002</ele>
        <time>2013-05-23T13:39:02Z</time>
      </trkpt>
      <trkpt lat="46.124575473368168" lon="9.360811812803149">
        <ele>285.64999999999998</ele>
        <time>2013-05-23T13:39:10Z</time>
      </trkpt>
      <trkpt lat="46.124708158895373" lon="9.360628500580788">
        <ele>284.20999999999998</ele>
        <time>2013-05-23T13:39:28Z</time>
      </trkpt>
      <trkpt lat="46.124874791130424" lon="9.360492881387472">
        <ele>283.73000000000002</ele>
        <time>2013-05-23T13:39:46Z</time>
      </trkpt>
      <trkpt lat="46.124931201338768" lon="9.360469663515687">
        <ele>283.73000000000002</ele>
        <time>2013-05-23T13:39:52Z</time>
      </trkpt>
      <trkpt lat="46.124956933781505" lon="9.360464718192816">
        <ele>283.73000000000002</ele>
        <time>2013-05-23T13:39:55Z</time>
      </trkpt>
      <trkpt lat="46.124972105026245" lon="9.360456001013517">
        <ele>280.83999999999997</ele>
        <time>2013-05-23T13:39:57Z</time>
      </trkpt>
      <trkpt lat="46.125149298459291" lon="9.36034225858748">
        <ele>280.36000000000001</ele>
        <time>2013-05-23T13:40:13Z</time>
      </trkpt>
      <trkpt lat="46.125344596803188" lon="9.360146373510361">
        <ele>280.36000000000001</ele>
        <time>2013-05-23T13:40:33Z</time>
      </trkpt>
      <trkpt lat="46.125477449968457" lon="9.359961971640587">
        <ele>272.67000000000002</ele>
        <time>2013-05-23T13:40:49Z</time>
      </trkpt>
      <trkpt lat="46.125490106642246" lon="9.359946129843593">
        <ele>272.67000000000002</ele>
        <time>2013-05-23T13:40:50Z</time>
      </trkpt>
      <trkpt lat="46.125626899302006" lon="9.359779246151447">
        <ele>270.75</ele>
        <time>2013-05-23T13:41:04Z</time>
      </trkpt>
      <trkpt lat="46.125832507386804" lon="9.359638346359134">
        <ele>268.82999999999998</ele>
        <time>2013-05-23T13:41:23Z</time>
      </trkpt>
      <trkpt lat="46.125847427174449" lon="9.359642453491688">
        <ele>268.82999999999998</ele>
        <time>2013-05-23T13:41:28Z</time>
      </trkpt>
      <trkpt lat="46.126039205119014" lon="9.359814114868641">
        <ele>268.35000000000002</ele>
        <time>2013-05-23T13:41:46Z</time>
      </trkpt>
      <trkpt lat="46.126214051619172" lon="9.359976220875979">
        <ele>268.35000000000002</ele>
        <time>2013-05-23T13:42:04Z</time>
      </trkpt>
      <trkpt lat="46.126398453488946" lon="9.360128939151764">
        <ele>267.86000000000001</ele>
        <time>2013-05-23T13:42:21Z</time>
      </trkpt>
      <trkpt lat="46.126600624993443" lon="9.360202951356769">
        <ele>266.42000000000002</ele>
        <time>2013-05-23T13:42:38Z</time>
      </trkpt>
      <trkpt lat="46.126831546425819" lon="9.360285680741072">
        <ele>266.42000000000002</ele>
        <time>2013-05-23T13:42:56Z</time>
      </trkpt>
      <trkpt lat="46.127029694616795" lon="9.360376037657261">
        <ele>266.42000000000002</ele>
        <time>2013-05-23T13:43:13Z</time>
      </trkpt>
      <trkpt lat="46.127096246927977" lon="9.360404619947076">
        <ele>261.13999999999999</ele>
        <time>2013-05-23T13:43:18Z</time>
      </trkpt>
      <trkpt lat="46.127107059583068" lon="9.360410235822201">
        <ele>261.13999999999999</ele>
        <time>2013-05-23T13:43:19Z</time>
      </trkpt>
      <trkpt lat="46.127278553321958" lon="9.360547279939055">
        <ele>260.64999999999998</ele>
        <time>2013-05-23T13:43:36Z</time>
      </trkpt>
      <trkpt lat="46.1275440081954" lon="9.360744841396809">
        <ele>258.73000000000002</ele>
        <time>2013-05-23T13:44:00Z</time>
      </trkpt>
      <trkpt lat="46.127720614895225" lon="9.360896553844214">
        <ele>258.25</ele>
        <time>2013-05-23T13:44:17Z</time>
      </trkpt>
      <trkpt lat="46.127912728115916" lon="9.361099312081933">
        <ele>256.32999999999998</ele>
        <time>2013-05-23T13:44:35Z</time>
      </trkpt>
      <trkpt lat="46.128054801374674" lon="9.361267620697618">
        <ele>254.88999999999999</ele>
        <time>2013-05-23T13:44:50Z</time>
      </trkpt>
      <trkpt lat="46.128198048099875" lon="9.361556377261877">
        <ele>253.93000000000001</ele>
        <time>2013-05-23T13:45:08Z</time>
      </trkpt>
      <trkpt lat="46.128389742225409" lon="9.36174119822681">
        <ele>252.47999999999999</ele>
        <time>2013-05-23T13:45:25Z</time>
      </trkpt>
      <trkpt lat="46.128589734435081" lon="9.361934149637818">
        <ele>251.03999999999999</ele>
        <time>2013-05-23T13:45:42Z</time>
      </trkpt>
      <trkpt lat="46.128820488229394" lon="9.362143110483885">
        <ele>249.59999999999999</ele>
        <time>2013-05-23T13:46:01Z</time>
      </trkpt>
      <trkpt lat="46.128924256190658" lon="9.362248303368688">
        <ele>248.16</ele>
        <time>2013-05-23T13:46:11Z</time>
      </trkpt>
      <trkpt lat="46.129065491259098" lon="9.362421222031117">
        <ele>246.72</ele>
        <time>2013-05-23T13:46:26Z</time>
      </trkpt>
      <trkpt lat="46.12925467081368" lon="9.362632613629103">
        <ele>245.75</ele>
        <time>2013-05-23T13:46:44Z</time>
      </trkpt>
      <trkpt lat="46.129403952509165" lon="9.362832605838776">
        <ele>244.78999999999999</ele>
        <time>2013-05-23T13:46:59Z</time>
      </trkpt>
      <trkpt lat="46.129559855908155" lon="9.363064616918564">
        <ele>244.31</ele>
        <time>2013-05-23T13:47:17Z</time>
      </trkpt>
      <trkpt lat="46.129737049341202" lon="9.363260082900524">
        <ele>243.34999999999999</ele>
        <time>2013-05-23T13:47:34Z</time>
      </trkpt>
      <trkpt lat="46.129902508109808" lon="9.363470384851098">
        <ele>242.38999999999999</ele>
        <time>2013-05-23T13:47:50Z</time>
      </trkpt>
      <trkpt lat="46.13010392524302" lon="9.363609105348587">
        <ele>240.47</ele>
        <time>2013-05-23T13:48:06Z</time>
      </trkpt>
      <trkpt lat="46.130328560248017" lon="9.36375143006444">
        <ele>239.99000000000001</ele>
        <time>2013-05-23T13:48:23Z</time>
      </trkpt>
      <trkpt lat="46.13054322078824" lon="9.363911189138889">
        <ele>238.53999999999999</ele>
        <time>2013-05-23T13:48:41Z</time>
      </trkpt>
      <trkpt lat="46.130754193291068" lon="9.364053346216679">
        <ele>237.58000000000001</ele>
        <time>2013-05-23T13:48:58Z</time>
      </trkpt>
      <trkpt lat="46.130888806656003" lon="9.36417362652719">
        <ele>237.09999999999999</ele>
        <time>2013-05-23T13:49:15Z</time>
      </trkpt>
      <trkpt lat="46.131012523546815" lon="9.364297427237034">
        <ele>236.13999999999999</ele>
        <time>2013-05-23T13:49:33Z</time>
      </trkpt>
      <trkpt lat="46.131202792748809" lon="9.36460068449378">
        <ele>235.18000000000001</ele>
        <time>2013-05-23T13:49:53Z</time>
      </trkpt>
      <trkpt lat="46.131235985085368" lon="9.364704452455044">
        <ele>235.18000000000001</ele>
        <time>2013-05-23T13:49:59Z</time>
      </trkpt>
      <trkpt lat="46.13137973472476" lon="9.364942666143179">
        <ele>235.66</ele>
        <time>2013-05-23T13:50:16Z</time>
      </trkpt>
      <trkpt lat="46.131570255383849" lon="9.365229830145836">
        <ele>233.74000000000001</ele>
        <time>2013-05-23T13:50:36Z</time>
      </trkpt>
      <trkpt lat="46.1317178606987" lon="9.365485981106758">
        <ele>233.74000000000001</ele>
        <time>2013-05-23T13:50:54Z</time>
      </trkpt>
      <trkpt lat="46.131899328902364" lon="9.365760907530785">
        <ele>233.74000000000001</ele>
        <time>2013-05-23T13:51:15Z</time>
      </trkpt>
      <trkpt lat="46.132037714123726" lon="9.365970455110073">
        <ele>233.74000000000001</ele>
        <time>2013-05-23T13:51:31Z</time>
      </trkpt>
      <trkpt lat="46.13219914957881" lon="9.366195760667324">
        <ele>232.30000000000001</ele>
        <time>2013-05-23T13:51:49Z</time>
      </trkpt>
      <trkpt lat="46.132423616945744" lon="9.366414863616228">
        <ele>231.33000000000001</ele>
        <time>2013-05-23T13:52:10Z</time>
      </trkpt>
      <trkpt lat="46.132590919733047" lon="9.366478733718395">
        <ele>229.88999999999999</ele>
        <time>2013-05-23T13:52:23Z</time>
      </trkpt>
      <trkpt lat="46.132803400978446" lon="9.366567749530077">
        <ele>229.41</ele>
        <time>2013-05-23T13:52:40Z</time>
      </trkpt>
      <trkpt lat="46.13288420252502" lon="9.366611251607537">
        <ele>229.41</ele>
        <time>2013-05-23T13:52:47Z</time>
      </trkpt>
      <trkpt lat="46.13292284309864" lon="9.366635978221893">
        <ele>228.93000000000001</ele>
        <time>2013-05-23T13:52:50Z</time>
      </trkpt>
      <trkpt lat="46.132945725694299" lon="9.366681408137083">
        <ele>228.44999999999999</ele>
        <time>2013-05-23T13:52:53Z</time>
      </trkpt>
      <trkpt lat="46.133150663226843" lon="9.366811411455274">
        <ele>227.97</ele>
        <time>2013-05-23T13:53:10Z</time>
      </trkpt>
      <trkpt lat="46.133282762020826" lon="9.366972930729389">
        <ele>228.44999999999999</ele>
        <time>2013-05-23T13:53:24Z</time>
      </trkpt>
      <trkpt lat="46.133420141413808" lon="9.367209048941732">
        <ele>228.44999999999999</ele>
        <time>2013-05-23T13:53:39Z</time>
      </trkpt>
      <trkpt lat="46.133465152233839" lon="9.367270739749074">
        <ele>228.44999999999999</ele>
        <time>2013-05-23T13:53:44Z</time>
      </trkpt>
      <trkpt lat="46.133558107540011" lon="9.367436533793807">
        <ele>228.44999999999999</ele>
        <time>2013-05-23T13:53:56Z</time>
      </trkpt>
      <trkpt lat="46.133598256856203" lon="9.367508869618177">
        <ele>228.44999999999999</ele>
        <time>2013-05-23T13:54:02Z</time>
      </trkpt>
      <trkpt lat="46.133732451125979" lon="9.367703665047884">
        <ele>228.44999999999999</ele>
        <time>2013-05-23T13:54:16Z</time>
      </trkpt>
      <trkpt lat="46.133833955973387" lon="9.367874236777425">
        <ele>228.44999999999999</ele>
        <time>2013-05-23T13:54:30Z</time>
      </trkpt>
      <trkpt lat="46.133824735879898" lon="9.367886390537024">
        <ele>228.93000000000001</ele>
        <time>2013-05-23T13:54:34Z</time>
      </trkpt>
      <trkpt lat="46.133868573233485" lon="9.367933832108975">
        <ele>228.93000000000001</ele>
        <time>2013-05-23T13:54:39Z</time>
      </trkpt>
      <trkpt lat="46.13405205309391" lon="9.368184534832835">
        <ele>227.97</ele>
        <time>2013-05-23T13:54:59Z</time>
      </trkpt>
      <trkpt lat="46.13419278524816" lon="9.368405984714627">
        <ele>228.44999999999999</ele>
        <time>2013-05-23T13:55:15Z</time>
      </trkpt>
      <trkpt lat="46.134351203218102" lon="9.368677726015449">
        <ele>228.44999999999999</ele>
        <time>2013-05-23T13:55:34Z</time>
      </trkpt>
      <trkpt lat="46.13448497839272" lon="9.368844693526626">
        <ele>228.93000000000001</ele>
        <time>2013-05-23T13:55:47Z</time>
      </trkpt>
      <trkpt lat="46.134507609531283" lon="9.368901271373034">
        <ele>228.44999999999999</ele>
        <time>2013-05-23T13:55:51Z</time>
      </trkpt>
      <trkpt lat="46.134624201804399" lon="9.369135294109583">
        <ele>227.97</ele>
        <time>2013-05-23T13:56:05Z</time>
      </trkpt>
      <trkpt lat="46.134652113541961" lon="9.369178460910916">
        <ele>227.97</ele>
        <time>2013-05-23T13:56:08Z</time>
      </trkpt>
      <trkpt lat="46.134751522913575" lon="9.369377614930272">
        <ele>227.49000000000001</ele>
        <time>2013-05-23T13:56:20Z</time>
      </trkpt>
      <trkpt lat="46.134832324460149" lon="9.369506109505892">
        <ele>226.53</ele>
        <time>2013-05-23T13:56:29Z</time>
      </trkpt>
      <trkpt lat="46.134848417714238" lon="9.369538547471166">
        <ele>226.53</ele>
        <time>2013-05-23T13:56:31Z</time>
      </trkpt>
      <trkpt lat="46.134884040802717" lon="9.369623372331262">
        <ele>226.05000000000001</ele>
        <time>2013-05-23T13:56:36Z</time>
      </trkpt>
      <trkpt lat="46.135027874261141" lon="9.369901735335589">
        <ele>225.56999999999999</ele>
        <time>2013-05-23T13:56:54Z</time>
      </trkpt>
      <trkpt lat="46.135092582553625" lon="9.370050262659788">
        <ele>225.09</ele>
        <time>2013-05-23T13:57:03Z</time>
      </trkpt>
      <trkpt lat="46.135193668305874" lon="9.370330050587654">
        <ele>225.09</ele>
        <time>2013-05-23T13:57:20Z</time>
      </trkpt>
      <trkpt lat="46.135238930583" lon="9.370471788570285">
        <ele>223.63999999999999</ele>
        <time>2013-05-23T13:57:28Z</time>
      </trkpt>
      <trkpt lat="46.135349739342928" lon="9.370737327262759">
        <ele>222.68000000000001</ele>
        <time>2013-05-23T13:57:44Z</time>
      </trkpt>
      <trkpt lat="46.135360132902861" lon="9.370806813240051">
        <ele>222.68000000000001</ele>
        <time>2013-05-23T13:57:48Z</time>
      </trkpt>
      <trkpt lat="46.135452501475811" lon="9.370920471847057">
        <ele>222.19999999999999</ele>
        <time>2013-05-23T13:57:57Z</time>
      </trkpt>
      <trkpt lat="46.135599603876472" lon="9.371090373024344">
        <ele>221.24000000000001</ele>
        <time>2013-05-23T13:58:11Z</time>
      </trkpt>
      <trkpt lat="46.135724075138569" lon="9.37135012820363">
        <ele>220.28</ele>
        <time>2013-05-23T13:58:27Z</time>
      </trkpt>
      <trkpt lat="46.135762631893158" lon="9.371420033276081">
        <ele>220.28</ele>
        <time>2013-05-23T13:58:31Z</time>
      </trkpt>
      <trkpt lat="46.135757938027382" lon="9.371496643871069">
        <ele>220.28</ele>
        <time>2013-05-23T13:58:35Z</time>
      </trkpt>
      <trkpt lat="46.135742096230388" lon="9.37155875377357">
        <ele>220.28</ele>
        <time>2013-05-23T13:58:48Z</time>
      </trkpt>
      <trkpt lat="46.135770259425044" lon="9.371547438204289">
        <ele>220.28</ele>
        <time>2013-05-23T13:58:57Z</time>
      </trkpt>
      <trkpt lat="46.13581845536828" lon="9.371639303863049">
        <ele>219.80000000000001</ele>
        <time>2013-05-23T13:59:01Z</time>
      </trkpt>
      <trkpt lat="46.135944351553917" lon="9.371880032122135">
        <ele>218.84</ele>
        <time>2013-05-23T13:59:17Z</time>
      </trkpt>
      <trkpt lat="46.136022554710507" lon="9.372068960219622">
        <ele>218.36000000000001</ele>
        <time>2013-05-23T13:59:31Z</time>
      </trkpt>
      <trkpt lat="46.136031774803996" lon="9.372069463133812">
        <ele>218.36000000000001</ele>
        <time>2013-05-23T13:59:33Z</time>
      </trkpt>
      <trkpt lat="46.136053232476115" lon="9.372107768431306">
        <ele>219.31999999999999</ele>
        <time>2013-05-23T13:59:40Z</time>
      </trkpt>
      <trkpt lat="46.136075779795647" lon="9.372063763439655">
        <ele>218.84</ele>
        <time>2013-05-23T13:59:43Z</time>
      </trkpt>
      <trkpt lat="46.136225732043386" lon="9.371800655499101">
        <ele>218.36000000000001</ele>
        <time>2013-05-23T14:00:01Z</time>
      </trkpt>
      <trkpt lat="46.136401165276766" lon="9.371670400723815">
        <ele>216.91</ele>
        <time>2013-05-23T14:00:16Z</time>
      </trkpt>
      <trkpt lat="46.136439302936196" lon="9.371675010770559">
        <ele>216.43000000000001</ele>
        <time>2013-05-23T14:00:24Z</time>
      </trkpt>
      <trkpt lat="46.136477692052722" lon="9.371652463451028">
        <ele>216.91</ele>
        <time>2013-05-23T14:00:29Z</time>
      </trkpt>
      <trkpt lat="46.136550363153219" lon="9.371835775673389">
        <ele>216.43000000000001</ele>
        <time>2013-05-23T14:00:40Z</time>
      </trkpt>
      <trkpt lat="46.136564360931516" lon="9.371916074305773">
        <ele>216.43000000000001</ele>
        <time>2013-05-23T14:00:44Z</time>
      </trkpt>
      <trkpt lat="46.136625381186604" lon="9.372107936069369">
        <ele>215.94999999999999</ele>
        <time>2013-05-23T14:00:55Z</time>
      </trkpt>
      <trkpt lat="46.136651365086436" lon="9.372210614383221">
        <ele>216.43000000000001</ele>
        <time>2013-05-23T14:01:02Z</time>
      </trkpt>
      <trkpt lat="46.136690424755216" lon="9.372279932722449">
        <ele>216.43000000000001</ele>
        <time>2013-05-23T14:01:06Z</time>
      </trkpt>
      <trkpt lat="46.136709451675415" lon="9.372314969077706">
        <ele>216.43000000000001</ele>
        <time>2013-05-23T14:01:08Z</time>
      </trkpt>
      <trkpt lat="46.136803580448031" lon="9.372474392876029">
        <ele>216.43000000000001</ele>
        <time>2013-05-23T14:01:19Z</time>
      </trkpt>
      <trkpt lat="46.136827217414975" lon="9.372558379545808">
        <ele>216.43000000000001</ele>
        <time>2013-05-23T14:01:24Z</time>
      </trkpt>
      <trkpt lat="46.136862924322486" lon="9.372677067294717">
        <ele>216.43000000000001</ele>
        <time>2013-05-23T14:01:40Z</time>
      </trkpt>
      <trkpt lat="46.136979684233665" lon="9.372951239347458">
        <ele>216.43000000000001</ele>
        <time>2013-05-23T14:01:56Z</time>
      </trkpt>
      <trkpt lat="46.137127205729485" lon="9.373284503817558">
        <ele>216.43000000000001</ele>
        <time>2013-05-23T14:02:17Z</time>
      </trkpt>
      <trkpt lat="46.137237511575222" lon="9.373480137437582">
        <ele>217.88</ele>
        <time>2013-05-23T14:02:38Z</time>
      </trkpt>
      <trkpt lat="46.13708546385169" lon="9.37374978326261">
        <ele>219.80000000000001</ele>
        <time>2013-05-23T14:02:55Z</time>
      </trkpt>
      <trkpt lat="46.137267183512449" lon="9.374959291890264">
        <ele>220.75999999999999</ele>
        <time>2013-05-23T14:03:44Z</time>
      </trkpt>
      <trkpt lat="46.137452926486731" lon="9.374821744859219">
        <ele>220.28</ele>
        <time>2013-05-23T14:03:59Z</time>
      </trkpt>
      <trkpt lat="46.137613775208592" lon="9.375126762315631">
        <ele>221.24000000000001</ele>
        <time>2013-05-23T14:04:18Z</time>
      </trkpt>
      <trkpt lat="46.13767622038722" lon="9.375180657953024">
        <ele>221.24000000000001</ele>
        <time>2013-05-23T14:04:24Z</time>
      </trkpt>
      <trkpt lat="46.137700024992228" lon="9.375176802277565">
        <ele>221.24000000000001</ele>
        <time>2013-05-23T14:04:26Z</time>
      </trkpt>
      <trkpt lat="46.137752244248986" lon="9.375225668773055">
        <ele>221.72</ele>
        <time>2013-05-23T14:04:32Z</time>
      </trkpt>
      <trkpt lat="46.137776803225279" lon="9.375269422307611">
        <ele>222.68000000000001</ele>
        <time>2013-05-23T14:04:37Z</time>
      </trkpt>
      <trkpt lat="46.13778417930007" lon="9.375296244397759">
        <ele>222.68000000000001</ele>
        <time>2013-05-23T14:04:39Z</time>
      </trkpt>
      <trkpt lat="46.137830447405577" lon="9.375313175842166">
        <ele>222.19999999999999</ele>
        <time>2013-05-23T14:04:54Z</time>
      </trkpt>
      <trkpt lat="46.137763978913426" lon="9.375327927991748">
        <ele>222.68000000000001</ele>
        <time>2013-05-23T14:05:07Z</time>
      </trkpt>
      <trkpt lat="46.137758195400238" lon="9.375447873026133">
        <ele>222.19999999999999</ele>
        <time>2013-05-23T14:05:22Z</time>
      </trkpt>
      <trkpt lat="46.137740006670356" lon="9.375384757295251">
        <ele>222.68000000000001</ele>
        <time>2013-05-23T14:05:27Z</time>
      </trkpt>
      <trkpt lat="46.137692481279373" lon="9.375234805047512">
        <ele>221.24000000000001</ele>
        <time>2013-05-23T14:05:40Z</time>
      </trkpt>
    </trkseg>
  </trk>

</gpx>